<?xml version="1.0" encoding="UTF-8" standalone="no" ?>
<gpx xmlns="http://www.topografix.com/GPX/1/1" xmlns:xsi="http://www.w3.org/2001/XMLSchema-instance" xsi:schemaLocation="http://www.topografix.com/GPX/1/1 http://www.topografix.com/GPX/1/1/gpx.xsd" version="1.1" creator="VisuGPX - https://www.visugpx.com">
  <metadata>
    <name>13 - D+  - Trets</name>
    <desc><![CDATA[13 - D+  - Trets de l' ermitage St Jean du Puy au Mont Olympe 8/06/2025]]></desc>
  </metadata>
  <trk>
    <name><![CDATA[Trets ermitage st Jean du Puy au mont Olympe 2025-06-08_085353Mont Olympe]]></name>
    <trkseg>
      <trkpt lat="43.41855" lon="5.70479">
        <ele>641.5</ele>
        <time>2025-06-08T06:53:53Z</time>
      </trkpt>
      <trkpt lat="43.41855" lon="5.70479">
        <ele>641.5</ele>
        <time>2025-06-08T06:53:53Z</time>
      </trkpt>
      <trkpt lat="43.4186" lon="5.70491">
        <ele>641.6</ele>
        <time>2025-06-08T06:53:55Z</time>
      </trkpt>
      <trkpt lat="43.41857" lon="5.70483">
        <ele>641</ele>
        <time>2025-06-08T06:54:30Z</time>
      </trkpt>
      <trkpt lat="43.41857" lon="5.70483">
        <ele>641.1</ele>
        <time>2025-06-08T06:54:32Z</time>
      </trkpt>
      <trkpt lat="43.41857" lon="5.70483">
        <ele>641.1</ele>
        <time>2025-06-08T06:54:33Z</time>
      </trkpt>
      <trkpt lat="43.41857" lon="5.70483">
        <ele>641.1</ele>
        <time>2025-06-08T06:54:38Z</time>
      </trkpt>
      <trkpt lat="43.41857" lon="5.70483">
        <ele>641.1</ele>
        <time>2025-06-08T06:54:39Z</time>
      </trkpt>
      <trkpt lat="43.41857" lon="5.70483">
        <ele>641</ele>
        <time>2025-06-08T06:54:41Z</time>
      </trkpt>
      <trkpt lat="43.41857" lon="5.70483">
        <ele>640.9</ele>
        <time>2025-06-08T06:54:43Z</time>
      </trkpt>
      <trkpt lat="43.41857" lon="5.70483">
        <ele>640.8</ele>
        <time>2025-06-08T06:54:45Z</time>
      </trkpt>
      <trkpt lat="43.41857" lon="5.70484">
        <ele>640.8</ele>
        <time>2025-06-08T06:54:47Z</time>
      </trkpt>
      <trkpt lat="43.41857" lon="5.70484">
        <ele>640.7</ele>
        <time>2025-06-08T06:54:49Z</time>
      </trkpt>
      <trkpt lat="43.41857" lon="5.70484">
        <ele>640.5</ele>
        <time>2025-06-08T06:54:51Z</time>
      </trkpt>
      <trkpt lat="43.41857" lon="5.70484">
        <ele>640.5</ele>
        <time>2025-06-08T06:54:52Z</time>
      </trkpt>
      <trkpt lat="43.41856" lon="5.70497">
        <ele>637.1</ele>
        <time>2025-06-08T06:55:04Z</time>
      </trkpt>
      <trkpt lat="43.41865" lon="5.70502">
        <ele>636.3</ele>
        <time>2025-06-08T06:55:18Z</time>
      </trkpt>
      <trkpt lat="43.41874" lon="5.70499">
        <ele>637.2</ele>
        <time>2025-06-08T06:55:46Z</time>
      </trkpt>
      <trkpt lat="43.41874" lon="5.70499">
        <ele>637.2</ele>
        <time>2025-06-08T06:55:47Z</time>
      </trkpt>
      <trkpt lat="43.41874" lon="5.70499">
        <ele>637.3</ele>
        <time>2025-06-08T06:55:48Z</time>
      </trkpt>
      <trkpt lat="43.41876" lon="5.70496">
        <ele>636.9</ele>
        <time>2025-06-08T06:55:54Z</time>
      </trkpt>
      <trkpt lat="43.41876" lon="5.70495">
        <ele>637.1</ele>
        <time>2025-06-08T06:55:55Z</time>
      </trkpt>
      <trkpt lat="43.41884" lon="5.70488">
        <ele>636.9</ele>
        <time>2025-06-08T06:56:15Z</time>
      </trkpt>
      <trkpt lat="43.41886" lon="5.70489">
        <ele>637.2</ele>
        <time>2025-06-08T06:56:20Z</time>
      </trkpt>
      <trkpt lat="43.41886" lon="5.70488">
        <ele>637.4</ele>
        <time>2025-06-08T06:56:21Z</time>
      </trkpt>
      <trkpt lat="43.41895" lon="5.70486">
        <ele>635.3</ele>
        <time>2025-06-08T06:56:48Z</time>
      </trkpt>
      <trkpt lat="43.41902" lon="5.70478">
        <ele>635.1</ele>
        <time>2025-06-08T06:56:57Z</time>
      </trkpt>
      <trkpt lat="43.41908" lon="5.70472">
        <ele>635.1</ele>
        <time>2025-06-08T06:57:14Z</time>
      </trkpt>
      <trkpt lat="43.41908" lon="5.70472">
        <ele>635.1</ele>
        <time>2025-06-08T06:57:15Z</time>
      </trkpt>
      <trkpt lat="43.41908" lon="5.70472">
        <ele>635</ele>
        <time>2025-06-08T06:57:16Z</time>
      </trkpt>
      <trkpt lat="43.41908" lon="5.7047">
        <ele>634.9</ele>
        <time>2025-06-08T06:57:17Z</time>
      </trkpt>
      <trkpt lat="43.41909" lon="5.70467">
        <ele>634</ele>
        <time>2025-06-08T06:57:28Z</time>
      </trkpt>
      <trkpt lat="43.41909" lon="5.70467">
        <ele>634</ele>
        <time>2025-06-08T06:57:29Z</time>
      </trkpt>
      <trkpt lat="43.41909" lon="5.70467">
        <ele>633.7</ele>
        <time>2025-06-08T06:57:32Z</time>
      </trkpt>
      <trkpt lat="43.41909" lon="5.70466">
        <ele>633.7</ele>
        <time>2025-06-08T06:57:33Z</time>
      </trkpt>
      <trkpt lat="43.41909" lon="5.70466">
        <ele>633.7</ele>
        <time>2025-06-08T06:57:35Z</time>
      </trkpt>
      <trkpt lat="43.41909" lon="5.70464">
        <ele>633.6</ele>
        <time>2025-06-08T06:57:37Z</time>
      </trkpt>
      <trkpt lat="43.41914" lon="5.7046">
        <ele>631.7</ele>
        <time>2025-06-08T06:58:16Z</time>
      </trkpt>
      <trkpt lat="43.41914" lon="5.7046">
        <ele>631.2</ele>
        <time>2025-06-08T06:58:18Z</time>
      </trkpt>
      <trkpt lat="43.41906" lon="5.70467">
        <ele>628.3</ele>
        <time>2025-06-08T06:58:49Z</time>
      </trkpt>
      <trkpt lat="43.41899" lon="5.70475">
        <ele>628.8</ele>
        <time>2025-06-08T06:59:10Z</time>
      </trkpt>
      <trkpt lat="43.41891" lon="5.70479">
        <ele>629.7</ele>
        <time>2025-06-08T06:59:19Z</time>
      </trkpt>
      <trkpt lat="43.41882" lon="5.70484">
        <ele>630.6</ele>
        <time>2025-06-08T06:59:32Z</time>
      </trkpt>
      <trkpt lat="43.41875" lon="5.70491">
        <ele>631</ele>
        <time>2025-06-08T06:59:44Z</time>
      </trkpt>
      <trkpt lat="43.41867" lon="5.70499">
        <ele>631.2</ele>
        <time>2025-06-08T06:59:52Z</time>
      </trkpt>
      <trkpt lat="43.41858" lon="5.70502">
        <ele>630.9</ele>
        <time>2025-06-08T07:00:01Z</time>
      </trkpt>
      <trkpt lat="43.41849" lon="5.70507">
        <ele>631</ele>
        <time>2025-06-08T07:00:10Z</time>
      </trkpt>
      <trkpt lat="43.41845" lon="5.70519">
        <ele>628.3</ele>
        <time>2025-06-08T07:00:17Z</time>
      </trkpt>
      <trkpt lat="43.41837" lon="5.70527">
        <ele>627.8</ele>
        <time>2025-06-08T07:00:27Z</time>
      </trkpt>
      <trkpt lat="43.41841" lon="5.7054">
        <ele>627.6</ele>
        <time>2025-06-08T07:00:34Z</time>
      </trkpt>
      <trkpt lat="43.4185" lon="5.70554">
        <ele>626.2</ele>
        <time>2025-06-08T07:00:42Z</time>
      </trkpt>
      <trkpt lat="43.41861" lon="5.70554">
        <ele>625.2</ele>
        <time>2025-06-08T07:00:46Z</time>
      </trkpt>
      <trkpt lat="43.41868" lon="5.70561">
        <ele>624.1</ele>
        <time>2025-06-08T07:00:54Z</time>
      </trkpt>
      <trkpt lat="43.4186" lon="5.70569">
        <ele>621</ele>
        <time>2025-06-08T07:01:07Z</time>
      </trkpt>
      <trkpt lat="43.41865" lon="5.7058">
        <ele>619.1</ele>
        <time>2025-06-08T07:01:19Z</time>
      </trkpt>
      <trkpt lat="43.41873" lon="5.70588">
        <ele>617.3</ele>
        <time>2025-06-08T07:01:28Z</time>
      </trkpt>
      <trkpt lat="43.41881" lon="5.70596">
        <ele>615.2</ele>
        <time>2025-06-08T07:01:35Z</time>
      </trkpt>
      <trkpt lat="43.41884" lon="5.70598">
        <ele>615.5</ele>
        <time>2025-06-08T07:01:41Z</time>
      </trkpt>
      <trkpt lat="43.41884" lon="5.70598">
        <ele>615.6</ele>
        <time>2025-06-08T07:01:42Z</time>
      </trkpt>
      <trkpt lat="43.41894" lon="5.70598">
        <ele>616.4</ele>
        <time>2025-06-08T07:01:49Z</time>
      </trkpt>
      <trkpt lat="43.41903" lon="5.70603">
        <ele>616.9</ele>
        <time>2025-06-08T07:01:59Z</time>
      </trkpt>
      <trkpt lat="43.41909" lon="5.70615">
        <ele>616.9</ele>
        <time>2025-06-08T07:02:04Z</time>
      </trkpt>
      <trkpt lat="43.41916" lon="5.70624">
        <ele>618.1</ele>
        <time>2025-06-08T07:02:10Z</time>
      </trkpt>
      <trkpt lat="43.41923" lon="5.70635">
        <ele>618.4</ele>
        <time>2025-06-08T07:02:18Z</time>
      </trkpt>
      <trkpt lat="43.41926" lon="5.70647">
        <ele>618.1</ele>
        <time>2025-06-08T07:02:30Z</time>
      </trkpt>
      <trkpt lat="43.41928" lon="5.7066">
        <ele>618.1</ele>
        <time>2025-06-08T07:02:38Z</time>
      </trkpt>
      <trkpt lat="43.41936" lon="5.70665">
        <ele>617.4</ele>
        <time>2025-06-08T07:02:49Z</time>
      </trkpt>
      <trkpt lat="43.41944" lon="5.70672">
        <ele>617.7</ele>
        <time>2025-06-08T07:02:59Z</time>
      </trkpt>
      <trkpt lat="43.4195" lon="5.70683">
        <ele>617.7</ele>
        <time>2025-06-08T07:03:07Z</time>
      </trkpt>
      <trkpt lat="43.41957" lon="5.70691">
        <ele>618.5</ele>
        <time>2025-06-08T07:03:18Z</time>
      </trkpt>
      <trkpt lat="43.41959" lon="5.70703">
        <ele>618.4</ele>
        <time>2025-06-08T07:03:29Z</time>
      </trkpt>
      <trkpt lat="43.41967" lon="5.7071">
        <ele>618.4</ele>
        <time>2025-06-08T07:03:39Z</time>
      </trkpt>
      <trkpt lat="43.41976" lon="5.70716">
        <ele>618.8</ele>
        <time>2025-06-08T07:03:46Z</time>
      </trkpt>
      <trkpt lat="43.41985" lon="5.70721">
        <ele>619.2</ele>
        <time>2025-06-08T07:03:59Z</time>
      </trkpt>
      <trkpt lat="43.41994" lon="5.70712">
        <ele>618.8</ele>
        <time>2025-06-08T07:04:02Z</time>
      </trkpt>
      <trkpt lat="43.42001" lon="5.70721">
        <ele>618.2</ele>
        <time>2025-06-08T07:04:08Z</time>
      </trkpt>
      <trkpt lat="43.42006" lon="5.70733">
        <ele>618</ele>
        <time>2025-06-08T07:04:15Z</time>
      </trkpt>
      <trkpt lat="43.42012" lon="5.70744">
        <ele>618.4</ele>
        <time>2025-06-08T07:04:22Z</time>
      </trkpt>
      <trkpt lat="43.42018" lon="5.70754">
        <ele>619.7</ele>
        <time>2025-06-08T07:04:28Z</time>
      </trkpt>
      <trkpt lat="43.42024" lon="5.70765">
        <ele>620.7</ele>
        <time>2025-06-08T07:04:35Z</time>
      </trkpt>
      <trkpt lat="43.42028" lon="5.70778">
        <ele>621.4</ele>
        <time>2025-06-08T07:04:42Z</time>
      </trkpt>
      <trkpt lat="43.42032" lon="5.7079">
        <ele>621.9</ele>
        <time>2025-06-08T07:04:49Z</time>
      </trkpt>
      <trkpt lat="43.42028" lon="5.70802">
        <ele>622.3</ele>
        <time>2025-06-08T07:04:55Z</time>
      </trkpt>
      <trkpt lat="43.42032" lon="5.70814">
        <ele>622.9</ele>
        <time>2025-06-08T07:05:00Z</time>
      </trkpt>
      <trkpt lat="43.42039" lon="5.70822">
        <ele>624.6</ele>
        <time>2025-06-08T07:05:07Z</time>
      </trkpt>
      <trkpt lat="43.42045" lon="5.70833">
        <ele>626.6</ele>
        <time>2025-06-08T07:05:17Z</time>
      </trkpt>
      <trkpt lat="43.42043" lon="5.70847">
        <ele>628.9</ele>
        <time>2025-06-08T07:05:24Z</time>
      </trkpt>
      <trkpt lat="43.42051" lon="5.70854">
        <ele>630.2</ele>
        <time>2025-06-08T07:05:32Z</time>
      </trkpt>
      <trkpt lat="43.42055" lon="5.70866">
        <ele>630.7</ele>
        <time>2025-06-08T07:05:39Z</time>
      </trkpt>
      <trkpt lat="43.42058" lon="5.70879">
        <ele>631.7</ele>
        <time>2025-06-08T07:05:46Z</time>
      </trkpt>
      <trkpt lat="43.42061" lon="5.70891">
        <ele>632.5</ele>
        <time>2025-06-08T07:05:53Z</time>
      </trkpt>
      <trkpt lat="43.42064" lon="5.70903">
        <ele>633.1</ele>
        <time>2025-06-08T07:06:03Z</time>
      </trkpt>
      <trkpt lat="43.42069" lon="5.70914">
        <ele>633.8</ele>
        <time>2025-06-08T07:06:11Z</time>
      </trkpt>
      <trkpt lat="43.42076" lon="5.70922">
        <ele>634.1</ele>
        <time>2025-06-08T07:06:17Z</time>
      </trkpt>
      <trkpt lat="43.42085" lon="5.70925">
        <ele>634.4</ele>
        <time>2025-06-08T07:06:24Z</time>
      </trkpt>
      <trkpt lat="43.42093" lon="5.70933">
        <ele>634.2</ele>
        <time>2025-06-08T07:06:30Z</time>
      </trkpt>
      <trkpt lat="43.42102" lon="5.70935">
        <ele>633.9</ele>
        <time>2025-06-08T07:06:37Z</time>
      </trkpt>
      <trkpt lat="43.42105" lon="5.70931">
        <ele>633.8</ele>
        <time>2025-06-08T07:06:43Z</time>
      </trkpt>
      <trkpt lat="43.42105" lon="5.70931">
        <ele>634</ele>
        <time>2025-06-08T07:06:44Z</time>
      </trkpt>
      <trkpt lat="43.42097" lon="5.70942">
        <ele>634.6</ele>
        <time>2025-06-08T07:06:49Z</time>
      </trkpt>
      <trkpt lat="43.42105" lon="5.7095">
        <ele>634.6</ele>
        <time>2025-06-08T07:06:57Z</time>
      </trkpt>
      <trkpt lat="43.42114" lon="5.70955">
        <ele>634.5</ele>
        <time>2025-06-08T07:07:05Z</time>
      </trkpt>
      <trkpt lat="43.42124" lon="5.70959">
        <ele>634.8</ele>
        <time>2025-06-08T07:07:11Z</time>
      </trkpt>
      <trkpt lat="43.42133" lon="5.70965">
        <ele>634.7</ele>
        <time>2025-06-08T07:07:18Z</time>
      </trkpt>
      <trkpt lat="43.42134" lon="5.70978">
        <ele>633.6</ele>
        <time>2025-06-08T07:07:26Z</time>
      </trkpt>
      <trkpt lat="43.42138" lon="5.7099">
        <ele>633.2</ele>
        <time>2025-06-08T07:07:32Z</time>
      </trkpt>
      <trkpt lat="43.42142" lon="5.71003">
        <ele>633.5</ele>
        <time>2025-06-08T07:07:38Z</time>
      </trkpt>
      <trkpt lat="43.42146" lon="5.71015">
        <ele>633.5</ele>
        <time>2025-06-08T07:07:46Z</time>
      </trkpt>
      <trkpt lat="43.42153" lon="5.71025">
        <ele>633.2</ele>
        <time>2025-06-08T07:07:53Z</time>
      </trkpt>
      <trkpt lat="43.42162" lon="5.71029">
        <ele>632.9</ele>
        <time>2025-06-08T07:08:00Z</time>
      </trkpt>
      <trkpt lat="43.42169" lon="5.71038">
        <ele>633.6</ele>
        <time>2025-06-08T07:08:07Z</time>
      </trkpt>
      <trkpt lat="43.42172" lon="5.7105">
        <ele>633.3</ele>
        <time>2025-06-08T07:08:14Z</time>
      </trkpt>
      <trkpt lat="43.4218" lon="5.71058">
        <ele>633.2</ele>
        <time>2025-06-08T07:08:22Z</time>
      </trkpt>
      <trkpt lat="43.42189" lon="5.7106">
        <ele>633.7</ele>
        <time>2025-06-08T07:08:29Z</time>
      </trkpt>
      <trkpt lat="43.42199" lon="5.71063">
        <ele>634.4</ele>
        <time>2025-06-08T07:08:35Z</time>
      </trkpt>
      <trkpt lat="43.42208" lon="5.71066">
        <ele>634.3</ele>
        <time>2025-06-08T07:08:41Z</time>
      </trkpt>
      <trkpt lat="43.42217" lon="5.71069">
        <ele>634.1</ele>
        <time>2025-06-08T07:08:47Z</time>
      </trkpt>
      <trkpt lat="43.42226" lon="5.71066">
        <ele>633.6</ele>
        <time>2025-06-08T07:08:52Z</time>
      </trkpt>
      <trkpt lat="43.42229" lon="5.71079">
        <ele>633.3</ele>
        <time>2025-06-08T07:09:00Z</time>
      </trkpt>
      <trkpt lat="43.4223" lon="5.71093">
        <ele>633.1</ele>
        <time>2025-06-08T07:09:08Z</time>
      </trkpt>
      <trkpt lat="43.42231" lon="5.71107">
        <ele>632.8</ele>
        <time>2025-06-08T07:09:13Z</time>
      </trkpt>
      <trkpt lat="43.42233" lon="5.71119">
        <ele>632.4</ele>
        <time>2025-06-08T07:09:18Z</time>
      </trkpt>
      <trkpt lat="43.42239" lon="5.7113">
        <ele>632.4</ele>
        <time>2025-06-08T07:09:24Z</time>
      </trkpt>
      <trkpt lat="43.42245" lon="5.7114">
        <ele>631.9</ele>
        <time>2025-06-08T07:09:30Z</time>
      </trkpt>
      <trkpt lat="43.42246" lon="5.71154">
        <ele>631.9</ele>
        <time>2025-06-08T07:09:39Z</time>
      </trkpt>
      <trkpt lat="43.42247" lon="5.71166">
        <ele>631.4</ele>
        <time>2025-06-08T07:09:45Z</time>
      </trkpt>
      <trkpt lat="43.42257" lon="5.71172">
        <ele>629.9</ele>
        <time>2025-06-08T07:09:55Z</time>
      </trkpt>
      <trkpt lat="43.42263" lon="5.71181">
        <ele>628.4</ele>
        <time>2025-06-08T07:10:06Z</time>
      </trkpt>
      <trkpt lat="43.42268" lon="5.71194">
        <ele>626</ele>
        <time>2025-06-08T07:10:16Z</time>
      </trkpt>
      <trkpt lat="43.42272" lon="5.71206">
        <ele>624.3</ele>
        <time>2025-06-08T07:10:25Z</time>
      </trkpt>
      <trkpt lat="43.42276" lon="5.71218">
        <ele>623.6</ele>
        <time>2025-06-08T07:10:33Z</time>
      </trkpt>
      <trkpt lat="43.42279" lon="5.7123">
        <ele>622.3</ele>
        <time>2025-06-08T07:10:41Z</time>
      </trkpt>
      <trkpt lat="43.42284" lon="5.71242">
        <ele>621.1</ele>
        <time>2025-06-08T07:10:50Z</time>
      </trkpt>
      <trkpt lat="43.42283" lon="5.71255">
        <ele>619.9</ele>
        <time>2025-06-08T07:10:58Z</time>
      </trkpt>
      <trkpt lat="43.42283" lon="5.71269">
        <ele>619.1</ele>
        <time>2025-06-08T07:11:07Z</time>
      </trkpt>
      <trkpt lat="43.42284" lon="5.71283">
        <ele>618.3</ele>
        <time>2025-06-08T07:11:16Z</time>
      </trkpt>
      <trkpt lat="43.42281" lon="5.71296">
        <ele>617.4</ele>
        <time>2025-06-08T07:11:36Z</time>
      </trkpt>
      <trkpt lat="43.42276" lon="5.71308">
        <ele>617.1</ele>
        <time>2025-06-08T07:11:47Z</time>
      </trkpt>
      <trkpt lat="43.42276" lon="5.71309">
        <ele>617.1</ele>
        <time>2025-06-08T07:11:49Z</time>
      </trkpt>
      <trkpt lat="43.42276" lon="5.71309">
        <ele>616.9</ele>
        <time>2025-06-08T07:11:50Z</time>
      </trkpt>
      <trkpt lat="43.42279" lon="5.71308">
        <ele>615.8</ele>
        <time>2025-06-08T07:12:09Z</time>
      </trkpt>
      <trkpt lat="43.42279" lon="5.71308">
        <ele>615.9</ele>
        <time>2025-06-08T07:12:19Z</time>
      </trkpt>
      <trkpt lat="43.42279" lon="5.71308">
        <ele>615.9</ele>
        <time>2025-06-08T07:12:20Z</time>
      </trkpt>
      <trkpt lat="43.42279" lon="5.71308">
        <ele>616</ele>
        <time>2025-06-08T07:12:22Z</time>
      </trkpt>
      <trkpt lat="43.42279" lon="5.71308">
        <ele>616</ele>
        <time>2025-06-08T07:12:23Z</time>
      </trkpt>
      <trkpt lat="43.42279" lon="5.71308">
        <ele>616.1</ele>
        <time>2025-06-08T07:12:26Z</time>
      </trkpt>
      <trkpt lat="43.42279" lon="5.71312">
        <ele>616.1</ele>
        <time>2025-06-08T07:12:36Z</time>
      </trkpt>
      <trkpt lat="43.42279" lon="5.71312">
        <ele>616.1</ele>
        <time>2025-06-08T07:12:39Z</time>
      </trkpt>
      <trkpt lat="43.42278" lon="5.7131">
        <ele>615.8</ele>
        <time>2025-06-08T07:12:45Z</time>
      </trkpt>
      <trkpt lat="43.42278" lon="5.7131">
        <ele>615.7</ele>
        <time>2025-06-08T07:12:46Z</time>
      </trkpt>
      <trkpt lat="43.42279" lon="5.71308">
        <ele>615.8</ele>
        <time>2025-06-08T07:12:51Z</time>
      </trkpt>
      <trkpt lat="43.42279" lon="5.71307">
        <ele>615.9</ele>
        <time>2025-06-08T07:12:52Z</time>
      </trkpt>
      <trkpt lat="43.42279" lon="5.71307">
        <ele>615.9</ele>
        <time>2025-06-08T07:12:53Z</time>
      </trkpt>
      <trkpt lat="43.42279" lon="5.71307">
        <ele>615.9</ele>
        <time>2025-06-08T07:13:03Z</time>
      </trkpt>
      <trkpt lat="43.4228" lon="5.71307">
        <ele>616.2</ele>
        <time>2025-06-08T07:13:05Z</time>
      </trkpt>
      <trkpt lat="43.4228" lon="5.71306">
        <ele>616.4</ele>
        <time>2025-06-08T07:13:13Z</time>
      </trkpt>
      <trkpt lat="43.4228" lon="5.71305">
        <ele>616.9</ele>
        <time>2025-06-08T07:13:17Z</time>
      </trkpt>
      <trkpt lat="43.4228" lon="5.71304">
        <ele>617.1</ele>
        <time>2025-06-08T07:13:32Z</time>
      </trkpt>
      <trkpt lat="43.4228" lon="5.71304">
        <ele>617.2</ele>
        <time>2025-06-08T07:13:33Z</time>
      </trkpt>
      <trkpt lat="43.4228" lon="5.71304">
        <ele>617.2</ele>
        <time>2025-06-08T07:13:35Z</time>
      </trkpt>
      <trkpt lat="43.4228" lon="5.71304">
        <ele>617.7</ele>
        <time>2025-06-08T07:13:43Z</time>
      </trkpt>
      <trkpt lat="43.42279" lon="5.71305">
        <ele>617.6</ele>
        <time>2025-06-08T07:13:44Z</time>
      </trkpt>
      <trkpt lat="43.42278" lon="5.71306">
        <ele>617.9</ele>
        <time>2025-06-08T07:13:49Z</time>
      </trkpt>
      <trkpt lat="43.42278" lon="5.71306">
        <ele>618</ele>
        <time>2025-06-08T07:13:50Z</time>
      </trkpt>
      <trkpt lat="43.42278" lon="5.71306">
        <ele>618.3</ele>
        <time>2025-06-08T07:13:53Z</time>
      </trkpt>
      <trkpt lat="43.42278" lon="5.71306">
        <ele>618.3</ele>
        <time>2025-06-08T07:13:54Z</time>
      </trkpt>
      <trkpt lat="43.42276" lon="5.71304">
        <ele>617.7</ele>
        <time>2025-06-08T07:14:10Z</time>
      </trkpt>
      <trkpt lat="43.42276" lon="5.71303">
        <ele>617.7</ele>
        <time>2025-06-08T07:14:11Z</time>
      </trkpt>
      <trkpt lat="43.42276" lon="5.71303">
        <ele>617.7</ele>
        <time>2025-06-08T07:14:14Z</time>
      </trkpt>
      <trkpt lat="43.42276" lon="5.71303">
        <ele>617.7</ele>
        <time>2025-06-08T07:14:15Z</time>
      </trkpt>
      <trkpt lat="43.42276" lon="5.71303">
        <ele>617.6</ele>
        <time>2025-06-08T07:14:16Z</time>
      </trkpt>
      <trkpt lat="43.42275" lon="5.71304">
        <ele>617.8</ele>
        <time>2025-06-08T07:14:18Z</time>
      </trkpt>
      <trkpt lat="43.42277" lon="5.71308">
        <ele>618</ele>
        <time>2025-06-08T07:14:32Z</time>
      </trkpt>
      <trkpt lat="43.42277" lon="5.71308">
        <ele>618.1</ele>
        <time>2025-06-08T07:14:33Z</time>
      </trkpt>
      <trkpt lat="43.42277" lon="5.71308">
        <ele>618.1</ele>
        <time>2025-06-08T07:14:34Z</time>
      </trkpt>
      <trkpt lat="43.42277" lon="5.71308">
        <ele>618.2</ele>
        <time>2025-06-08T07:14:41Z</time>
      </trkpt>
      <trkpt lat="43.42276" lon="5.71307">
        <ele>618.5</ele>
        <time>2025-06-08T07:14:44Z</time>
      </trkpt>
      <trkpt lat="43.42276" lon="5.71306">
        <ele>618.3</ele>
        <time>2025-06-08T07:14:48Z</time>
      </trkpt>
      <trkpt lat="43.42277" lon="5.71306">
        <ele>618.1</ele>
        <time>2025-06-08T07:14:54Z</time>
      </trkpt>
      <trkpt lat="43.42277" lon="5.71306">
        <ele>618</ele>
        <time>2025-06-08T07:14:57Z</time>
      </trkpt>
      <trkpt lat="43.42278" lon="5.71308">
        <ele>617.6</ele>
        <time>2025-06-08T07:15:02Z</time>
      </trkpt>
      <trkpt lat="43.42277" lon="5.71308">
        <ele>617.5</ele>
        <time>2025-06-08T07:15:04Z</time>
      </trkpt>
      <trkpt lat="43.42278" lon="5.71321">
        <ele>618.2</ele>
        <time>2025-06-08T07:15:34Z</time>
      </trkpt>
      <trkpt lat="43.42276" lon="5.71334">
        <ele>616.8</ele>
        <time>2025-06-08T07:15:45Z</time>
      </trkpt>
      <trkpt lat="43.42276" lon="5.71347">
        <ele>616.3</ele>
        <time>2025-06-08T07:15:53Z</time>
      </trkpt>
      <trkpt lat="43.42281" lon="5.71359">
        <ele>615.9</ele>
        <time>2025-06-08T07:16:02Z</time>
      </trkpt>
      <trkpt lat="43.42281" lon="5.71364">
        <ele>616.1</ele>
        <time>2025-06-08T07:16:09Z</time>
      </trkpt>
      <trkpt lat="43.42281" lon="5.71364">
        <ele>616.1</ele>
        <time>2025-06-08T07:16:10Z</time>
      </trkpt>
      <trkpt lat="43.42282" lon="5.71377">
        <ele>615.6</ele>
        <time>2025-06-08T07:16:23Z</time>
      </trkpt>
      <trkpt lat="43.4229" lon="5.71384">
        <ele>614.7</ele>
        <time>2025-06-08T07:16:29Z</time>
      </trkpt>
      <trkpt lat="43.42298" lon="5.71391">
        <ele>614.1</ele>
        <time>2025-06-08T07:16:36Z</time>
      </trkpt>
      <trkpt lat="43.42305" lon="5.71399">
        <ele>613.4</ele>
        <time>2025-06-08T07:16:47Z</time>
      </trkpt>
      <trkpt lat="43.42312" lon="5.71409">
        <ele>612.5</ele>
        <time>2025-06-08T07:16:56Z</time>
      </trkpt>
      <trkpt lat="43.42315" lon="5.71422">
        <ele>611.6</ele>
        <time>2025-06-08T07:17:03Z</time>
      </trkpt>
      <trkpt lat="43.42319" lon="5.71434">
        <ele>610.9</ele>
        <time>2025-06-08T07:17:10Z</time>
      </trkpt>
      <trkpt lat="43.42327" lon="5.71442">
        <ele>610.1</ele>
        <time>2025-06-08T07:17:19Z</time>
      </trkpt>
      <trkpt lat="43.42335" lon="5.71448">
        <ele>609.9</ele>
        <time>2025-06-08T07:17:25Z</time>
      </trkpt>
      <trkpt lat="43.42344" lon="5.71456">
        <ele>609</ele>
        <time>2025-06-08T07:17:33Z</time>
      </trkpt>
      <trkpt lat="43.42347" lon="5.71468">
        <ele>609.7</ele>
        <time>2025-06-08T07:17:42Z</time>
      </trkpt>
      <trkpt lat="43.42351" lon="5.7148">
        <ele>609.8</ele>
        <time>2025-06-08T07:17:52Z</time>
      </trkpt>
      <trkpt lat="43.42353" lon="5.71492">
        <ele>609.4</ele>
        <time>2025-06-08T07:18:01Z</time>
      </trkpt>
      <trkpt lat="43.42355" lon="5.71504">
        <ele>609.3</ele>
        <time>2025-06-08T07:18:08Z</time>
      </trkpt>
      <trkpt lat="43.4236" lon="5.71515">
        <ele>609.2</ele>
        <time>2025-06-08T07:18:17Z</time>
      </trkpt>
      <trkpt lat="43.42365" lon="5.71525">
        <ele>608.7</ele>
        <time>2025-06-08T07:18:27Z</time>
      </trkpt>
      <trkpt lat="43.42368" lon="5.71539">
        <ele>608.3</ele>
        <time>2025-06-08T07:18:35Z</time>
      </trkpt>
      <trkpt lat="43.42369" lon="5.71552">
        <ele>607.1</ele>
        <time>2025-06-08T07:18:42Z</time>
      </trkpt>
      <trkpt lat="43.42372" lon="5.71563">
        <ele>607.3</ele>
        <time>2025-06-08T07:18:49Z</time>
      </trkpt>
      <trkpt lat="43.42376" lon="5.71575">
        <ele>607.6</ele>
        <time>2025-06-08T07:18:58Z</time>
      </trkpt>
      <trkpt lat="43.42382" lon="5.71585">
        <ele>607</ele>
        <time>2025-06-08T07:19:07Z</time>
      </trkpt>
      <trkpt lat="43.42386" lon="5.71597">
        <ele>607.6</ele>
        <time>2025-06-08T07:19:18Z</time>
      </trkpt>
      <trkpt lat="43.42393" lon="5.71607">
        <ele>607.7</ele>
        <time>2025-06-08T07:19:25Z</time>
      </trkpt>
      <trkpt lat="43.42389" lon="5.71619">
        <ele>607.4</ele>
        <time>2025-06-08T07:19:33Z</time>
      </trkpt>
      <trkpt lat="43.42391" lon="5.71631">
        <ele>607.5</ele>
        <time>2025-06-08T07:19:41Z</time>
      </trkpt>
      <trkpt lat="43.42395" lon="5.71643">
        <ele>607.4</ele>
        <time>2025-06-08T07:19:48Z</time>
      </trkpt>
      <trkpt lat="43.42404" lon="5.71649">
        <ele>607.7</ele>
        <time>2025-06-08T07:19:53Z</time>
      </trkpt>
      <trkpt lat="43.42413" lon="5.71657">
        <ele>608.4</ele>
        <time>2025-06-08T07:20:00Z</time>
      </trkpt>
      <trkpt lat="43.42416" lon="5.71671">
        <ele>609.2</ele>
        <time>2025-06-08T07:20:08Z</time>
      </trkpt>
      <trkpt lat="43.42418" lon="5.71684">
        <ele>610.1</ele>
        <time>2025-06-08T07:20:15Z</time>
      </trkpt>
      <trkpt lat="43.42426" lon="5.71693">
        <ele>611</ele>
        <time>2025-06-08T07:20:25Z</time>
      </trkpt>
      <trkpt lat="43.42433" lon="5.71702">
        <ele>611.5</ele>
        <time>2025-06-08T07:20:34Z</time>
      </trkpt>
      <trkpt lat="43.4244" lon="5.71712">
        <ele>611.7</ele>
        <time>2025-06-08T07:20:43Z</time>
      </trkpt>
      <trkpt lat="43.4245" lon="5.71716">
        <ele>613.9</ele>
        <time>2025-06-08T07:20:50Z</time>
      </trkpt>
      <trkpt lat="43.42454" lon="5.71728">
        <ele>615.4</ele>
        <time>2025-06-08T07:20:59Z</time>
      </trkpt>
      <trkpt lat="43.42464" lon="5.71733">
        <ele>614.6</ele>
        <time>2025-06-08T07:21:06Z</time>
      </trkpt>
      <trkpt lat="43.42473" lon="5.7174">
        <ele>614.7</ele>
        <time>2025-06-08T07:21:15Z</time>
      </trkpt>
      <trkpt lat="43.42481" lon="5.71746">
        <ele>614.7</ele>
        <time>2025-06-08T07:21:24Z</time>
      </trkpt>
      <trkpt lat="43.42488" lon="5.71757">
        <ele>615.4</ele>
        <time>2025-06-08T07:21:34Z</time>
      </trkpt>
      <trkpt lat="43.42494" lon="5.71768">
        <ele>614.8</ele>
        <time>2025-06-08T07:21:42Z</time>
      </trkpt>
      <trkpt lat="43.425" lon="5.71779">
        <ele>614.7</ele>
        <time>2025-06-08T07:21:49Z</time>
      </trkpt>
      <trkpt lat="43.42505" lon="5.71789">
        <ele>614.5</ele>
        <time>2025-06-08T07:21:58Z</time>
      </trkpt>
      <trkpt lat="43.42511" lon="5.718">
        <ele>614.3</ele>
        <time>2025-06-08T07:22:06Z</time>
      </trkpt>
      <trkpt lat="43.42512" lon="5.71813">
        <ele>614</ele>
        <time>2025-06-08T07:22:13Z</time>
      </trkpt>
      <trkpt lat="43.42515" lon="5.71826">
        <ele>614.3</ele>
        <time>2025-06-08T07:22:21Z</time>
      </trkpt>
      <trkpt lat="43.42519" lon="5.71838">
        <ele>614.9</ele>
        <time>2025-06-08T07:22:28Z</time>
      </trkpt>
      <trkpt lat="43.42523" lon="5.71849">
        <ele>615.6</ele>
        <time>2025-06-08T07:22:34Z</time>
      </trkpt>
      <trkpt lat="43.42526" lon="5.71862">
        <ele>617.3</ele>
        <time>2025-06-08T07:22:42Z</time>
      </trkpt>
      <trkpt lat="43.42532" lon="5.71872">
        <ele>618.2</ele>
        <time>2025-06-08T07:22:49Z</time>
      </trkpt>
      <trkpt lat="43.42536" lon="5.71883">
        <ele>618.9</ele>
        <time>2025-06-08T07:22:55Z</time>
      </trkpt>
      <trkpt lat="43.42535" lon="5.71896">
        <ele>619.1</ele>
        <time>2025-06-08T07:23:01Z</time>
      </trkpt>
      <trkpt lat="43.42537" lon="5.71909">
        <ele>619.4</ele>
        <time>2025-06-08T07:23:09Z</time>
      </trkpt>
      <trkpt lat="43.42538" lon="5.71923">
        <ele>619.2</ele>
        <time>2025-06-08T07:23:17Z</time>
      </trkpt>
      <trkpt lat="43.42539" lon="5.71936">
        <ele>619.3</ele>
        <time>2025-06-08T07:23:24Z</time>
      </trkpt>
      <trkpt lat="43.42542" lon="5.71949">
        <ele>618.4</ele>
        <time>2025-06-08T07:23:34Z</time>
      </trkpt>
      <trkpt lat="43.42539" lon="5.71961">
        <ele>618.4</ele>
        <time>2025-06-08T07:23:42Z</time>
      </trkpt>
      <trkpt lat="43.42541" lon="5.71976">
        <ele>617.9</ele>
        <time>2025-06-08T07:23:48Z</time>
      </trkpt>
      <trkpt lat="43.42543" lon="5.71988">
        <ele>617.7</ele>
        <time>2025-06-08T07:23:56Z</time>
      </trkpt>
      <trkpt lat="43.42542" lon="5.72001">
        <ele>618.5</ele>
        <time>2025-06-08T07:24:04Z</time>
      </trkpt>
      <trkpt lat="43.42539" lon="5.72013">
        <ele>618.6</ele>
        <time>2025-06-08T07:24:12Z</time>
      </trkpt>
      <trkpt lat="43.4254" lon="5.72025">
        <ele>619.2</ele>
        <time>2025-06-08T07:24:21Z</time>
      </trkpt>
      <trkpt lat="43.42539" lon="5.72039">
        <ele>619.7</ele>
        <time>2025-06-08T07:24:29Z</time>
      </trkpt>
      <trkpt lat="43.42538" lon="5.72052">
        <ele>620.5</ele>
        <time>2025-06-08T07:24:38Z</time>
      </trkpt>
      <trkpt lat="43.42538" lon="5.72064">
        <ele>620.8</ele>
        <time>2025-06-08T07:24:45Z</time>
      </trkpt>
      <trkpt lat="43.42544" lon="5.72075">
        <ele>621</ele>
        <time>2025-06-08T07:24:53Z</time>
      </trkpt>
      <trkpt lat="43.42546" lon="5.72088">
        <ele>620.9</ele>
        <time>2025-06-08T07:25:02Z</time>
      </trkpt>
      <trkpt lat="43.42547" lon="5.72101">
        <ele>620.5</ele>
        <time>2025-06-08T07:25:11Z</time>
      </trkpt>
      <trkpt lat="43.42551" lon="5.72113">
        <ele>620.2</ele>
        <time>2025-06-08T07:25:18Z</time>
      </trkpt>
      <trkpt lat="43.42553" lon="5.72126">
        <ele>620.8</ele>
        <time>2025-06-08T07:25:25Z</time>
      </trkpt>
      <trkpt lat="43.42554" lon="5.72139">
        <ele>621.1</ele>
        <time>2025-06-08T07:25:33Z</time>
      </trkpt>
      <trkpt lat="43.42552" lon="5.72151">
        <ele>621.5</ele>
        <time>2025-06-08T07:25:40Z</time>
      </trkpt>
      <trkpt lat="43.42553" lon="5.72163">
        <ele>623.5</ele>
        <time>2025-06-08T07:25:46Z</time>
      </trkpt>
      <trkpt lat="43.4255" lon="5.72176">
        <ele>625</ele>
        <time>2025-06-08T07:25:52Z</time>
      </trkpt>
      <trkpt lat="43.42545" lon="5.72188">
        <ele>625.7</ele>
        <time>2025-06-08T07:26:00Z</time>
      </trkpt>
      <trkpt lat="43.42541" lon="5.722">
        <ele>625</ele>
        <time>2025-06-08T07:26:08Z</time>
      </trkpt>
      <trkpt lat="43.42541" lon="5.72213">
        <ele>624.3</ele>
        <time>2025-06-08T07:26:16Z</time>
      </trkpt>
      <trkpt lat="43.42538" lon="5.72225">
        <ele>624.5</ele>
        <time>2025-06-08T07:26:24Z</time>
      </trkpt>
      <trkpt lat="43.42537" lon="5.72238">
        <ele>625</ele>
        <time>2025-06-08T07:26:32Z</time>
      </trkpt>
      <trkpt lat="43.4254" lon="5.72251">
        <ele>626</ele>
        <time>2025-06-08T07:26:40Z</time>
      </trkpt>
      <trkpt lat="43.42545" lon="5.72263">
        <ele>625.8</ele>
        <time>2025-06-08T07:26:48Z</time>
      </trkpt>
      <trkpt lat="43.42547" lon="5.72276">
        <ele>625.8</ele>
        <time>2025-06-08T07:26:58Z</time>
      </trkpt>
      <trkpt lat="43.42549" lon="5.7229">
        <ele>626</ele>
        <time>2025-06-08T07:27:08Z</time>
      </trkpt>
      <trkpt lat="43.4255" lon="5.72303">
        <ele>626.8</ele>
        <time>2025-06-08T07:27:16Z</time>
      </trkpt>
      <trkpt lat="43.42555" lon="5.72314">
        <ele>627.2</ele>
        <time>2025-06-08T07:27:24Z</time>
      </trkpt>
      <trkpt lat="43.42557" lon="5.72327">
        <ele>627.7</ele>
        <time>2025-06-08T07:27:32Z</time>
      </trkpt>
      <trkpt lat="43.42558" lon="5.7234">
        <ele>627.4</ele>
        <time>2025-06-08T07:27:41Z</time>
      </trkpt>
      <trkpt lat="43.42564" lon="5.7235">
        <ele>627.1</ele>
        <time>2025-06-08T07:27:50Z</time>
      </trkpt>
      <trkpt lat="43.4257" lon="5.72362">
        <ele>626.9</ele>
        <time>2025-06-08T07:27:57Z</time>
      </trkpt>
      <trkpt lat="43.42575" lon="5.72371">
        <ele>627.8</ele>
        <time>2025-06-08T07:28:04Z</time>
      </trkpt>
      <trkpt lat="43.42578" lon="5.72384">
        <ele>627.4</ele>
        <time>2025-06-08T07:28:11Z</time>
      </trkpt>
      <trkpt lat="43.42579" lon="5.72398">
        <ele>626.5</ele>
        <time>2025-06-08T07:28:17Z</time>
      </trkpt>
      <trkpt lat="43.42582" lon="5.7241">
        <ele>626.2</ele>
        <time>2025-06-08T07:28:24Z</time>
      </trkpt>
      <trkpt lat="43.42588" lon="5.72421">
        <ele>625.9</ele>
        <time>2025-06-08T07:28:32Z</time>
      </trkpt>
      <trkpt lat="43.42592" lon="5.72433">
        <ele>626.4</ele>
        <time>2025-06-08T07:28:41Z</time>
      </trkpt>
      <trkpt lat="43.42598" lon="5.72443">
        <ele>627.2</ele>
        <time>2025-06-08T07:28:51Z</time>
      </trkpt>
      <trkpt lat="43.42602" lon="5.72454">
        <ele>626.9</ele>
        <time>2025-06-08T07:29:01Z</time>
      </trkpt>
      <trkpt lat="43.42599" lon="5.72468">
        <ele>627.1</ele>
        <time>2025-06-08T07:29:09Z</time>
      </trkpt>
      <trkpt lat="43.42599" lon="5.72482">
        <ele>627</ele>
        <time>2025-06-08T07:29:17Z</time>
      </trkpt>
      <trkpt lat="43.42595" lon="5.72494">
        <ele>626.9</ele>
        <time>2025-06-08T07:29:24Z</time>
      </trkpt>
      <trkpt lat="43.4259" lon="5.72505">
        <ele>626</ele>
        <time>2025-06-08T07:29:30Z</time>
      </trkpt>
      <trkpt lat="43.42587" lon="5.72518">
        <ele>624.6</ele>
        <time>2025-06-08T07:29:37Z</time>
      </trkpt>
      <trkpt lat="43.42586" lon="5.72531">
        <ele>624.2</ele>
        <time>2025-06-08T07:29:43Z</time>
      </trkpt>
      <trkpt lat="43.4259" lon="5.72542">
        <ele>624.2</ele>
        <time>2025-06-08T07:29:50Z</time>
      </trkpt>
      <trkpt lat="43.42591" lon="5.72555">
        <ele>623.8</ele>
        <time>2025-06-08T07:29:59Z</time>
      </trkpt>
      <trkpt lat="43.42594" lon="5.72569">
        <ele>623.6</ele>
        <time>2025-06-08T07:30:07Z</time>
      </trkpt>
      <trkpt lat="43.42597" lon="5.72582">
        <ele>623.1</ele>
        <time>2025-06-08T07:30:13Z</time>
      </trkpt>
      <trkpt lat="43.42599" lon="5.72594">
        <ele>623.7</ele>
        <time>2025-06-08T07:30:18Z</time>
      </trkpt>
      <trkpt lat="43.42602" lon="5.72607">
        <ele>624.2</ele>
        <time>2025-06-08T07:30:26Z</time>
      </trkpt>
      <trkpt lat="43.42603" lon="5.7262">
        <ele>624.2</ele>
        <time>2025-06-08T07:30:34Z</time>
      </trkpt>
      <trkpt lat="43.42606" lon="5.72633">
        <ele>623.5</ele>
        <time>2025-06-08T07:30:42Z</time>
      </trkpt>
      <trkpt lat="43.42609" lon="5.72645">
        <ele>622.9</ele>
        <time>2025-06-08T07:30:50Z</time>
      </trkpt>
      <trkpt lat="43.42615" lon="5.72655">
        <ele>622.5</ele>
        <time>2025-06-08T07:31:00Z</time>
      </trkpt>
      <trkpt lat="43.42618" lon="5.72667">
        <ele>621.9</ele>
        <time>2025-06-08T07:31:08Z</time>
      </trkpt>
      <trkpt lat="43.42621" lon="5.7268">
        <ele>621.4</ele>
        <time>2025-06-08T07:31:15Z</time>
      </trkpt>
      <trkpt lat="43.42621" lon="5.72694">
        <ele>621.1</ele>
        <time>2025-06-08T07:31:23Z</time>
      </trkpt>
      <trkpt lat="43.42624" lon="5.72707">
        <ele>621</ele>
        <time>2025-06-08T07:31:31Z</time>
      </trkpt>
      <trkpt lat="43.42625" lon="5.72721">
        <ele>620.4</ele>
        <time>2025-06-08T07:31:38Z</time>
      </trkpt>
      <trkpt lat="43.42629" lon="5.72733">
        <ele>619.9</ele>
        <time>2025-06-08T07:31:45Z</time>
      </trkpt>
      <trkpt lat="43.42632" lon="5.72745">
        <ele>619.2</ele>
        <time>2025-06-08T07:31:53Z</time>
      </trkpt>
      <trkpt lat="43.42635" lon="5.72757">
        <ele>618.4</ele>
        <time>2025-06-08T07:32:02Z</time>
      </trkpt>
      <trkpt lat="43.42636" lon="5.7277">
        <ele>617.5</ele>
        <time>2025-06-08T07:32:12Z</time>
      </trkpt>
      <trkpt lat="43.42634" lon="5.72783">
        <ele>617.3</ele>
        <time>2025-06-08T07:32:18Z</time>
      </trkpt>
      <trkpt lat="43.4263" lon="5.72794">
        <ele>616</ele>
        <time>2025-06-08T07:32:28Z</time>
      </trkpt>
      <trkpt lat="43.42623" lon="5.72805">
        <ele>615.3</ele>
        <time>2025-06-08T07:32:36Z</time>
      </trkpt>
      <trkpt lat="43.42616" lon="5.72815">
        <ele>615.1</ele>
        <time>2025-06-08T07:32:43Z</time>
      </trkpt>
      <trkpt lat="43.42609" lon="5.72822">
        <ele>614.3</ele>
        <time>2025-06-08T07:32:50Z</time>
      </trkpt>
      <trkpt lat="43.42602" lon="5.72832">
        <ele>613.6</ele>
        <time>2025-06-08T07:32:59Z</time>
      </trkpt>
      <trkpt lat="43.42596" lon="5.72843">
        <ele>612.5</ele>
        <time>2025-06-08T07:33:13Z</time>
      </trkpt>
      <trkpt lat="43.42587" lon="5.72847">
        <ele>611.5</ele>
        <time>2025-06-08T07:33:22Z</time>
      </trkpt>
      <trkpt lat="43.42579" lon="5.72853">
        <ele>609.8</ele>
        <time>2025-06-08T07:33:29Z</time>
      </trkpt>
      <trkpt lat="43.42573" lon="5.72863">
        <ele>608.2</ele>
        <time>2025-06-08T07:33:37Z</time>
      </trkpt>
      <trkpt lat="43.42568" lon="5.72874">
        <ele>606.7</ele>
        <time>2025-06-08T07:33:44Z</time>
      </trkpt>
      <trkpt lat="43.42559" lon="5.72878">
        <ele>604.3</ele>
        <time>2025-06-08T07:33:52Z</time>
      </trkpt>
      <trkpt lat="43.4255" lon="5.72884">
        <ele>602.5</ele>
        <time>2025-06-08T07:33:59Z</time>
      </trkpt>
      <trkpt lat="43.42541" lon="5.7289">
        <ele>601.5</ele>
        <time>2025-06-08T07:34:05Z</time>
      </trkpt>
      <trkpt lat="43.42532" lon="5.72896">
        <ele>600.1</ele>
        <time>2025-06-08T07:34:14Z</time>
      </trkpt>
      <trkpt lat="43.42524" lon="5.72901">
        <ele>599.2</ele>
        <time>2025-06-08T07:34:22Z</time>
      </trkpt>
      <trkpt lat="43.42517" lon="5.72911">
        <ele>598</ele>
        <time>2025-06-08T07:34:29Z</time>
      </trkpt>
      <trkpt lat="43.42509" lon="5.72918">
        <ele>596.7</ele>
        <time>2025-06-08T07:34:43Z</time>
      </trkpt>
      <trkpt lat="43.42506" lon="5.72919">
        <ele>594.4</ele>
        <time>2025-06-08T07:34:47Z</time>
      </trkpt>
      <trkpt lat="43.42507" lon="5.72919">
        <ele>594.2</ele>
        <time>2025-06-08T07:34:48Z</time>
      </trkpt>
      <trkpt lat="43.42505" lon="5.7292">
        <ele>594.5</ele>
        <time>2025-06-08T07:34:55Z</time>
      </trkpt>
      <trkpt lat="43.42505" lon="5.7292">
        <ele>594.3</ele>
        <time>2025-06-08T07:34:56Z</time>
      </trkpt>
      <trkpt lat="43.42508" lon="5.72925">
        <ele>592.4</ele>
        <time>2025-06-08T07:35:07Z</time>
      </trkpt>
      <trkpt lat="43.42508" lon="5.72925">
        <ele>592</ele>
        <time>2025-06-08T07:35:10Z</time>
      </trkpt>
      <trkpt lat="43.42506" lon="5.72926">
        <ele>591.2</ele>
        <time>2025-06-08T07:35:14Z</time>
      </trkpt>
      <trkpt lat="43.42506" lon="5.72926">
        <ele>590.9</ele>
        <time>2025-06-08T07:35:23Z</time>
      </trkpt>
      <trkpt lat="43.42506" lon="5.72926">
        <ele>590.5</ele>
        <time>2025-06-08T07:35:25Z</time>
      </trkpt>
      <trkpt lat="43.42506" lon="5.72926">
        <ele>590.4</ele>
        <time>2025-06-08T07:35:26Z</time>
      </trkpt>
      <trkpt lat="43.42507" lon="5.72926">
        <ele>589.8</ele>
        <time>2025-06-08T07:35:28Z</time>
      </trkpt>
      <trkpt lat="43.42508" lon="5.72926">
        <ele>589.6</ele>
        <time>2025-06-08T07:35:30Z</time>
      </trkpt>
      <trkpt lat="43.4251" lon="5.72924">
        <ele>588.5</ele>
        <time>2025-06-08T07:35:39Z</time>
      </trkpt>
      <trkpt lat="43.4251" lon="5.72924">
        <ele>588.4</ele>
        <time>2025-06-08T07:35:40Z</time>
      </trkpt>
      <trkpt lat="43.4251" lon="5.72925">
        <ele>588.4</ele>
        <time>2025-06-08T07:35:41Z</time>
      </trkpt>
      <trkpt lat="43.4251" lon="5.72924">
        <ele>588.4</ele>
        <time>2025-06-08T07:35:42Z</time>
      </trkpt>
      <trkpt lat="43.4251" lon="5.72924">
        <ele>588.5</ele>
        <time>2025-06-08T07:35:44Z</time>
      </trkpt>
      <trkpt lat="43.4251" lon="5.72925">
        <ele>588.5</ele>
        <time>2025-06-08T07:35:45Z</time>
      </trkpt>
      <trkpt lat="43.42513" lon="5.72924">
        <ele>588.2</ele>
        <time>2025-06-08T07:36:10Z</time>
      </trkpt>
      <trkpt lat="43.42513" lon="5.72924">
        <ele>588.1</ele>
        <time>2025-06-08T07:36:11Z</time>
      </trkpt>
      <trkpt lat="43.42513" lon="5.72924">
        <ele>588.1</ele>
        <time>2025-06-08T07:36:12Z</time>
      </trkpt>
      <trkpt lat="43.42513" lon="5.72924">
        <ele>587.9</ele>
        <time>2025-06-08T07:36:16Z</time>
      </trkpt>
      <trkpt lat="43.4251" lon="5.7292">
        <ele>586.3</ele>
        <time>2025-06-08T07:36:41Z</time>
      </trkpt>
      <trkpt lat="43.4251" lon="5.7292">
        <ele>586.4</ele>
        <time>2025-06-08T07:36:42Z</time>
      </trkpt>
      <trkpt lat="43.4251" lon="5.7292">
        <ele>586.4</ele>
        <time>2025-06-08T07:36:45Z</time>
      </trkpt>
      <trkpt lat="43.42509" lon="5.7292">
        <ele>586.4</ele>
        <time>2025-06-08T07:36:46Z</time>
      </trkpt>
      <trkpt lat="43.42509" lon="5.7292">
        <ele>586.3</ele>
        <time>2025-06-08T07:36:50Z</time>
      </trkpt>
      <trkpt lat="43.42509" lon="5.72919">
        <ele>586.1</ele>
        <time>2025-06-08T07:36:53Z</time>
      </trkpt>
      <trkpt lat="43.4251" lon="5.72918">
        <ele>586.1</ele>
        <time>2025-06-08T07:36:57Z</time>
      </trkpt>
      <trkpt lat="43.4251" lon="5.72918">
        <ele>586.1</ele>
        <time>2025-06-08T07:36:58Z</time>
      </trkpt>
      <trkpt lat="43.4251" lon="5.72922">
        <ele>586.2</ele>
        <time>2025-06-08T07:37:03Z</time>
      </trkpt>
      <trkpt lat="43.4251" lon="5.72922">
        <ele>586.1</ele>
        <time>2025-06-08T07:37:04Z</time>
      </trkpt>
      <trkpt lat="43.4251" lon="5.72922">
        <ele>586.1</ele>
        <time>2025-06-08T07:37:05Z</time>
      </trkpt>
      <trkpt lat="43.4251" lon="5.72922">
        <ele>586.1</ele>
        <time>2025-06-08T07:37:16Z</time>
      </trkpt>
      <trkpt lat="43.42509" lon="5.72922">
        <ele>586</ele>
        <time>2025-06-08T07:37:22Z</time>
      </trkpt>
      <trkpt lat="43.42509" lon="5.72923">
        <ele>586</ele>
        <time>2025-06-08T07:37:23Z</time>
      </trkpt>
      <trkpt lat="43.42511" lon="5.72925">
        <ele>585.6</ele>
        <time>2025-06-08T07:37:29Z</time>
      </trkpt>
      <trkpt lat="43.42511" lon="5.72925">
        <ele>585.5</ele>
        <time>2025-06-08T07:37:30Z</time>
      </trkpt>
      <trkpt lat="43.42511" lon="5.72925">
        <ele>585.7</ele>
        <time>2025-06-08T07:37:33Z</time>
      </trkpt>
      <trkpt lat="43.42512" lon="5.72925">
        <ele>585.6</ele>
        <time>2025-06-08T07:37:35Z</time>
      </trkpt>
      <trkpt lat="43.42511" lon="5.72924">
        <ele>585.6</ele>
        <time>2025-06-08T07:37:39Z</time>
      </trkpt>
      <trkpt lat="43.42511" lon="5.72924">
        <ele>585.6</ele>
        <time>2025-06-08T07:37:45Z</time>
      </trkpt>
      <trkpt lat="43.42511" lon="5.72924">
        <ele>585.4</ele>
        <time>2025-06-08T07:37:46Z</time>
      </trkpt>
      <trkpt lat="43.42511" lon="5.72924">
        <ele>585.3</ele>
        <time>2025-06-08T07:37:48Z</time>
      </trkpt>
      <trkpt lat="43.42511" lon="5.72924">
        <ele>585.2</ele>
        <time>2025-06-08T07:37:49Z</time>
      </trkpt>
      <trkpt lat="43.4251" lon="5.72924">
        <ele>585.3</ele>
        <time>2025-06-08T07:37:53Z</time>
      </trkpt>
      <trkpt lat="43.42509" lon="5.72924">
        <ele>585.1</ele>
        <time>2025-06-08T07:37:58Z</time>
      </trkpt>
      <trkpt lat="43.42509" lon="5.72924">
        <ele>585.1</ele>
        <time>2025-06-08T07:37:59Z</time>
      </trkpt>
      <trkpt lat="43.42509" lon="5.72924">
        <ele>585.1</ele>
        <time>2025-06-08T07:38:00Z</time>
      </trkpt>
      <trkpt lat="43.42509" lon="5.72923">
        <ele>585.1</ele>
        <time>2025-06-08T07:38:01Z</time>
      </trkpt>
      <trkpt lat="43.42509" lon="5.72923">
        <ele>585.1</ele>
        <time>2025-06-08T07:38:03Z</time>
      </trkpt>
      <trkpt lat="43.42509" lon="5.72923">
        <ele>585.1</ele>
        <time>2025-06-08T07:38:04Z</time>
      </trkpt>
      <trkpt lat="43.42509" lon="5.72923">
        <ele>585.2</ele>
        <time>2025-06-08T07:38:06Z</time>
      </trkpt>
      <trkpt lat="43.42509" lon="5.72923">
        <ele>585.3</ele>
        <time>2025-06-08T07:38:08Z</time>
      </trkpt>
      <trkpt lat="43.42508" lon="5.72921">
        <ele>584.9</ele>
        <time>2025-06-08T07:38:14Z</time>
      </trkpt>
      <trkpt lat="43.42508" lon="5.72921">
        <ele>584.8</ele>
        <time>2025-06-08T07:38:18Z</time>
      </trkpt>
      <trkpt lat="43.42508" lon="5.7292">
        <ele>584.6</ele>
        <time>2025-06-08T07:38:22Z</time>
      </trkpt>
      <trkpt lat="43.42508" lon="5.7292">
        <ele>584.4</ele>
        <time>2025-06-08T07:38:23Z</time>
      </trkpt>
      <trkpt lat="43.42508" lon="5.7292">
        <ele>584.2</ele>
        <time>2025-06-08T07:38:24Z</time>
      </trkpt>
      <trkpt lat="43.42508" lon="5.7292">
        <ele>584.1</ele>
        <time>2025-06-08T07:38:25Z</time>
      </trkpt>
      <trkpt lat="43.42508" lon="5.7292">
        <ele>584.1</ele>
        <time>2025-06-08T07:38:26Z</time>
      </trkpt>
      <trkpt lat="43.42508" lon="5.7292">
        <ele>584</ele>
        <time>2025-06-08T07:38:29Z</time>
      </trkpt>
      <trkpt lat="43.42508" lon="5.72922">
        <ele>583.7</ele>
        <time>2025-06-08T07:38:34Z</time>
      </trkpt>
      <trkpt lat="43.42508" lon="5.72922">
        <ele>583.5</ele>
        <time>2025-06-08T07:38:36Z</time>
      </trkpt>
      <trkpt lat="43.42509" lon="5.72926">
        <ele>584.8</ele>
        <time>2025-06-08T07:39:06Z</time>
      </trkpt>
      <trkpt lat="43.42511" lon="5.72925">
        <ele>584.9</ele>
        <time>2025-06-08T07:39:07Z</time>
      </trkpt>
      <trkpt lat="43.42511" lon="5.72925">
        <ele>584.9</ele>
        <time>2025-06-08T07:39:08Z</time>
      </trkpt>
      <trkpt lat="43.42511" lon="5.72925">
        <ele>584.9</ele>
        <time>2025-06-08T07:39:09Z</time>
      </trkpt>
      <trkpt lat="43.42511" lon="5.72925">
        <ele>584.9</ele>
        <time>2025-06-08T07:39:11Z</time>
      </trkpt>
      <trkpt lat="43.42511" lon="5.72925">
        <ele>585</ele>
        <time>2025-06-08T07:39:12Z</time>
      </trkpt>
      <trkpt lat="43.42509" lon="5.72925">
        <ele>585.5</ele>
        <time>2025-06-08T07:39:18Z</time>
      </trkpt>
      <trkpt lat="43.42509" lon="5.72925">
        <ele>585.8</ele>
        <time>2025-06-08T07:39:22Z</time>
      </trkpt>
      <trkpt lat="43.4251" lon="5.72925">
        <ele>586</ele>
        <time>2025-06-08T07:39:26Z</time>
      </trkpt>
      <trkpt lat="43.42511" lon="5.72925">
        <ele>586.1</ele>
        <time>2025-06-08T07:39:28Z</time>
      </trkpt>
      <trkpt lat="43.42511" lon="5.72925">
        <ele>586.1</ele>
        <time>2025-06-08T07:39:29Z</time>
      </trkpt>
      <trkpt lat="43.42511" lon="5.72925">
        <ele>586.2</ele>
        <time>2025-06-08T07:39:32Z</time>
      </trkpt>
      <trkpt lat="43.42511" lon="5.72928">
        <ele>586</ele>
        <time>2025-06-08T07:39:41Z</time>
      </trkpt>
      <trkpt lat="43.4251" lon="5.72928">
        <ele>586.1</ele>
        <time>2025-06-08T07:39:42Z</time>
      </trkpt>
      <trkpt lat="43.4251" lon="5.72924">
        <ele>587</ele>
        <time>2025-06-08T07:39:54Z</time>
      </trkpt>
      <trkpt lat="43.4251" lon="5.72924">
        <ele>587.4</ele>
        <time>2025-06-08T07:39:57Z</time>
      </trkpt>
      <trkpt lat="43.42507" lon="5.72927">
        <ele>587.5</ele>
        <time>2025-06-08T07:40:03Z</time>
      </trkpt>
      <trkpt lat="43.42507" lon="5.72928">
        <ele>587.5</ele>
        <time>2025-06-08T07:40:06Z</time>
      </trkpt>
      <trkpt lat="43.42507" lon="5.72928">
        <ele>587.6</ele>
        <time>2025-06-08T07:40:07Z</time>
      </trkpt>
      <trkpt lat="43.42507" lon="5.72928">
        <ele>587.8</ele>
        <time>2025-06-08T07:40:08Z</time>
      </trkpt>
      <trkpt lat="43.42507" lon="5.72928">
        <ele>587.8</ele>
        <time>2025-06-08T07:40:09Z</time>
      </trkpt>
      <trkpt lat="43.42508" lon="5.72928">
        <ele>587.9</ele>
        <time>2025-06-08T07:40:10Z</time>
      </trkpt>
      <trkpt lat="43.42513" lon="5.72923">
        <ele>586.9</ele>
        <time>2025-06-08T07:40:22Z</time>
      </trkpt>
      <trkpt lat="43.42513" lon="5.72923">
        <ele>587</ele>
        <time>2025-06-08T07:40:24Z</time>
      </trkpt>
      <trkpt lat="43.42513" lon="5.72923">
        <ele>587</ele>
        <time>2025-06-08T07:40:26Z</time>
      </trkpt>
      <trkpt lat="43.42513" lon="5.72922">
        <ele>586.9</ele>
        <time>2025-06-08T07:40:28Z</time>
      </trkpt>
      <trkpt lat="43.42514" lon="5.72922">
        <ele>587</ele>
        <time>2025-06-08T07:40:30Z</time>
      </trkpt>
      <trkpt lat="43.42513" lon="5.72922">
        <ele>586.9</ele>
        <time>2025-06-08T07:40:33Z</time>
      </trkpt>
      <trkpt lat="43.42513" lon="5.72922">
        <ele>586.9</ele>
        <time>2025-06-08T07:40:34Z</time>
      </trkpt>
      <trkpt lat="43.42513" lon="5.72921">
        <ele>586.9</ele>
        <time>2025-06-08T07:40:35Z</time>
      </trkpt>
      <trkpt lat="43.42512" lon="5.72921">
        <ele>587.1</ele>
        <time>2025-06-08T07:40:40Z</time>
      </trkpt>
      <trkpt lat="43.42512" lon="5.72921">
        <ele>587.1</ele>
        <time>2025-06-08T07:40:42Z</time>
      </trkpt>
      <trkpt lat="43.42512" lon="5.72921">
        <ele>587.2</ele>
        <time>2025-06-08T07:40:43Z</time>
      </trkpt>
      <trkpt lat="43.42512" lon="5.72922">
        <ele>587.3</ele>
        <time>2025-06-08T07:40:45Z</time>
      </trkpt>
      <trkpt lat="43.42513" lon="5.72921">
        <ele>587.5</ele>
        <time>2025-06-08T07:40:47Z</time>
      </trkpt>
      <trkpt lat="43.42513" lon="5.72921">
        <ele>587.5</ele>
        <time>2025-06-08T07:40:48Z</time>
      </trkpt>
      <trkpt lat="43.42513" lon="5.72921">
        <ele>587.6</ele>
        <time>2025-06-08T07:40:49Z</time>
      </trkpt>
      <trkpt lat="43.42513" lon="5.72922">
        <ele>587.4</ele>
        <time>2025-06-08T07:40:50Z</time>
      </trkpt>
      <trkpt lat="43.42513" lon="5.72922">
        <ele>587.5</ele>
        <time>2025-06-08T07:40:56Z</time>
      </trkpt>
      <trkpt lat="43.42512" lon="5.72922">
        <ele>587.5</ele>
        <time>2025-06-08T07:40:57Z</time>
      </trkpt>
      <trkpt lat="43.42511" lon="5.72926">
        <ele>589</ele>
        <time>2025-06-08T07:41:16Z</time>
      </trkpt>
      <trkpt lat="43.42511" lon="5.72925">
        <ele>589</ele>
        <time>2025-06-08T07:41:17Z</time>
      </trkpt>
      <trkpt lat="43.42511" lon="5.72923">
        <ele>589.9</ele>
        <time>2025-06-08T07:41:39Z</time>
      </trkpt>
      <trkpt lat="43.42511" lon="5.72923">
        <ele>590</ele>
        <time>2025-06-08T07:41:40Z</time>
      </trkpt>
      <trkpt lat="43.42509" lon="5.72923">
        <ele>590.3</ele>
        <time>2025-06-08T07:41:46Z</time>
      </trkpt>
      <trkpt lat="43.42509" lon="5.72922">
        <ele>590.7</ele>
        <time>2025-06-08T07:41:53Z</time>
      </trkpt>
      <trkpt lat="43.42509" lon="5.72922">
        <ele>590.8</ele>
        <time>2025-06-08T07:41:54Z</time>
      </trkpt>
      <trkpt lat="43.4251" lon="5.72921">
        <ele>591</ele>
        <time>2025-06-08T07:41:55Z</time>
      </trkpt>
      <trkpt lat="43.4251" lon="5.72921">
        <ele>591.1</ele>
        <time>2025-06-08T07:41:56Z</time>
      </trkpt>
      <trkpt lat="43.4251" lon="5.7292">
        <ele>591.1</ele>
        <time>2025-06-08T07:42:03Z</time>
      </trkpt>
      <trkpt lat="43.42511" lon="5.7292">
        <ele>591.3</ele>
        <time>2025-06-08T07:42:08Z</time>
      </trkpt>
      <trkpt lat="43.42512" lon="5.72919">
        <ele>591.4</ele>
        <time>2025-06-08T07:42:09Z</time>
      </trkpt>
      <trkpt lat="43.42512" lon="5.72919">
        <ele>591.6</ele>
        <time>2025-06-08T07:42:16Z</time>
      </trkpt>
      <trkpt lat="43.42512" lon="5.72919">
        <ele>591.5</ele>
        <time>2025-06-08T07:42:19Z</time>
      </trkpt>
      <trkpt lat="43.42512" lon="5.72919">
        <ele>591.2</ele>
        <time>2025-06-08T07:42:21Z</time>
      </trkpt>
      <trkpt lat="43.42512" lon="5.72919">
        <ele>591.1</ele>
        <time>2025-06-08T07:42:26Z</time>
      </trkpt>
      <trkpt lat="43.42512" lon="5.72919">
        <ele>591.1</ele>
        <time>2025-06-08T07:42:27Z</time>
      </trkpt>
      <trkpt lat="43.42512" lon="5.72919">
        <ele>591.4</ele>
        <time>2025-06-08T07:42:31Z</time>
      </trkpt>
      <trkpt lat="43.42512" lon="5.72919">
        <ele>592.3</ele>
        <time>2025-06-08T07:42:36Z</time>
      </trkpt>
      <trkpt lat="43.42511" lon="5.72919">
        <ele>592.3</ele>
        <time>2025-06-08T07:42:37Z</time>
      </trkpt>
      <trkpt lat="43.42509" lon="5.72921">
        <ele>591.8</ele>
        <time>2025-06-08T07:42:46Z</time>
      </trkpt>
      <trkpt lat="43.42509" lon="5.72922">
        <ele>591.9</ele>
        <time>2025-06-08T07:42:47Z</time>
      </trkpt>
      <trkpt lat="43.4251" lon="5.72923">
        <ele>591.8</ele>
        <time>2025-06-08T07:42:54Z</time>
      </trkpt>
      <trkpt lat="43.4251" lon="5.72923">
        <ele>591.8</ele>
        <time>2025-06-08T07:42:57Z</time>
      </trkpt>
      <trkpt lat="43.42509" lon="5.72927">
        <ele>590.4</ele>
        <time>2025-06-08T07:43:08Z</time>
      </trkpt>
      <trkpt lat="43.42509" lon="5.72926">
        <ele>590.5</ele>
        <time>2025-06-08T07:43:09Z</time>
      </trkpt>
      <trkpt lat="43.4251" lon="5.72926">
        <ele>590.6</ele>
        <time>2025-06-08T07:43:12Z</time>
      </trkpt>
      <trkpt lat="43.4251" lon="5.72926">
        <ele>590.5</ele>
        <time>2025-06-08T07:43:13Z</time>
      </trkpt>
      <trkpt lat="43.42511" lon="5.72925">
        <ele>590.3</ele>
        <time>2025-06-08T07:43:19Z</time>
      </trkpt>
      <trkpt lat="43.42511" lon="5.72925">
        <ele>590.2</ele>
        <time>2025-06-08T07:43:20Z</time>
      </trkpt>
      <trkpt lat="43.42511" lon="5.72925">
        <ele>590.2</ele>
        <time>2025-06-08T07:43:21Z</time>
      </trkpt>
      <trkpt lat="43.4251" lon="5.72925">
        <ele>590.1</ele>
        <time>2025-06-08T07:43:22Z</time>
      </trkpt>
      <trkpt lat="43.4251" lon="5.72925">
        <ele>589.8</ele>
        <time>2025-06-08T07:43:24Z</time>
      </trkpt>
      <trkpt lat="43.4251" lon="5.72924">
        <ele>589.9</ele>
        <time>2025-06-08T07:43:29Z</time>
      </trkpt>
      <trkpt lat="43.4251" lon="5.72925">
        <ele>589.9</ele>
        <time>2025-06-08T07:43:30Z</time>
      </trkpt>
      <trkpt lat="43.4251" lon="5.72925">
        <ele>590</ele>
        <time>2025-06-08T07:43:31Z</time>
      </trkpt>
      <trkpt lat="43.42509" lon="5.72925">
        <ele>589.9</ele>
        <time>2025-06-08T07:43:35Z</time>
      </trkpt>
      <trkpt lat="43.42509" lon="5.72925">
        <ele>590</ele>
        <time>2025-06-08T07:43:43Z</time>
      </trkpt>
      <trkpt lat="43.4251" lon="5.72924">
        <ele>590.5</ele>
        <time>2025-06-08T07:43:47Z</time>
      </trkpt>
      <trkpt lat="43.4251" lon="5.72925">
        <ele>590.7</ele>
        <time>2025-06-08T07:43:48Z</time>
      </trkpt>
      <trkpt lat="43.4251" lon="5.72925">
        <ele>590.6</ele>
        <time>2025-06-08T07:43:49Z</time>
      </trkpt>
      <trkpt lat="43.4251" lon="5.72925">
        <ele>590.6</ele>
        <time>2025-06-08T07:43:50Z</time>
      </trkpt>
      <trkpt lat="43.4251" lon="5.72925">
        <ele>590.6</ele>
        <time>2025-06-08T07:43:51Z</time>
      </trkpt>
      <trkpt lat="43.4251" lon="5.72925">
        <ele>590.5</ele>
        <time>2025-06-08T07:43:52Z</time>
      </trkpt>
      <trkpt lat="43.4251" lon="5.72937">
        <ele>590.2</ele>
        <time>2025-06-08T07:44:13Z</time>
      </trkpt>
      <trkpt lat="43.42517" lon="5.72945">
        <ele>590.4</ele>
        <time>2025-06-08T07:44:22Z</time>
      </trkpt>
      <trkpt lat="43.42525" lon="5.72953">
        <ele>590.3</ele>
        <time>2025-06-08T07:44:30Z</time>
      </trkpt>
      <trkpt lat="43.42533" lon="5.72962">
        <ele>590.4</ele>
        <time>2025-06-08T07:44:41Z</time>
      </trkpt>
      <trkpt lat="43.42537" lon="5.72973">
        <ele>589.2</ele>
        <time>2025-06-08T07:44:50Z</time>
      </trkpt>
      <trkpt lat="43.4254" lon="5.72985">
        <ele>588.7</ele>
        <time>2025-06-08T07:44:59Z</time>
      </trkpt>
      <trkpt lat="43.42543" lon="5.72997">
        <ele>588.9</ele>
        <time>2025-06-08T07:45:08Z</time>
      </trkpt>
      <trkpt lat="43.42545" lon="5.73011">
        <ele>590</ele>
        <time>2025-06-08T07:45:16Z</time>
      </trkpt>
      <trkpt lat="43.42545" lon="5.73024">
        <ele>590.6</ele>
        <time>2025-06-08T07:45:26Z</time>
      </trkpt>
      <trkpt lat="43.42543" lon="5.73036">
        <ele>591</ele>
        <time>2025-06-08T07:45:35Z</time>
      </trkpt>
      <trkpt lat="43.42546" lon="5.73048">
        <ele>591.2</ele>
        <time>2025-06-08T07:45:43Z</time>
      </trkpt>
      <trkpt lat="43.42545" lon="5.73062">
        <ele>591.9</ele>
        <time>2025-06-08T07:45:52Z</time>
      </trkpt>
      <trkpt lat="43.42543" lon="5.73075">
        <ele>592.2</ele>
        <time>2025-06-08T07:46:00Z</time>
      </trkpt>
      <trkpt lat="43.42544" lon="5.73088">
        <ele>591.9</ele>
        <time>2025-06-08T07:46:09Z</time>
      </trkpt>
      <trkpt lat="43.42545" lon="5.73101">
        <ele>591.2</ele>
        <time>2025-06-08T07:46:16Z</time>
      </trkpt>
      <trkpt lat="43.42547" lon="5.73114">
        <ele>589.6</ele>
        <time>2025-06-08T07:46:26Z</time>
      </trkpt>
      <trkpt lat="43.42547" lon="5.73128">
        <ele>590.6</ele>
        <time>2025-06-08T07:46:34Z</time>
      </trkpt>
      <trkpt lat="43.42546" lon="5.73141">
        <ele>591.3</ele>
        <time>2025-06-08T07:46:41Z</time>
      </trkpt>
      <trkpt lat="43.42546" lon="5.73155">
        <ele>591.3</ele>
        <time>2025-06-08T07:46:50Z</time>
      </trkpt>
      <trkpt lat="43.4255" lon="5.73168">
        <ele>591.3</ele>
        <time>2025-06-08T07:46:57Z</time>
      </trkpt>
      <trkpt lat="43.42552" lon="5.7318">
        <ele>591.9</ele>
        <time>2025-06-08T07:47:07Z</time>
      </trkpt>
      <trkpt lat="43.42557" lon="5.73191">
        <ele>593.3</ele>
        <time>2025-06-08T07:47:17Z</time>
      </trkpt>
      <trkpt lat="43.42559" lon="5.73203">
        <ele>594.8</ele>
        <time>2025-06-08T07:47:25Z</time>
      </trkpt>
      <trkpt lat="43.42564" lon="5.73214">
        <ele>596</ele>
        <time>2025-06-08T07:47:35Z</time>
      </trkpt>
      <trkpt lat="43.42568" lon="5.73225">
        <ele>596.3</ele>
        <time>2025-06-08T07:47:42Z</time>
      </trkpt>
      <trkpt lat="43.42575" lon="5.73236">
        <ele>596.9</ele>
        <time>2025-06-08T07:47:50Z</time>
      </trkpt>
      <trkpt lat="43.42581" lon="5.73246">
        <ele>597.4</ele>
        <time>2025-06-08T07:47:59Z</time>
      </trkpt>
      <trkpt lat="43.42589" lon="5.73256">
        <ele>597.5</ele>
        <time>2025-06-08T07:48:05Z</time>
      </trkpt>
      <trkpt lat="43.42595" lon="5.73266">
        <ele>597.6</ele>
        <time>2025-06-08T07:48:12Z</time>
      </trkpt>
      <trkpt lat="43.42598" lon="5.73269">
        <ele>596.9</ele>
        <time>2025-06-08T07:48:17Z</time>
      </trkpt>
      <trkpt lat="43.42598" lon="5.7327">
        <ele>596.9</ele>
        <time>2025-06-08T07:48:18Z</time>
      </trkpt>
      <trkpt lat="43.42603" lon="5.73277">
        <ele>598.9</ele>
        <time>2025-06-08T07:48:27Z</time>
      </trkpt>
      <trkpt lat="43.42604" lon="5.73278">
        <ele>599.4</ele>
        <time>2025-06-08T07:48:30Z</time>
      </trkpt>
      <trkpt lat="43.42613" lon="5.73278">
        <ele>600.1</ele>
        <time>2025-06-08T07:48:39Z</time>
      </trkpt>
      <trkpt lat="43.42622" lon="5.73282">
        <ele>600.5</ele>
        <time>2025-06-08T07:48:48Z</time>
      </trkpt>
      <trkpt lat="43.42631" lon="5.73286">
        <ele>600.8</ele>
        <time>2025-06-08T07:48:59Z</time>
      </trkpt>
      <trkpt lat="43.4264" lon="5.7329">
        <ele>601.4</ele>
        <time>2025-06-08T07:49:09Z</time>
      </trkpt>
      <trkpt lat="43.42648" lon="5.73297">
        <ele>601.5</ele>
        <time>2025-06-08T07:49:18Z</time>
      </trkpt>
      <trkpt lat="43.42655" lon="5.73306">
        <ele>601.6</ele>
        <time>2025-06-08T07:49:25Z</time>
      </trkpt>
      <trkpt lat="43.42663" lon="5.73311">
        <ele>602.3</ele>
        <time>2025-06-08T07:49:35Z</time>
      </trkpt>
      <trkpt lat="43.4267" lon="5.73319">
        <ele>601.7</ele>
        <time>2025-06-08T07:49:42Z</time>
      </trkpt>
      <trkpt lat="43.42677" lon="5.73328">
        <ele>602.2</ele>
        <time>2025-06-08T07:49:51Z</time>
      </trkpt>
      <trkpt lat="43.42685" lon="5.73334">
        <ele>603.2</ele>
        <time>2025-06-08T07:49:59Z</time>
      </trkpt>
      <trkpt lat="43.42693" lon="5.73342">
        <ele>603.1</ele>
        <time>2025-06-08T07:50:08Z</time>
      </trkpt>
      <trkpt lat="43.42701" lon="5.7335">
        <ele>601.3</ele>
        <time>2025-06-08T07:50:21Z</time>
      </trkpt>
      <trkpt lat="43.42706" lon="5.73361">
        <ele>601.6</ele>
        <time>2025-06-08T07:50:32Z</time>
      </trkpt>
      <trkpt lat="43.42714" lon="5.73368">
        <ele>602.5</ele>
        <time>2025-06-08T07:50:42Z</time>
      </trkpt>
      <trkpt lat="43.4272" lon="5.73376">
        <ele>603</ele>
        <time>2025-06-08T07:50:50Z</time>
      </trkpt>
      <trkpt lat="43.42727" lon="5.73384">
        <ele>604.1</ele>
        <time>2025-06-08T07:51:01Z</time>
      </trkpt>
      <trkpt lat="43.42728" lon="5.73385">
        <ele>604.4</ele>
        <time>2025-06-08T07:51:04Z</time>
      </trkpt>
      <trkpt lat="43.42728" lon="5.73386">
        <ele>604.8</ele>
        <time>2025-06-08T07:51:06Z</time>
      </trkpt>
      <trkpt lat="43.42735" lon="5.73394">
        <ele>605.9</ele>
        <time>2025-06-08T07:51:21Z</time>
      </trkpt>
      <trkpt lat="43.42743" lon="5.73401">
        <ele>608.2</ele>
        <time>2025-06-08T07:51:34Z</time>
      </trkpt>
      <trkpt lat="43.42746" lon="5.73413">
        <ele>610.6</ele>
        <time>2025-06-08T07:51:48Z</time>
      </trkpt>
      <trkpt lat="43.42753" lon="5.73422">
        <ele>612.8</ele>
        <time>2025-06-08T07:52:09Z</time>
      </trkpt>
      <trkpt lat="43.42754" lon="5.73425">
        <ele>613.3</ele>
        <time>2025-06-08T07:52:14Z</time>
      </trkpt>
      <trkpt lat="43.42753" lon="5.73425">
        <ele>613.3</ele>
        <time>2025-06-08T07:52:15Z</time>
      </trkpt>
      <trkpt lat="43.42759" lon="5.73436">
        <ele>616.2</ele>
        <time>2025-06-08T07:52:33Z</time>
      </trkpt>
      <trkpt lat="43.42767" lon="5.73437">
        <ele>618.3</ele>
        <time>2025-06-08T07:52:47Z</time>
      </trkpt>
      <trkpt lat="43.42767" lon="5.73436">
        <ele>618.3</ele>
        <time>2025-06-08T07:52:48Z</time>
      </trkpt>
      <trkpt lat="43.42772" lon="5.73438">
        <ele>619.8</ele>
        <time>2025-06-08T07:53:03Z</time>
      </trkpt>
      <trkpt lat="43.42773" lon="5.73439">
        <ele>619.9</ele>
        <time>2025-06-08T07:53:04Z</time>
      </trkpt>
      <trkpt lat="43.42777" lon="5.73448">
        <ele>623.2</ele>
        <time>2025-06-08T07:53:23Z</time>
      </trkpt>
      <trkpt lat="43.42777" lon="5.73448">
        <ele>623.4</ele>
        <time>2025-06-08T07:53:24Z</time>
      </trkpt>
      <trkpt lat="43.42785" lon="5.73455">
        <ele>626.1</ele>
        <time>2025-06-08T07:53:43Z</time>
      </trkpt>
      <trkpt lat="43.42794" lon="5.73452">
        <ele>626</ele>
        <time>2025-06-08T07:53:56Z</time>
      </trkpt>
      <trkpt lat="43.42804" lon="5.73456">
        <ele>626.1</ele>
        <time>2025-06-08T07:54:07Z</time>
      </trkpt>
      <trkpt lat="43.4281" lon="5.73457">
        <ele>629</ele>
        <time>2025-06-08T07:54:17Z</time>
      </trkpt>
      <trkpt lat="43.4281" lon="5.73457">
        <ele>629.6</ele>
        <time>2025-06-08T07:54:19Z</time>
      </trkpt>
      <trkpt lat="43.4281" lon="5.73457">
        <ele>629.7</ele>
        <time>2025-06-08T07:54:25Z</time>
      </trkpt>
      <trkpt lat="43.4281" lon="5.73458">
        <ele>629.7</ele>
        <time>2025-06-08T07:54:26Z</time>
      </trkpt>
      <trkpt lat="43.4281" lon="5.73459">
        <ele>629.6</ele>
        <time>2025-06-08T07:54:28Z</time>
      </trkpt>
      <trkpt lat="43.4281" lon="5.73459">
        <ele>629.5</ele>
        <time>2025-06-08T07:54:29Z</time>
      </trkpt>
      <trkpt lat="43.4281" lon="5.73458">
        <ele>629.1</ele>
        <time>2025-06-08T07:54:32Z</time>
      </trkpt>
      <trkpt lat="43.4281" lon="5.73458">
        <ele>629.3</ele>
        <time>2025-06-08T07:54:33Z</time>
      </trkpt>
      <trkpt lat="43.42809" lon="5.73458">
        <ele>629.7</ele>
        <time>2025-06-08T07:54:36Z</time>
      </trkpt>
      <trkpt lat="43.4281" lon="5.73458">
        <ele>630.1</ele>
        <time>2025-06-08T07:54:38Z</time>
      </trkpt>
      <trkpt lat="43.4281" lon="5.73458">
        <ele>630.2</ele>
        <time>2025-06-08T07:54:39Z</time>
      </trkpt>
      <trkpt lat="43.4281" lon="5.73458">
        <ele>630.4</ele>
        <time>2025-06-08T07:54:40Z</time>
      </trkpt>
      <trkpt lat="43.4281" lon="5.73458">
        <ele>630.6</ele>
        <time>2025-06-08T07:54:41Z</time>
      </trkpt>
      <trkpt lat="43.4281" lon="5.73458">
        <ele>630.7</ele>
        <time>2025-06-08T07:54:42Z</time>
      </trkpt>
      <trkpt lat="43.42811" lon="5.73458">
        <ele>632.6</ele>
        <time>2025-06-08T07:54:50Z</time>
      </trkpt>
      <trkpt lat="43.42811" lon="5.73458">
        <ele>632.8</ele>
        <time>2025-06-08T07:54:51Z</time>
      </trkpt>
      <trkpt lat="43.42811" lon="5.73458">
        <ele>632.8</ele>
        <time>2025-06-08T07:54:52Z</time>
      </trkpt>
      <trkpt lat="43.42811" lon="5.73458">
        <ele>632.9</ele>
        <time>2025-06-08T07:54:54Z</time>
      </trkpt>
      <trkpt lat="43.42811" lon="5.73459">
        <ele>632.8</ele>
        <time>2025-06-08T07:54:56Z</time>
      </trkpt>
      <trkpt lat="43.42811" lon="5.73459">
        <ele>632.8</ele>
        <time>2025-06-08T07:54:57Z</time>
      </trkpt>
      <trkpt lat="43.42811" lon="5.73461">
        <ele>632.8</ele>
        <time>2025-06-08T07:55:04Z</time>
      </trkpt>
      <trkpt lat="43.42811" lon="5.73461">
        <ele>633.3</ele>
        <time>2025-06-08T07:55:11Z</time>
      </trkpt>
      <trkpt lat="43.42808" lon="5.73462">
        <ele>635.2</ele>
        <time>2025-06-08T07:55:23Z</time>
      </trkpt>
      <trkpt lat="43.42808" lon="5.73462">
        <ele>635.2</ele>
        <time>2025-06-08T07:55:24Z</time>
      </trkpt>
      <trkpt lat="43.42808" lon="5.73462">
        <ele>635.2</ele>
        <time>2025-06-08T07:55:25Z</time>
      </trkpt>
      <trkpt lat="43.42808" lon="5.73463">
        <ele>635.1</ele>
        <time>2025-06-08T07:55:26Z</time>
      </trkpt>
      <trkpt lat="43.4281" lon="5.73463">
        <ele>637.2</ele>
        <time>2025-06-08T07:55:43Z</time>
      </trkpt>
      <trkpt lat="43.4281" lon="5.73463">
        <ele>637.5</ele>
        <time>2025-06-08T07:55:44Z</time>
      </trkpt>
      <trkpt lat="43.42811" lon="5.73463">
        <ele>638.4</ele>
        <time>2025-06-08T07:55:53Z</time>
      </trkpt>
      <trkpt lat="43.42811" lon="5.73463">
        <ele>638.4</ele>
        <time>2025-06-08T07:55:54Z</time>
      </trkpt>
      <trkpt lat="43.42811" lon="5.73464">
        <ele>638.2</ele>
        <time>2025-06-08T07:55:57Z</time>
      </trkpt>
      <trkpt lat="43.42811" lon="5.73464">
        <ele>638</ele>
        <time>2025-06-08T07:55:58Z</time>
      </trkpt>
      <trkpt lat="43.42811" lon="5.73465">
        <ele>637.7</ele>
        <time>2025-06-08T07:56:01Z</time>
      </trkpt>
      <trkpt lat="43.4281" lon="5.73465">
        <ele>637.8</ele>
        <time>2025-06-08T07:56:02Z</time>
      </trkpt>
      <trkpt lat="43.4281" lon="5.73465">
        <ele>637.6</ele>
        <time>2025-06-08T07:56:04Z</time>
      </trkpt>
      <trkpt lat="43.4281" lon="5.73464">
        <ele>637.5</ele>
        <time>2025-06-08T07:56:05Z</time>
      </trkpt>
      <trkpt lat="43.42809" lon="5.73461">
        <ele>638.6</ele>
        <time>2025-06-08T07:56:13Z</time>
      </trkpt>
      <trkpt lat="43.42808" lon="5.73462">
        <ele>639.1</ele>
        <time>2025-06-08T07:56:15Z</time>
      </trkpt>
      <trkpt lat="43.42808" lon="5.73462">
        <ele>639.1</ele>
        <time>2025-06-08T07:56:16Z</time>
      </trkpt>
      <trkpt lat="43.42808" lon="5.73462">
        <ele>639.4</ele>
        <time>2025-06-08T07:56:17Z</time>
      </trkpt>
      <trkpt lat="43.42809" lon="5.73462">
        <ele>639.6</ele>
        <time>2025-06-08T07:56:22Z</time>
      </trkpt>
      <trkpt lat="43.42809" lon="5.73462">
        <ele>639.7</ele>
        <time>2025-06-08T07:56:23Z</time>
      </trkpt>
      <trkpt lat="43.42809" lon="5.73462">
        <ele>639.9</ele>
        <time>2025-06-08T07:56:25Z</time>
      </trkpt>
      <trkpt lat="43.42809" lon="5.73462">
        <ele>639.9</ele>
        <time>2025-06-08T07:56:26Z</time>
      </trkpt>
      <trkpt lat="43.42808" lon="5.73462">
        <ele>639.6</ele>
        <time>2025-06-08T07:56:30Z</time>
      </trkpt>
      <trkpt lat="43.42808" lon="5.73462">
        <ele>639.6</ele>
        <time>2025-06-08T07:56:32Z</time>
      </trkpt>
      <trkpt lat="43.42807" lon="5.73462">
        <ele>639.3</ele>
        <time>2025-06-08T07:56:34Z</time>
      </trkpt>
      <trkpt lat="43.42808" lon="5.73463">
        <ele>639</ele>
        <time>2025-06-08T07:56:36Z</time>
      </trkpt>
      <trkpt lat="43.42808" lon="5.73467">
        <ele>638.1</ele>
        <time>2025-06-08T07:56:44Z</time>
      </trkpt>
      <trkpt lat="43.42808" lon="5.73466">
        <ele>638.1</ele>
        <time>2025-06-08T07:56:45Z</time>
      </trkpt>
      <trkpt lat="43.42808" lon="5.73466">
        <ele>638</ele>
        <time>2025-06-08T07:56:46Z</time>
      </trkpt>
      <trkpt lat="43.42808" lon="5.73466">
        <ele>637.9</ele>
        <time>2025-06-08T07:56:47Z</time>
      </trkpt>
      <trkpt lat="43.42808" lon="5.73466">
        <ele>637.7</ele>
        <time>2025-06-08T07:56:48Z</time>
      </trkpt>
      <trkpt lat="43.42808" lon="5.73466">
        <ele>637.4</ele>
        <time>2025-06-08T07:56:50Z</time>
      </trkpt>
      <trkpt lat="43.42808" lon="5.73466">
        <ele>637.3</ele>
        <time>2025-06-08T07:56:51Z</time>
      </trkpt>
      <trkpt lat="43.42808" lon="5.73466">
        <ele>637.4</ele>
        <time>2025-06-08T07:56:53Z</time>
      </trkpt>
      <trkpt lat="43.42808" lon="5.73466">
        <ele>637.5</ele>
        <time>2025-06-08T07:56:54Z</time>
      </trkpt>
      <trkpt lat="43.42808" lon="5.73466">
        <ele>637.4</ele>
        <time>2025-06-08T07:56:56Z</time>
      </trkpt>
      <trkpt lat="43.42808" lon="5.73467">
        <ele>637.3</ele>
        <time>2025-06-08T07:56:59Z</time>
      </trkpt>
      <trkpt lat="43.42808" lon="5.73467">
        <ele>637.3</ele>
        <time>2025-06-08T07:57:00Z</time>
      </trkpt>
      <trkpt lat="43.42808" lon="5.73466">
        <ele>637.4</ele>
        <time>2025-06-08T07:57:03Z</time>
      </trkpt>
      <trkpt lat="43.42808" lon="5.73465">
        <ele>637.6</ele>
        <time>2025-06-08T07:57:04Z</time>
      </trkpt>
      <trkpt lat="43.42808" lon="5.73465">
        <ele>638.1</ele>
        <time>2025-06-08T07:57:10Z</time>
      </trkpt>
      <trkpt lat="43.42808" lon="5.73465">
        <ele>638.3</ele>
        <time>2025-06-08T07:57:13Z</time>
      </trkpt>
      <trkpt lat="43.42809" lon="5.73464">
        <ele>638.2</ele>
        <time>2025-06-08T07:57:20Z</time>
      </trkpt>
      <trkpt lat="43.42809" lon="5.73464">
        <ele>638.2</ele>
        <time>2025-06-08T07:57:21Z</time>
      </trkpt>
      <trkpt lat="43.42809" lon="5.73464">
        <ele>638.5</ele>
        <time>2025-06-08T07:57:24Z</time>
      </trkpt>
      <trkpt lat="43.42808" lon="5.73464">
        <ele>638.6</ele>
        <time>2025-06-08T07:57:26Z</time>
      </trkpt>
      <trkpt lat="43.42808" lon="5.73464">
        <ele>638.6</ele>
        <time>2025-06-08T07:57:27Z</time>
      </trkpt>
      <trkpt lat="43.42809" lon="5.73463">
        <ele>638.6</ele>
        <time>2025-06-08T07:57:32Z</time>
      </trkpt>
      <trkpt lat="43.42809" lon="5.73463">
        <ele>638.5</ele>
        <time>2025-06-08T07:57:34Z</time>
      </trkpt>
      <trkpt lat="43.42809" lon="5.73463">
        <ele>638.7</ele>
        <time>2025-06-08T07:57:36Z</time>
      </trkpt>
      <trkpt lat="43.42809" lon="5.73463">
        <ele>638.8</ele>
        <time>2025-06-08T07:57:37Z</time>
      </trkpt>
      <trkpt lat="43.42809" lon="5.73462">
        <ele>639.1</ele>
        <time>2025-06-08T07:57:39Z</time>
      </trkpt>
      <trkpt lat="43.42809" lon="5.73463">
        <ele>639.2</ele>
        <time>2025-06-08T07:57:40Z</time>
      </trkpt>
      <trkpt lat="43.42809" lon="5.73463">
        <ele>639.3</ele>
        <time>2025-06-08T07:57:41Z</time>
      </trkpt>
      <trkpt lat="43.42809" lon="5.73462">
        <ele>639.5</ele>
        <time>2025-06-08T07:57:45Z</time>
      </trkpt>
      <trkpt lat="43.42809" lon="5.73462">
        <ele>639.7</ele>
        <time>2025-06-08T07:57:46Z</time>
      </trkpt>
      <trkpt lat="43.42809" lon="5.73462">
        <ele>639.7</ele>
        <time>2025-06-08T07:57:47Z</time>
      </trkpt>
      <trkpt lat="43.42809" lon="5.73462">
        <ele>639.7</ele>
        <time>2025-06-08T07:57:49Z</time>
      </trkpt>
      <trkpt lat="43.42808" lon="5.73462">
        <ele>639.7</ele>
        <time>2025-06-08T07:57:54Z</time>
      </trkpt>
      <trkpt lat="43.42808" lon="5.73462">
        <ele>639.9</ele>
        <time>2025-06-08T07:58:00Z</time>
      </trkpt>
      <trkpt lat="43.42807" lon="5.73461">
        <ele>640.5</ele>
        <time>2025-06-08T07:58:05Z</time>
      </trkpt>
      <trkpt lat="43.42807" lon="5.73462">
        <ele>640.3</ele>
        <time>2025-06-08T07:58:07Z</time>
      </trkpt>
      <trkpt lat="43.42807" lon="5.73462">
        <ele>640.3</ele>
        <time>2025-06-08T07:58:09Z</time>
      </trkpt>
      <trkpt lat="43.42807" lon="5.73462">
        <ele>639.9</ele>
        <time>2025-06-08T07:58:14Z</time>
      </trkpt>
      <trkpt lat="43.42807" lon="5.73462">
        <ele>640</ele>
        <time>2025-06-08T07:58:18Z</time>
      </trkpt>
      <trkpt lat="43.42807" lon="5.73461">
        <ele>640.2</ele>
        <time>2025-06-08T07:58:20Z</time>
      </trkpt>
      <trkpt lat="43.42807" lon="5.73461">
        <ele>640.4</ele>
        <time>2025-06-08T07:58:23Z</time>
      </trkpt>
      <trkpt lat="43.42807" lon="5.73461">
        <ele>640.4</ele>
        <time>2025-06-08T07:58:26Z</time>
      </trkpt>
      <trkpt lat="43.42806" lon="5.7346">
        <ele>640.5</ele>
        <time>2025-06-08T07:58:29Z</time>
      </trkpt>
      <trkpt lat="43.42806" lon="5.73459">
        <ele>640.5</ele>
        <time>2025-06-08T07:58:30Z</time>
      </trkpt>
      <trkpt lat="43.42806" lon="5.73459">
        <ele>640.6</ele>
        <time>2025-06-08T07:58:33Z</time>
      </trkpt>
      <trkpt lat="43.42807" lon="5.73459">
        <ele>640.6</ele>
        <time>2025-06-08T07:58:34Z</time>
      </trkpt>
      <trkpt lat="43.42807" lon="5.7346">
        <ele>640.4</ele>
        <time>2025-06-08T07:58:38Z</time>
      </trkpt>
      <trkpt lat="43.42807" lon="5.7346">
        <ele>640.4</ele>
        <time>2025-06-08T07:58:43Z</time>
      </trkpt>
      <trkpt lat="43.42808" lon="5.7346">
        <ele>640.3</ele>
        <time>2025-06-08T07:58:46Z</time>
      </trkpt>
      <trkpt lat="43.42808" lon="5.7346">
        <ele>640.3</ele>
        <time>2025-06-08T07:58:47Z</time>
      </trkpt>
      <trkpt lat="43.42808" lon="5.73462">
        <ele>639.7</ele>
        <time>2025-06-08T07:59:00Z</time>
      </trkpt>
      <trkpt lat="43.42808" lon="5.73462">
        <ele>640.1</ele>
        <time>2025-06-08T07:59:02Z</time>
      </trkpt>
      <trkpt lat="43.42808" lon="5.73461">
        <ele>640.6</ele>
        <time>2025-06-08T07:59:06Z</time>
      </trkpt>
      <trkpt lat="43.42808" lon="5.73462">
        <ele>640.7</ele>
        <time>2025-06-08T07:59:07Z</time>
      </trkpt>
      <trkpt lat="43.42808" lon="5.73463">
        <ele>641.3</ele>
        <time>2025-06-08T07:59:13Z</time>
      </trkpt>
      <trkpt lat="43.42809" lon="5.73464">
        <ele>641.2</ele>
        <time>2025-06-08T07:59:14Z</time>
      </trkpt>
      <trkpt lat="43.42809" lon="5.73465">
        <ele>641.1</ele>
        <time>2025-06-08T07:59:16Z</time>
      </trkpt>
      <trkpt lat="43.42809" lon="5.73465">
        <ele>640.9</ele>
        <time>2025-06-08T07:59:19Z</time>
      </trkpt>
      <trkpt lat="43.4281" lon="5.73466">
        <ele>641</ele>
        <time>2025-06-08T07:59:28Z</time>
      </trkpt>
      <trkpt lat="43.4281" lon="5.73466">
        <ele>641</ele>
        <time>2025-06-08T07:59:29Z</time>
      </trkpt>
      <trkpt lat="43.42811" lon="5.73466">
        <ele>641.4</ele>
        <time>2025-06-08T07:59:35Z</time>
      </trkpt>
      <trkpt lat="43.42811" lon="5.73465">
        <ele>641.3</ele>
        <time>2025-06-08T07:59:36Z</time>
      </trkpt>
      <trkpt lat="43.42812" lon="5.73466">
        <ele>641.3</ele>
        <time>2025-06-08T07:59:42Z</time>
      </trkpt>
      <trkpt lat="43.42812" lon="5.73466">
        <ele>641.1</ele>
        <time>2025-06-08T07:59:43Z</time>
      </trkpt>
      <trkpt lat="43.42812" lon="5.73466">
        <ele>640.8</ele>
        <time>2025-06-08T07:59:44Z</time>
      </trkpt>
      <trkpt lat="43.42812" lon="5.73466">
        <ele>640.6</ele>
        <time>2025-06-08T07:59:45Z</time>
      </trkpt>
      <trkpt lat="43.42821" lon="5.73473">
        <ele>639.2</ele>
        <time>2025-06-08T08:00:03Z</time>
      </trkpt>
      <trkpt lat="43.42827" lon="5.73482">
        <ele>638.8</ele>
        <time>2025-06-08T08:00:12Z</time>
      </trkpt>
      <trkpt lat="43.42834" lon="5.73491">
        <ele>637.8</ele>
        <time>2025-06-08T08:00:22Z</time>
      </trkpt>
      <trkpt lat="43.42842" lon="5.73496">
        <ele>637.1</ele>
        <time>2025-06-08T08:00:31Z</time>
      </trkpt>
      <trkpt lat="43.4285" lon="5.73502">
        <ele>636.7</ele>
        <time>2025-06-08T08:00:42Z</time>
      </trkpt>
      <trkpt lat="43.42858" lon="5.73509">
        <ele>637.2</ele>
        <time>2025-06-08T08:00:53Z</time>
      </trkpt>
      <trkpt lat="43.42867" lon="5.73512">
        <ele>637.2</ele>
        <time>2025-06-08T08:01:03Z</time>
      </trkpt>
      <trkpt lat="43.42874" lon="5.73521">
        <ele>637.1</ele>
        <time>2025-06-08T08:01:14Z</time>
      </trkpt>
      <trkpt lat="43.42883" lon="5.73525">
        <ele>638.2</ele>
        <time>2025-06-08T08:01:23Z</time>
      </trkpt>
      <trkpt lat="43.42892" lon="5.7353">
        <ele>640.8</ele>
        <time>2025-06-08T08:01:40Z</time>
      </trkpt>
      <trkpt lat="43.42895" lon="5.73534">
        <ele>640.8</ele>
        <time>2025-06-08T08:01:46Z</time>
      </trkpt>
      <trkpt lat="43.42895" lon="5.73535">
        <ele>641</ele>
        <time>2025-06-08T08:01:47Z</time>
      </trkpt>
      <trkpt lat="43.42903" lon="5.73542">
        <ele>642</ele>
        <time>2025-06-08T08:02:00Z</time>
      </trkpt>
      <trkpt lat="43.4291" lon="5.7355">
        <ele>641</ele>
        <time>2025-06-08T08:02:19Z</time>
      </trkpt>
      <trkpt lat="43.42918" lon="5.73557">
        <ele>644.1</ele>
        <time>2025-06-08T08:02:41Z</time>
      </trkpt>
      <trkpt lat="43.42926" lon="5.73564">
        <ele>645.9</ele>
        <time>2025-06-08T08:02:56Z</time>
      </trkpt>
      <trkpt lat="43.42935" lon="5.73568">
        <ele>649.1</ele>
        <time>2025-06-08T08:03:14Z</time>
      </trkpt>
      <trkpt lat="43.42943" lon="5.73575">
        <ele>651.9</ele>
        <time>2025-06-08T08:03:30Z</time>
      </trkpt>
      <trkpt lat="43.42951" lon="5.73581">
        <ele>653.9</ele>
        <time>2025-06-08T08:03:43Z</time>
      </trkpt>
      <trkpt lat="43.42959" lon="5.73589">
        <ele>656.8</ele>
        <time>2025-06-08T08:03:57Z</time>
      </trkpt>
      <trkpt lat="43.42965" lon="5.73595">
        <ele>659.6</ele>
        <time>2025-06-08T08:04:13Z</time>
      </trkpt>
      <trkpt lat="43.42965" lon="5.73596">
        <ele>659.9</ele>
        <time>2025-06-08T08:04:14Z</time>
      </trkpt>
      <trkpt lat="43.4297" lon="5.73607">
        <ele>660.8</ele>
        <time>2025-06-08T08:04:26Z</time>
      </trkpt>
      <trkpt lat="43.42972" lon="5.7362">
        <ele>663</ele>
        <time>2025-06-08T08:04:42Z</time>
      </trkpt>
      <trkpt lat="43.42975" lon="5.73632">
        <ele>665.7</ele>
        <time>2025-06-08T08:04:56Z</time>
      </trkpt>
      <trkpt lat="43.4298" lon="5.73644">
        <ele>666.8</ele>
        <time>2025-06-08T08:05:07Z</time>
      </trkpt>
      <trkpt lat="43.42984" lon="5.73656">
        <ele>668.5</ele>
        <time>2025-06-08T08:05:20Z</time>
      </trkpt>
      <trkpt lat="43.42982" lon="5.73669">
        <ele>672.1</ele>
        <time>2025-06-08T08:05:40Z</time>
      </trkpt>
      <trkpt lat="43.42986" lon="5.7368">
        <ele>674.2</ele>
        <time>2025-06-08T08:05:56Z</time>
      </trkpt>
      <trkpt lat="43.42991" lon="5.73691">
        <ele>676.5</ele>
        <time>2025-06-08T08:06:11Z</time>
      </trkpt>
      <trkpt lat="43.42994" lon="5.73695">
        <ele>679</ele>
        <time>2025-06-08T08:06:23Z</time>
      </trkpt>
      <trkpt lat="43.42994" lon="5.73696">
        <ele>679.2</ele>
        <time>2025-06-08T08:06:24Z</time>
      </trkpt>
      <trkpt lat="43.42994" lon="5.73706">
        <ele>682.5</ele>
        <time>2025-06-08T08:06:48Z</time>
      </trkpt>
      <trkpt lat="43.42994" lon="5.73707">
        <ele>682.7</ele>
        <time>2025-06-08T08:06:49Z</time>
      </trkpt>
      <trkpt lat="43.42993" lon="5.73708">
        <ele>683.8</ele>
        <time>2025-06-08T08:06:52Z</time>
      </trkpt>
      <trkpt lat="43.42992" lon="5.73708">
        <ele>684.3</ele>
        <time>2025-06-08T08:06:53Z</time>
      </trkpt>
      <trkpt lat="43.42992" lon="5.73709">
        <ele>685.3</ele>
        <time>2025-06-08T08:06:56Z</time>
      </trkpt>
      <trkpt lat="43.42992" lon="5.73709">
        <ele>685.7</ele>
        <time>2025-06-08T08:06:57Z</time>
      </trkpt>
      <trkpt lat="43.4299" lon="5.73721">
        <ele>689.5</ele>
        <time>2025-06-08T08:07:17Z</time>
      </trkpt>
      <trkpt lat="43.42989" lon="5.73722">
        <ele>689.9</ele>
        <time>2025-06-08T08:07:18Z</time>
      </trkpt>
      <trkpt lat="43.42989" lon="5.73723">
        <ele>690.6</ele>
        <time>2025-06-08T08:07:20Z</time>
      </trkpt>
      <trkpt lat="43.42989" lon="5.73724">
        <ele>690.8</ele>
        <time>2025-06-08T08:07:21Z</time>
      </trkpt>
      <trkpt lat="43.42988" lon="5.73734">
        <ele>693.6</ele>
        <time>2025-06-08T08:07:39Z</time>
      </trkpt>
      <trkpt lat="43.42989" lon="5.73734">
        <ele>693.8</ele>
        <time>2025-06-08T08:07:40Z</time>
      </trkpt>
      <trkpt lat="43.42993" lon="5.7374">
        <ele>699.4</ele>
        <time>2025-06-08T08:08:03Z</time>
      </trkpt>
      <trkpt lat="43.42994" lon="5.73741">
        <ele>699.5</ele>
        <time>2025-06-08T08:08:04Z</time>
      </trkpt>
      <trkpt lat="43.42997" lon="5.73752">
        <ele>703.3</ele>
        <time>2025-06-08T08:08:25Z</time>
      </trkpt>
      <trkpt lat="43.42994" lon="5.73754">
        <ele>704.3</ele>
        <time>2025-06-08T08:08:33Z</time>
      </trkpt>
      <trkpt lat="43.42994" lon="5.73754">
        <ele>704.4</ele>
        <time>2025-06-08T08:08:34Z</time>
      </trkpt>
      <trkpt lat="43.42999" lon="5.73764">
        <ele>709.5</ele>
        <time>2025-06-08T08:08:58Z</time>
      </trkpt>
      <trkpt lat="43.43" lon="5.73765">
        <ele>710.8</ele>
        <time>2025-06-08T08:09:09Z</time>
      </trkpt>
      <trkpt lat="43.43" lon="5.73765">
        <ele>711.2</ele>
        <time>2025-06-08T08:09:10Z</time>
      </trkpt>
      <trkpt lat="43.43003" lon="5.73775">
        <ele>720.1</ele>
        <time>2025-06-08T08:09:36Z</time>
      </trkpt>
      <trkpt lat="43.43003" lon="5.73774">
        <ele>720.3</ele>
        <time>2025-06-08T08:09:38Z</time>
      </trkpt>
      <trkpt lat="43.43004" lon="5.73776">
        <ele>720.9</ele>
        <time>2025-06-08T08:09:41Z</time>
      </trkpt>
      <trkpt lat="43.43004" lon="5.73776">
        <ele>721.1</ele>
        <time>2025-06-08T08:09:43Z</time>
      </trkpt>
      <trkpt lat="43.43004" lon="5.73778">
        <ele>722.1</ele>
        <time>2025-06-08T08:09:49Z</time>
      </trkpt>
      <trkpt lat="43.43004" lon="5.73778">
        <ele>722.2</ele>
        <time>2025-06-08T08:09:50Z</time>
      </trkpt>
      <trkpt lat="43.43006" lon="5.7379">
        <ele>728</ele>
        <time>2025-06-08T08:10:13Z</time>
      </trkpt>
      <trkpt lat="43.43007" lon="5.73793">
        <ele>728.9</ele>
        <time>2025-06-08T08:10:21Z</time>
      </trkpt>
      <trkpt lat="43.43007" lon="5.73794">
        <ele>729.1</ele>
        <time>2025-06-08T08:10:22Z</time>
      </trkpt>
      <trkpt lat="43.43011" lon="5.73805">
        <ele>731.1</ele>
        <time>2025-06-08T08:10:40Z</time>
      </trkpt>
      <trkpt lat="43.43016" lon="5.73803">
        <ele>735.1</ele>
        <time>2025-06-08T08:10:56Z</time>
      </trkpt>
      <trkpt lat="43.43016" lon="5.73803">
        <ele>735.4</ele>
        <time>2025-06-08T08:10:57Z</time>
      </trkpt>
      <trkpt lat="43.43025" lon="5.73798">
        <ele>739.9</ele>
        <time>2025-06-08T08:11:24Z</time>
      </trkpt>
      <trkpt lat="43.43026" lon="5.73811">
        <ele>741.5</ele>
        <time>2025-06-08T08:11:50Z</time>
      </trkpt>
      <trkpt lat="43.43027" lon="5.73824">
        <ele>745.2</ele>
        <time>2025-06-08T08:12:18Z</time>
      </trkpt>
      <trkpt lat="43.43026" lon="5.73829">
        <ele>746.6</ele>
        <time>2025-06-08T08:12:30Z</time>
      </trkpt>
      <trkpt lat="43.43026" lon="5.73829">
        <ele>746.7</ele>
        <time>2025-06-08T08:12:31Z</time>
      </trkpt>
      <trkpt lat="43.43029" lon="5.73841">
        <ele>753</ele>
        <time>2025-06-08T08:12:58Z</time>
      </trkpt>
      <trkpt lat="43.43031" lon="5.73846">
        <ele>754.1</ele>
        <time>2025-06-08T08:13:06Z</time>
      </trkpt>
      <trkpt lat="43.43031" lon="5.73846">
        <ele>754.5</ele>
        <time>2025-06-08T08:13:07Z</time>
      </trkpt>
      <trkpt lat="43.43035" lon="5.73855">
        <ele>757.4</ele>
        <time>2025-06-08T08:13:33Z</time>
      </trkpt>
      <trkpt lat="43.43035" lon="5.73855">
        <ele>757.5</ele>
        <time>2025-06-08T08:13:34Z</time>
      </trkpt>
      <trkpt lat="43.43037" lon="5.73853">
        <ele>759</ele>
        <time>2025-06-08T08:13:45Z</time>
      </trkpt>
      <trkpt lat="43.43037" lon="5.73853">
        <ele>759.2</ele>
        <time>2025-06-08T08:13:46Z</time>
      </trkpt>
      <trkpt lat="43.43037" lon="5.73854">
        <ele>759.6</ele>
        <time>2025-06-08T08:13:50Z</time>
      </trkpt>
      <trkpt lat="43.43037" lon="5.73854">
        <ele>759.7</ele>
        <time>2025-06-08T08:13:51Z</time>
      </trkpt>
      <trkpt lat="43.43037" lon="5.73855">
        <ele>759.8</ele>
        <time>2025-06-08T08:13:52Z</time>
      </trkpt>
      <trkpt lat="43.43038" lon="5.73855">
        <ele>759.8</ele>
        <time>2025-06-08T08:13:53Z</time>
      </trkpt>
      <trkpt lat="43.43038" lon="5.73866">
        <ele>764.1</ele>
        <time>2025-06-08T08:14:09Z</time>
      </trkpt>
      <trkpt lat="43.43038" lon="5.73865">
        <ele>764.5</ele>
        <time>2025-06-08T08:14:10Z</time>
      </trkpt>
      <trkpt lat="43.43041" lon="5.73852">
        <ele>770.6</ele>
        <time>2025-06-08T08:14:31Z</time>
      </trkpt>
      <trkpt lat="43.43041" lon="5.73852">
        <ele>770.8</ele>
        <time>2025-06-08T08:14:33Z</time>
      </trkpt>
      <trkpt lat="43.43041" lon="5.73852">
        <ele>771.4</ele>
        <time>2025-06-08T08:14:35Z</time>
      </trkpt>
      <trkpt lat="43.43049" lon="5.73846">
        <ele>776</ele>
        <time>2025-06-08T08:14:59Z</time>
      </trkpt>
      <trkpt lat="43.43051" lon="5.73845">
        <ele>775.8</ele>
        <time>2025-06-08T08:15:05Z</time>
      </trkpt>
      <trkpt lat="43.43051" lon="5.73845">
        <ele>775.8</ele>
        <time>2025-06-08T08:15:06Z</time>
      </trkpt>
      <trkpt lat="43.43058" lon="5.73845">
        <ele>781.7</ele>
        <time>2025-06-08T08:15:28Z</time>
      </trkpt>
      <trkpt lat="43.43058" lon="5.73845">
        <ele>782.1</ele>
        <time>2025-06-08T08:15:29Z</time>
      </trkpt>
      <trkpt lat="43.43058" lon="5.73845">
        <ele>782.5</ele>
        <time>2025-06-08T08:15:30Z</time>
      </trkpt>
      <trkpt lat="43.43058" lon="5.73845">
        <ele>782.8</ele>
        <time>2025-06-08T08:15:31Z</time>
      </trkpt>
      <trkpt lat="43.43059" lon="5.73845">
        <ele>783.4</ele>
        <time>2025-06-08T08:15:34Z</time>
      </trkpt>
      <trkpt lat="43.43059" lon="5.73845">
        <ele>783.7</ele>
        <time>2025-06-08T08:15:35Z</time>
      </trkpt>
      <trkpt lat="43.43059" lon="5.73844">
        <ele>785</ele>
        <time>2025-06-08T08:15:40Z</time>
      </trkpt>
      <trkpt lat="43.43059" lon="5.73844">
        <ele>785.2</ele>
        <time>2025-06-08T08:15:41Z</time>
      </trkpt>
      <trkpt lat="43.43058" lon="5.73843">
        <ele>785.7</ele>
        <time>2025-06-08T08:15:47Z</time>
      </trkpt>
      <trkpt lat="43.43059" lon="5.73842">
        <ele>785.8</ele>
        <time>2025-06-08T08:15:48Z</time>
      </trkpt>
      <trkpt lat="43.43058" lon="5.73841">
        <ele>786.1</ele>
        <time>2025-06-08T08:15:51Z</time>
      </trkpt>
      <trkpt lat="43.43058" lon="5.73841">
        <ele>786.1</ele>
        <time>2025-06-08T08:15:52Z</time>
      </trkpt>
      <trkpt lat="43.43059" lon="5.73841">
        <ele>786.1</ele>
        <time>2025-06-08T08:15:55Z</time>
      </trkpt>
      <trkpt lat="43.43058" lon="5.73841">
        <ele>786.2</ele>
        <time>2025-06-08T08:15:56Z</time>
      </trkpt>
      <trkpt lat="43.43058" lon="5.73841">
        <ele>786.2</ele>
        <time>2025-06-08T08:15:57Z</time>
      </trkpt>
      <trkpt lat="43.43058" lon="5.73841">
        <ele>786.2</ele>
        <time>2025-06-08T08:16:09Z</time>
      </trkpt>
      <trkpt lat="43.43058" lon="5.73841">
        <ele>786.2</ele>
        <time>2025-06-08T08:16:10Z</time>
      </trkpt>
      <trkpt lat="43.43058" lon="5.73841">
        <ele>786.2</ele>
        <time>2025-06-08T08:16:26Z</time>
      </trkpt>
      <trkpt lat="43.43058" lon="5.73841">
        <ele>786.2</ele>
        <time>2025-06-08T08:16:27Z</time>
      </trkpt>
      <trkpt lat="43.43058" lon="5.73841">
        <ele>786.4</ele>
        <time>2025-06-08T08:16:32Z</time>
      </trkpt>
      <trkpt lat="43.43058" lon="5.7384">
        <ele>786.7</ele>
        <time>2025-06-08T08:16:34Z</time>
      </trkpt>
      <trkpt lat="43.43058" lon="5.7384">
        <ele>786.6</ele>
        <time>2025-06-08T08:16:39Z</time>
      </trkpt>
      <trkpt lat="43.43058" lon="5.7384">
        <ele>786.7</ele>
        <time>2025-06-08T08:16:40Z</time>
      </trkpt>
      <trkpt lat="43.43058" lon="5.7384">
        <ele>786.7</ele>
        <time>2025-06-08T08:16:41Z</time>
      </trkpt>
      <trkpt lat="43.43058" lon="5.7384">
        <ele>786.7</ele>
        <time>2025-06-08T08:16:43Z</time>
      </trkpt>
      <trkpt lat="43.43058" lon="5.7384">
        <ele>786.9</ele>
        <time>2025-06-08T08:16:49Z</time>
      </trkpt>
      <trkpt lat="43.43066" lon="5.73833">
        <ele>787.1</ele>
        <time>2025-06-08T08:17:11Z</time>
      </trkpt>
      <trkpt lat="43.4307" lon="5.73834">
        <ele>787</ele>
        <time>2025-06-08T08:17:28Z</time>
      </trkpt>
      <trkpt lat="43.4307" lon="5.73835">
        <ele>786.9</ele>
        <time>2025-06-08T08:17:29Z</time>
      </trkpt>
      <trkpt lat="43.43072" lon="5.73839">
        <ele>788.3</ele>
        <time>2025-06-08T08:17:43Z</time>
      </trkpt>
      <trkpt lat="43.43073" lon="5.73839">
        <ele>788.5</ele>
        <time>2025-06-08T08:17:44Z</time>
      </trkpt>
      <trkpt lat="43.43078" lon="5.73832">
        <ele>791</ele>
        <time>2025-06-08T08:18:04Z</time>
      </trkpt>
      <trkpt lat="43.43078" lon="5.73832">
        <ele>791.2</ele>
        <time>2025-06-08T08:18:05Z</time>
      </trkpt>
      <trkpt lat="43.43082" lon="5.7383">
        <ele>791.6</ele>
        <time>2025-06-08T08:18:14Z</time>
      </trkpt>
      <trkpt lat="43.43082" lon="5.7383">
        <ele>791.6</ele>
        <time>2025-06-08T08:18:15Z</time>
      </trkpt>
      <trkpt lat="43.43085" lon="5.73829">
        <ele>792</ele>
        <time>2025-06-08T08:18:25Z</time>
      </trkpt>
      <trkpt lat="43.43084" lon="5.7383">
        <ele>792</ele>
        <time>2025-06-08T08:18:26Z</time>
      </trkpt>
      <trkpt lat="43.43089" lon="5.73835">
        <ele>792.9</ele>
        <time>2025-06-08T08:18:41Z</time>
      </trkpt>
      <trkpt lat="43.43089" lon="5.73835">
        <ele>793</ele>
        <time>2025-06-08T08:18:42Z</time>
      </trkpt>
      <trkpt lat="43.4309" lon="5.73837">
        <ele>794.6</ele>
        <time>2025-06-08T08:18:54Z</time>
      </trkpt>
      <trkpt lat="43.4309" lon="5.73837">
        <ele>794.9</ele>
        <time>2025-06-08T08:18:55Z</time>
      </trkpt>
      <trkpt lat="43.43099" lon="5.73835">
        <ele>800.2</ele>
        <time>2025-06-08T08:19:16Z</time>
      </trkpt>
      <trkpt lat="43.43102" lon="5.73838">
        <ele>801.2</ele>
        <time>2025-06-08T08:19:23Z</time>
      </trkpt>
      <trkpt lat="43.43102" lon="5.73838">
        <ele>801.3</ele>
        <time>2025-06-08T08:19:24Z</time>
      </trkpt>
      <trkpt lat="43.43101" lon="5.73837">
        <ele>802.1</ele>
        <time>2025-06-08T08:19:26Z</time>
      </trkpt>
      <trkpt lat="43.43101" lon="5.73836">
        <ele>802.7</ele>
        <time>2025-06-08T08:19:27Z</time>
      </trkpt>
      <trkpt lat="43.43105" lon="5.73847">
        <ele>811.2</ele>
        <time>2025-06-08T08:19:54Z</time>
      </trkpt>
      <trkpt lat="43.43105" lon="5.73847">
        <ele>811.7</ele>
        <time>2025-06-08T08:19:55Z</time>
      </trkpt>
      <trkpt lat="43.43105" lon="5.73847">
        <ele>811.7</ele>
        <time>2025-06-08T08:19:56Z</time>
      </trkpt>
      <trkpt lat="43.43105" lon="5.73846">
        <ele>812</ele>
        <time>2025-06-08T08:20:01Z</time>
      </trkpt>
      <trkpt lat="43.43105" lon="5.73846">
        <ele>812.1</ele>
        <time>2025-06-08T08:20:02Z</time>
      </trkpt>
      <trkpt lat="43.43105" lon="5.73846">
        <ele>812.4</ele>
        <time>2025-06-08T08:20:04Z</time>
      </trkpt>
      <trkpt lat="43.43105" lon="5.73846">
        <ele>812.6</ele>
        <time>2025-06-08T08:20:05Z</time>
      </trkpt>
      <trkpt lat="43.43105" lon="5.73846">
        <ele>812.9</ele>
        <time>2025-06-08T08:20:06Z</time>
      </trkpt>
      <trkpt lat="43.43105" lon="5.73846">
        <ele>813</ele>
        <time>2025-06-08T08:20:07Z</time>
      </trkpt>
      <trkpt lat="43.43105" lon="5.73846">
        <ele>813.1</ele>
        <time>2025-06-08T08:20:11Z</time>
      </trkpt>
      <trkpt lat="43.43105" lon="5.73846">
        <ele>813.5</ele>
        <time>2025-06-08T08:20:12Z</time>
      </trkpt>
      <trkpt lat="43.43104" lon="5.73845">
        <ele>813.9</ele>
        <time>2025-06-08T08:20:13Z</time>
      </trkpt>
      <trkpt lat="43.43104" lon="5.73845">
        <ele>814.7</ele>
        <time>2025-06-08T08:20:16Z</time>
      </trkpt>
      <trkpt lat="43.43104" lon="5.73845">
        <ele>814.9</ele>
        <time>2025-06-08T08:20:19Z</time>
      </trkpt>
      <trkpt lat="43.43101" lon="5.73843">
        <ele>818.2</ele>
        <time>2025-06-08T08:20:27Z</time>
      </trkpt>
      <trkpt lat="43.43101" lon="5.73843">
        <ele>818.3</ele>
        <time>2025-06-08T08:20:28Z</time>
      </trkpt>
      <trkpt lat="43.43103" lon="5.73842">
        <ele>819.3</ele>
        <time>2025-06-08T08:20:36Z</time>
      </trkpt>
      <trkpt lat="43.43103" lon="5.73842">
        <ele>819.3</ele>
        <time>2025-06-08T08:20:37Z</time>
      </trkpt>
      <trkpt lat="43.43104" lon="5.73844">
        <ele>819.1</ele>
        <time>2025-06-08T08:20:45Z</time>
      </trkpt>
      <trkpt lat="43.43104" lon="5.73844">
        <ele>819.1</ele>
        <time>2025-06-08T08:20:46Z</time>
      </trkpt>
      <trkpt lat="43.43105" lon="5.73851">
        <ele>819.8</ele>
        <time>2025-06-08T08:21:06Z</time>
      </trkpt>
      <trkpt lat="43.43104" lon="5.73851">
        <ele>819.9</ele>
        <time>2025-06-08T08:21:07Z</time>
      </trkpt>
      <trkpt lat="43.43105" lon="5.73853">
        <ele>819.7</ele>
        <time>2025-06-08T08:21:11Z</time>
      </trkpt>
      <trkpt lat="43.43105" lon="5.73853">
        <ele>819.5</ele>
        <time>2025-06-08T08:21:14Z</time>
      </trkpt>
      <trkpt lat="43.43105" lon="5.73853">
        <ele>819.8</ele>
        <time>2025-06-08T08:21:16Z</time>
      </trkpt>
      <trkpt lat="43.43106" lon="5.73853">
        <ele>819.6</ele>
        <time>2025-06-08T08:21:29Z</time>
      </trkpt>
      <trkpt lat="43.43106" lon="5.73852">
        <ele>819.5</ele>
        <time>2025-06-08T08:21:30Z</time>
      </trkpt>
      <trkpt lat="43.43106" lon="5.73852">
        <ele>819.5</ele>
        <time>2025-06-08T08:21:32Z</time>
      </trkpt>
      <trkpt lat="43.43107" lon="5.73852">
        <ele>819.6</ele>
        <time>2025-06-08T08:21:37Z</time>
      </trkpt>
      <trkpt lat="43.43107" lon="5.73851">
        <ele>819.5</ele>
        <time>2025-06-08T08:21:40Z</time>
      </trkpt>
      <trkpt lat="43.43107" lon="5.73849">
        <ele>819.3</ele>
        <time>2025-06-08T08:21:50Z</time>
      </trkpt>
      <trkpt lat="43.43107" lon="5.73849">
        <ele>819.3</ele>
        <time>2025-06-08T08:21:51Z</time>
      </trkpt>
      <trkpt lat="43.43105" lon="5.73852">
        <ele>817.8</ele>
        <time>2025-06-08T08:22:09Z</time>
      </trkpt>
      <trkpt lat="43.43104" lon="5.73853">
        <ele>817.6</ele>
        <time>2025-06-08T08:22:10Z</time>
      </trkpt>
      <trkpt lat="43.43103" lon="5.73849">
        <ele>817.8</ele>
        <time>2025-06-08T08:22:19Z</time>
      </trkpt>
      <trkpt lat="43.43103" lon="5.73849">
        <ele>817.8</ele>
        <time>2025-06-08T08:22:20Z</time>
      </trkpt>
      <trkpt lat="43.43103" lon="5.73848">
        <ele>817.8</ele>
        <time>2025-06-08T08:22:22Z</time>
      </trkpt>
      <trkpt lat="43.43103" lon="5.73849">
        <ele>817.8</ele>
        <time>2025-06-08T08:22:23Z</time>
      </trkpt>
      <trkpt lat="43.43104" lon="5.7385">
        <ele>818.5</ele>
        <time>2025-06-08T08:22:29Z</time>
      </trkpt>
      <trkpt lat="43.43105" lon="5.7385">
        <ele>818.6</ele>
        <time>2025-06-08T08:22:30Z</time>
      </trkpt>
      <trkpt lat="43.43106" lon="5.73849">
        <ele>819</ele>
        <time>2025-06-08T08:22:41Z</time>
      </trkpt>
      <trkpt lat="43.43107" lon="5.73849">
        <ele>818.8</ele>
        <time>2025-06-08T08:22:42Z</time>
      </trkpt>
      <trkpt lat="43.43107" lon="5.73849">
        <ele>818.3</ele>
        <time>2025-06-08T08:22:44Z</time>
      </trkpt>
      <trkpt lat="43.43107" lon="5.73849">
        <ele>818.2</ele>
        <time>2025-06-08T08:22:46Z</time>
      </trkpt>
      <trkpt lat="43.43107" lon="5.73849">
        <ele>818.2</ele>
        <time>2025-06-08T08:22:47Z</time>
      </trkpt>
      <trkpt lat="43.43107" lon="5.7385">
        <ele>818.1</ele>
        <time>2025-06-08T08:22:50Z</time>
      </trkpt>
      <trkpt lat="43.43107" lon="5.7385">
        <ele>818.1</ele>
        <time>2025-06-08T08:22:51Z</time>
      </trkpt>
      <trkpt lat="43.43107" lon="5.7385">
        <ele>818</ele>
        <time>2025-06-08T08:22:54Z</time>
      </trkpt>
      <trkpt lat="43.43109" lon="5.73853">
        <ele>817.4</ele>
        <time>2025-06-08T08:23:04Z</time>
      </trkpt>
      <trkpt lat="43.4311" lon="5.73853">
        <ele>817.4</ele>
        <time>2025-06-08T08:23:05Z</time>
      </trkpt>
      <trkpt lat="43.4311" lon="5.73853">
        <ele>817.3</ele>
        <time>2025-06-08T08:23:07Z</time>
      </trkpt>
      <trkpt lat="43.43109" lon="5.73854">
        <ele>817.3</ele>
        <time>2025-06-08T08:23:10Z</time>
      </trkpt>
      <trkpt lat="43.43109" lon="5.73854">
        <ele>817.3</ele>
        <time>2025-06-08T08:23:11Z</time>
      </trkpt>
      <trkpt lat="43.43109" lon="5.73854">
        <ele>817.1</ele>
        <time>2025-06-08T08:23:12Z</time>
      </trkpt>
      <trkpt lat="43.43109" lon="5.73854">
        <ele>817.1</ele>
        <time>2025-06-08T08:23:13Z</time>
      </trkpt>
      <trkpt lat="43.43109" lon="5.73854">
        <ele>817.1</ele>
        <time>2025-06-08T08:23:20Z</time>
      </trkpt>
      <trkpt lat="43.43109" lon="5.73854">
        <ele>816.8</ele>
        <time>2025-06-08T08:23:23Z</time>
      </trkpt>
      <trkpt lat="43.43109" lon="5.73855">
        <ele>816.8</ele>
        <time>2025-06-08T08:23:24Z</time>
      </trkpt>
      <trkpt lat="43.43109" lon="5.73855">
        <ele>816.8</ele>
        <time>2025-06-08T08:23:25Z</time>
      </trkpt>
      <trkpt lat="43.43109" lon="5.73855">
        <ele>816.8</ele>
        <time>2025-06-08T08:23:27Z</time>
      </trkpt>
      <trkpt lat="43.43109" lon="5.73855">
        <ele>816.8</ele>
        <time>2025-06-08T08:23:28Z</time>
      </trkpt>
      <trkpt lat="43.43109" lon="5.73855">
        <ele>816.8</ele>
        <time>2025-06-08T08:23:33Z</time>
      </trkpt>
      <trkpt lat="43.43109" lon="5.73855">
        <ele>816.7</ele>
        <time>2025-06-08T08:23:34Z</time>
      </trkpt>
      <trkpt lat="43.43109" lon="5.73854">
        <ele>816.7</ele>
        <time>2025-06-08T08:23:35Z</time>
      </trkpt>
      <trkpt lat="43.43109" lon="5.73854">
        <ele>816.7</ele>
        <time>2025-06-08T08:23:36Z</time>
      </trkpt>
      <trkpt lat="43.43109" lon="5.73854">
        <ele>816.6</ele>
        <time>2025-06-08T08:23:37Z</time>
      </trkpt>
      <trkpt lat="43.43109" lon="5.73854">
        <ele>816.6</ele>
        <time>2025-06-08T08:23:38Z</time>
      </trkpt>
      <trkpt lat="43.43109" lon="5.73854">
        <ele>816.7</ele>
        <time>2025-06-08T08:23:41Z</time>
      </trkpt>
      <trkpt lat="43.43109" lon="5.73853">
        <ele>816.5</ele>
        <time>2025-06-08T08:23:43Z</time>
      </trkpt>
      <trkpt lat="43.43109" lon="5.73853">
        <ele>816.4</ele>
        <time>2025-06-08T08:23:44Z</time>
      </trkpt>
      <trkpt lat="43.43109" lon="5.73853">
        <ele>816.3</ele>
        <time>2025-06-08T08:23:45Z</time>
      </trkpt>
      <trkpt lat="43.43109" lon="5.73853">
        <ele>816.3</ele>
        <time>2025-06-08T08:23:46Z</time>
      </trkpt>
      <trkpt lat="43.43109" lon="5.73853">
        <ele>816.3</ele>
        <time>2025-06-08T08:23:47Z</time>
      </trkpt>
      <trkpt lat="43.43108" lon="5.73853">
        <ele>816.3</ele>
        <time>2025-06-08T08:23:49Z</time>
      </trkpt>
      <trkpt lat="43.43108" lon="5.73854">
        <ele>816.2</ele>
        <time>2025-06-08T08:23:50Z</time>
      </trkpt>
      <trkpt lat="43.43108" lon="5.73854">
        <ele>816.1</ele>
        <time>2025-06-08T08:23:51Z</time>
      </trkpt>
      <trkpt lat="43.43106" lon="5.73855">
        <ele>816.5</ele>
        <time>2025-06-08T08:23:58Z</time>
      </trkpt>
      <trkpt lat="43.43106" lon="5.73855">
        <ele>816.5</ele>
        <time>2025-06-08T08:23:59Z</time>
      </trkpt>
      <trkpt lat="43.43109" lon="5.73855">
        <ele>817.4</ele>
        <time>2025-06-08T08:24:18Z</time>
      </trkpt>
      <trkpt lat="43.43109" lon="5.73856">
        <ele>817.6</ele>
        <time>2025-06-08T08:24:21Z</time>
      </trkpt>
      <trkpt lat="43.43109" lon="5.73852">
        <ele>819.2</ele>
        <time>2025-06-08T08:24:34Z</time>
      </trkpt>
      <trkpt lat="43.43109" lon="5.73852">
        <ele>819.3</ele>
        <time>2025-06-08T08:24:35Z</time>
      </trkpt>
      <trkpt lat="43.43109" lon="5.73852">
        <ele>819.5</ele>
        <time>2025-06-08T08:24:36Z</time>
      </trkpt>
      <trkpt lat="43.43109" lon="5.73852">
        <ele>819.6</ele>
        <time>2025-06-08T08:24:37Z</time>
      </trkpt>
      <trkpt lat="43.43107" lon="5.73852">
        <ele>822.5</ele>
        <time>2025-06-08T08:24:53Z</time>
      </trkpt>
      <trkpt lat="43.43107" lon="5.73852">
        <ele>822.5</ele>
        <time>2025-06-08T08:24:54Z</time>
      </trkpt>
      <trkpt lat="43.43107" lon="5.73852">
        <ele>822.6</ele>
        <time>2025-06-08T08:24:59Z</time>
      </trkpt>
      <trkpt lat="43.43108" lon="5.73852">
        <ele>822.4</ele>
        <time>2025-06-08T08:25:02Z</time>
      </trkpt>
      <trkpt lat="43.43108" lon="5.73852">
        <ele>822.3</ele>
        <time>2025-06-08T08:25:04Z</time>
      </trkpt>
      <trkpt lat="43.43108" lon="5.73851">
        <ele>822.2</ele>
        <time>2025-06-08T08:25:09Z</time>
      </trkpt>
      <trkpt lat="43.43108" lon="5.73851">
        <ele>822.1</ele>
        <time>2025-06-08T08:25:11Z</time>
      </trkpt>
      <trkpt lat="43.43107" lon="5.73852">
        <ele>821.9</ele>
        <time>2025-06-08T08:25:13Z</time>
      </trkpt>
      <trkpt lat="43.43107" lon="5.73852">
        <ele>821.5</ele>
        <time>2025-06-08T08:25:15Z</time>
      </trkpt>
      <trkpt lat="43.43107" lon="5.73852">
        <ele>821.4</ele>
        <time>2025-06-08T08:25:16Z</time>
      </trkpt>
      <trkpt lat="43.43107" lon="5.73853">
        <ele>821.3</ele>
        <time>2025-06-08T08:25:19Z</time>
      </trkpt>
      <trkpt lat="43.43107" lon="5.73853">
        <ele>821.3</ele>
        <time>2025-06-08T08:25:20Z</time>
      </trkpt>
      <trkpt lat="43.43107" lon="5.73853">
        <ele>821.3</ele>
        <time>2025-06-08T08:25:21Z</time>
      </trkpt>
      <trkpt lat="43.43107" lon="5.73854">
        <ele>821.3</ele>
        <time>2025-06-08T08:25:22Z</time>
      </trkpt>
      <trkpt lat="43.43107" lon="5.73854">
        <ele>821.6</ele>
        <time>2025-06-08T08:25:24Z</time>
      </trkpt>
      <trkpt lat="43.43107" lon="5.73854">
        <ele>821.5</ele>
        <time>2025-06-08T08:25:26Z</time>
      </trkpt>
      <trkpt lat="43.43107" lon="5.73853">
        <ele>821.4</ele>
        <time>2025-06-08T08:25:27Z</time>
      </trkpt>
      <trkpt lat="43.43107" lon="5.73853">
        <ele>821.3</ele>
        <time>2025-06-08T08:25:28Z</time>
      </trkpt>
      <trkpt lat="43.43107" lon="5.73852">
        <ele>820.9</ele>
        <time>2025-06-08T08:25:32Z</time>
      </trkpt>
      <trkpt lat="43.43108" lon="5.73852">
        <ele>820.8</ele>
        <time>2025-06-08T08:25:41Z</time>
      </trkpt>
      <trkpt lat="43.43108" lon="5.73851">
        <ele>820.6</ele>
        <time>2025-06-08T08:25:44Z</time>
      </trkpt>
      <trkpt lat="43.43108" lon="5.73851">
        <ele>820.6</ele>
        <time>2025-06-08T08:25:45Z</time>
      </trkpt>
      <trkpt lat="43.43108" lon="5.73851">
        <ele>820.6</ele>
        <time>2025-06-08T08:25:46Z</time>
      </trkpt>
      <trkpt lat="43.43108" lon="5.73851">
        <ele>820.5</ele>
        <time>2025-06-08T08:25:47Z</time>
      </trkpt>
      <trkpt lat="43.43108" lon="5.73851">
        <ele>820.6</ele>
        <time>2025-06-08T08:25:50Z</time>
      </trkpt>
      <trkpt lat="43.43108" lon="5.73851">
        <ele>820.6</ele>
        <time>2025-06-08T08:25:51Z</time>
      </trkpt>
      <trkpt lat="43.4311" lon="5.73855">
        <ele>821.6</ele>
        <time>2025-06-08T08:26:18Z</time>
      </trkpt>
      <trkpt lat="43.4311" lon="5.73855">
        <ele>821.2</ele>
        <time>2025-06-08T08:26:20Z</time>
      </trkpt>
      <trkpt lat="43.4311" lon="5.73857">
        <ele>819.1</ele>
        <time>2025-06-08T08:26:34Z</time>
      </trkpt>
      <trkpt lat="43.4311" lon="5.73856">
        <ele>818.8</ele>
        <time>2025-06-08T08:26:35Z</time>
      </trkpt>
      <trkpt lat="43.4311" lon="5.73856">
        <ele>818.5</ele>
        <time>2025-06-08T08:26:37Z</time>
      </trkpt>
      <trkpt lat="43.4311" lon="5.73856">
        <ele>818.4</ele>
        <time>2025-06-08T08:26:38Z</time>
      </trkpt>
      <trkpt lat="43.43111" lon="5.73856">
        <ele>817.5</ele>
        <time>2025-06-08T08:26:43Z</time>
      </trkpt>
      <trkpt lat="43.43111" lon="5.73856">
        <ele>817</ele>
        <time>2025-06-08T08:27:03Z</time>
      </trkpt>
      <trkpt lat="43.43108" lon="5.73857">
        <ele>818.2</ele>
        <time>2025-06-08T08:27:13Z</time>
      </trkpt>
      <trkpt lat="43.43108" lon="5.73857">
        <ele>818.3</ele>
        <time>2025-06-08T08:27:15Z</time>
      </trkpt>
      <trkpt lat="43.43106" lon="5.73856">
        <ele>817.5</ele>
        <time>2025-06-08T08:27:20Z</time>
      </trkpt>
      <trkpt lat="43.43107" lon="5.73856">
        <ele>817.2</ele>
        <time>2025-06-08T08:27:21Z</time>
      </trkpt>
      <trkpt lat="43.43103" lon="5.73851">
        <ele>819.5</ele>
        <time>2025-06-08T08:27:43Z</time>
      </trkpt>
      <trkpt lat="43.43103" lon="5.73851">
        <ele>819.7</ele>
        <time>2025-06-08T08:27:44Z</time>
      </trkpt>
      <trkpt lat="43.43105" lon="5.73853">
        <ele>819.6</ele>
        <time>2025-06-08T08:27:49Z</time>
      </trkpt>
      <trkpt lat="43.43105" lon="5.73853">
        <ele>819.4</ele>
        <time>2025-06-08T08:27:54Z</time>
      </trkpt>
      <trkpt lat="43.43105" lon="5.73853">
        <ele>819.3</ele>
        <time>2025-06-08T08:27:55Z</time>
      </trkpt>
      <trkpt lat="43.43105" lon="5.73853">
        <ele>819.2</ele>
        <time>2025-06-08T08:27:56Z</time>
      </trkpt>
      <trkpt lat="43.43107" lon="5.73854">
        <ele>819.3</ele>
        <time>2025-06-08T08:28:07Z</time>
      </trkpt>
      <trkpt lat="43.43108" lon="5.73853">
        <ele>819.1</ele>
        <time>2025-06-08T08:28:13Z</time>
      </trkpt>
      <trkpt lat="43.43108" lon="5.73853">
        <ele>818.1</ele>
        <time>2025-06-08T08:28:18Z</time>
      </trkpt>
      <trkpt lat="43.43108" lon="5.73853">
        <ele>817.9</ele>
        <time>2025-06-08T08:28:19Z</time>
      </trkpt>
      <trkpt lat="43.43108" lon="5.73853">
        <ele>817.7</ele>
        <time>2025-06-08T08:28:20Z</time>
      </trkpt>
      <trkpt lat="43.43108" lon="5.73853">
        <ele>817.7</ele>
        <time>2025-06-08T08:28:21Z</time>
      </trkpt>
      <trkpt lat="43.43108" lon="5.73852">
        <ele>817.7</ele>
        <time>2025-06-08T08:28:23Z</time>
      </trkpt>
      <trkpt lat="43.43108" lon="5.73852">
        <ele>817.8</ele>
        <time>2025-06-08T08:28:41Z</time>
      </trkpt>
      <trkpt lat="43.43108" lon="5.73852">
        <ele>817.9</ele>
        <time>2025-06-08T08:28:43Z</time>
      </trkpt>
      <trkpt lat="43.43108" lon="5.73852">
        <ele>817.9</ele>
        <time>2025-06-08T08:28:44Z</time>
      </trkpt>
      <trkpt lat="43.43108" lon="5.73853">
        <ele>817.7</ele>
        <time>2025-06-08T08:28:46Z</time>
      </trkpt>
      <trkpt lat="43.43108" lon="5.73853">
        <ele>817.8</ele>
        <time>2025-06-08T08:28:47Z</time>
      </trkpt>
      <trkpt lat="43.43108" lon="5.73853">
        <ele>817.9</ele>
        <time>2025-06-08T08:28:48Z</time>
      </trkpt>
      <trkpt lat="43.43108" lon="5.73853">
        <ele>817.8</ele>
        <time>2025-06-08T08:28:49Z</time>
      </trkpt>
      <trkpt lat="43.43108" lon="5.73854">
        <ele>817.3</ele>
        <time>2025-06-08T08:28:57Z</time>
      </trkpt>
      <trkpt lat="43.43108" lon="5.73854">
        <ele>817.3</ele>
        <time>2025-06-08T08:28:58Z</time>
      </trkpt>
      <trkpt lat="43.43108" lon="5.73854">
        <ele>817.3</ele>
        <time>2025-06-08T08:29:00Z</time>
      </trkpt>
      <trkpt lat="43.43108" lon="5.73854">
        <ele>817.3</ele>
        <time>2025-06-08T08:29:03Z</time>
      </trkpt>
      <trkpt lat="43.43108" lon="5.73855">
        <ele>817.2</ele>
        <time>2025-06-08T08:29:07Z</time>
      </trkpt>
      <trkpt lat="43.43107" lon="5.73854">
        <ele>817.1</ele>
        <time>2025-06-08T08:29:08Z</time>
      </trkpt>
      <trkpt lat="43.43106" lon="5.73853">
        <ele>816.5</ele>
        <time>2025-06-08T08:29:19Z</time>
      </trkpt>
      <trkpt lat="43.43106" lon="5.73853">
        <ele>816.2</ele>
        <time>2025-06-08T08:29:21Z</time>
      </trkpt>
      <trkpt lat="43.43105" lon="5.73853">
        <ele>815.6</ele>
        <time>2025-06-08T08:29:24Z</time>
      </trkpt>
      <trkpt lat="43.43105" lon="5.73853">
        <ele>815.6</ele>
        <time>2025-06-08T08:29:25Z</time>
      </trkpt>
      <trkpt lat="43.43105" lon="5.73853">
        <ele>815.5</ele>
        <time>2025-06-08T08:29:26Z</time>
      </trkpt>
      <trkpt lat="43.43105" lon="5.73853">
        <ele>815.5</ele>
        <time>2025-06-08T08:29:27Z</time>
      </trkpt>
      <trkpt lat="43.43105" lon="5.73853">
        <ele>815.6</ele>
        <time>2025-06-08T08:29:28Z</time>
      </trkpt>
      <trkpt lat="43.43105" lon="5.73853">
        <ele>815.7</ele>
        <time>2025-06-08T08:29:29Z</time>
      </trkpt>
      <trkpt lat="43.43105" lon="5.73851">
        <ele>815.6</ele>
        <time>2025-06-08T08:29:35Z</time>
      </trkpt>
      <trkpt lat="43.43105" lon="5.7385">
        <ele>815.2</ele>
        <time>2025-06-08T08:29:38Z</time>
      </trkpt>
      <trkpt lat="43.43105" lon="5.7385">
        <ele>815</ele>
        <time>2025-06-08T08:29:41Z</time>
      </trkpt>
      <trkpt lat="43.43105" lon="5.73849">
        <ele>815</ele>
        <time>2025-06-08T08:29:42Z</time>
      </trkpt>
      <trkpt lat="43.43105" lon="5.73849">
        <ele>815.1</ele>
        <time>2025-06-08T08:29:43Z</time>
      </trkpt>
      <trkpt lat="43.43105" lon="5.7385">
        <ele>814.9</ele>
        <time>2025-06-08T08:29:44Z</time>
      </trkpt>
      <trkpt lat="43.43105" lon="5.7385">
        <ele>814.6</ele>
        <time>2025-06-08T08:29:46Z</time>
      </trkpt>
      <trkpt lat="43.43105" lon="5.73851">
        <ele>814.8</ele>
        <time>2025-06-08T08:29:48Z</time>
      </trkpt>
      <trkpt lat="43.43105" lon="5.73851">
        <ele>815.2</ele>
        <time>2025-06-08T08:29:51Z</time>
      </trkpt>
      <trkpt lat="43.43104" lon="5.73851">
        <ele>815.3</ele>
        <time>2025-06-08T08:29:52Z</time>
      </trkpt>
      <trkpt lat="43.43102" lon="5.73844">
        <ele>815</ele>
        <time>2025-06-08T08:30:02Z</time>
      </trkpt>
      <trkpt lat="43.43103" lon="5.73844">
        <ele>814.9</ele>
        <time>2025-06-08T08:30:03Z</time>
      </trkpt>
      <trkpt lat="43.43103" lon="5.73845">
        <ele>814.5</ele>
        <time>2025-06-08T08:30:10Z</time>
      </trkpt>
      <trkpt lat="43.43104" lon="5.73844">
        <ele>814.4</ele>
        <time>2025-06-08T08:30:11Z</time>
      </trkpt>
      <trkpt lat="43.43104" lon="5.73846">
        <ele>815.2</ele>
        <time>2025-06-08T08:30:20Z</time>
      </trkpt>
      <trkpt lat="43.43104" lon="5.73845">
        <ele>815.2</ele>
        <time>2025-06-08T08:30:21Z</time>
      </trkpt>
      <trkpt lat="43.43106" lon="5.73845">
        <ele>814.3</ele>
        <time>2025-06-08T08:30:29Z</time>
      </trkpt>
      <trkpt lat="43.43106" lon="5.73845">
        <ele>814.3</ele>
        <time>2025-06-08T08:30:30Z</time>
      </trkpt>
      <trkpt lat="43.43104" lon="5.73849">
        <ele>813.6</ele>
        <time>2025-06-08T08:30:36Z</time>
      </trkpt>
      <trkpt lat="43.43104" lon="5.73849">
        <ele>813.5</ele>
        <time>2025-06-08T08:30:37Z</time>
      </trkpt>
      <trkpt lat="43.43104" lon="5.73849">
        <ele>813.4</ele>
        <time>2025-06-08T08:30:38Z</time>
      </trkpt>
      <trkpt lat="43.43104" lon="5.73849">
        <ele>813.3</ele>
        <time>2025-06-08T08:30:39Z</time>
      </trkpt>
      <trkpt lat="43.43104" lon="5.73849">
        <ele>813.2</ele>
        <time>2025-06-08T08:30:40Z</time>
      </trkpt>
      <trkpt lat="43.43104" lon="5.73849">
        <ele>813.1</ele>
        <time>2025-06-08T08:30:41Z</time>
      </trkpt>
      <trkpt lat="43.43104" lon="5.73849">
        <ele>813.1</ele>
        <time>2025-06-08T08:30:42Z</time>
      </trkpt>
      <trkpt lat="43.43103" lon="5.73849">
        <ele>812.9</ele>
        <time>2025-06-08T08:30:45Z</time>
      </trkpt>
      <trkpt lat="43.43103" lon="5.73849">
        <ele>813.2</ele>
        <time>2025-06-08T08:30:47Z</time>
      </trkpt>
      <trkpt lat="43.43103" lon="5.73849">
        <ele>813.4</ele>
        <time>2025-06-08T08:30:49Z</time>
      </trkpt>
      <trkpt lat="43.43103" lon="5.7385">
        <ele>813.1</ele>
        <time>2025-06-08T08:30:56Z</time>
      </trkpt>
      <trkpt lat="43.43103" lon="5.7385">
        <ele>812.9</ele>
        <time>2025-06-08T08:30:57Z</time>
      </trkpt>
      <trkpt lat="43.43103" lon="5.73849">
        <ele>812.5</ele>
        <time>2025-06-08T08:31:00Z</time>
      </trkpt>
      <trkpt lat="43.43103" lon="5.73849">
        <ele>812.7</ele>
        <time>2025-06-08T08:31:02Z</time>
      </trkpt>
      <trkpt lat="43.43102" lon="5.73849">
        <ele>812.7</ele>
        <time>2025-06-08T08:31:06Z</time>
      </trkpt>
      <trkpt lat="43.43102" lon="5.73849">
        <ele>812.8</ele>
        <time>2025-06-08T08:31:07Z</time>
      </trkpt>
      <trkpt lat="43.43101" lon="5.73847">
        <ele>812.8</ele>
        <time>2025-06-08T08:31:14Z</time>
      </trkpt>
      <trkpt lat="43.43102" lon="5.73848">
        <ele>813.1</ele>
        <time>2025-06-08T08:31:16Z</time>
      </trkpt>
      <trkpt lat="43.43102" lon="5.73849">
        <ele>814.8</ele>
        <time>2025-06-08T08:31:30Z</time>
      </trkpt>
      <trkpt lat="43.43102" lon="5.73849">
        <ele>815.2</ele>
        <time>2025-06-08T08:31:31Z</time>
      </trkpt>
      <trkpt lat="43.43101" lon="5.73849">
        <ele>815.7</ele>
        <time>2025-06-08T08:31:34Z</time>
      </trkpt>
      <trkpt lat="43.43101" lon="5.73849">
        <ele>815.7</ele>
        <time>2025-06-08T08:31:35Z</time>
      </trkpt>
      <trkpt lat="43.43101" lon="5.73849">
        <ele>815.7</ele>
        <time>2025-06-08T08:31:36Z</time>
      </trkpt>
      <trkpt lat="43.43101" lon="5.73849">
        <ele>815.9</ele>
        <time>2025-06-08T08:31:40Z</time>
      </trkpt>
      <trkpt lat="43.43103" lon="5.73848">
        <ele>815</ele>
        <time>2025-06-08T08:31:46Z</time>
      </trkpt>
      <trkpt lat="43.43103" lon="5.73848">
        <ele>814.9</ele>
        <time>2025-06-08T08:31:49Z</time>
      </trkpt>
      <trkpt lat="43.43104" lon="5.73848">
        <ele>815</ele>
        <time>2025-06-08T08:31:51Z</time>
      </trkpt>
      <trkpt lat="43.43104" lon="5.73848">
        <ele>815</ele>
        <time>2025-06-08T08:31:52Z</time>
      </trkpt>
      <trkpt lat="43.43104" lon="5.73848">
        <ele>815</ele>
        <time>2025-06-08T08:31:53Z</time>
      </trkpt>
      <trkpt lat="43.43104" lon="5.73848">
        <ele>815</ele>
        <time>2025-06-08T08:32:03Z</time>
      </trkpt>
      <trkpt lat="43.43104" lon="5.73847">
        <ele>815</ele>
        <time>2025-06-08T08:32:05Z</time>
      </trkpt>
      <trkpt lat="43.43104" lon="5.73847">
        <ele>814.9</ele>
        <time>2025-06-08T08:32:06Z</time>
      </trkpt>
      <trkpt lat="43.43105" lon="5.73847">
        <ele>814.2</ele>
        <time>2025-06-08T08:32:09Z</time>
      </trkpt>
      <trkpt lat="43.43105" lon="5.73847">
        <ele>814.2</ele>
        <time>2025-06-08T08:32:15Z</time>
      </trkpt>
      <trkpt lat="43.43104" lon="5.73847">
        <ele>814.6</ele>
        <time>2025-06-08T08:32:18Z</time>
      </trkpt>
      <trkpt lat="43.43104" lon="5.73847">
        <ele>814.6</ele>
        <time>2025-06-08T08:32:19Z</time>
      </trkpt>
      <trkpt lat="43.43104" lon="5.73847">
        <ele>814.6</ele>
        <time>2025-06-08T08:32:21Z</time>
      </trkpt>
      <trkpt lat="43.43105" lon="5.73847">
        <ele>814.6</ele>
        <time>2025-06-08T08:32:23Z</time>
      </trkpt>
      <trkpt lat="43.43105" lon="5.73847">
        <ele>814.7</ele>
        <time>2025-06-08T08:32:26Z</time>
      </trkpt>
      <trkpt lat="43.43105" lon="5.73847">
        <ele>814.7</ele>
        <time>2025-06-08T08:32:27Z</time>
      </trkpt>
      <trkpt lat="43.43106" lon="5.73848">
        <ele>814.4</ele>
        <time>2025-06-08T08:32:32Z</time>
      </trkpt>
      <trkpt lat="43.43106" lon="5.73848">
        <ele>814.4</ele>
        <time>2025-06-08T08:32:34Z</time>
      </trkpt>
      <trkpt lat="43.43106" lon="5.73848">
        <ele>814.5</ele>
        <time>2025-06-08T08:32:35Z</time>
      </trkpt>
      <trkpt lat="43.43105" lon="5.73847">
        <ele>814.9</ele>
        <time>2025-06-08T08:32:36Z</time>
      </trkpt>
      <trkpt lat="43.43105" lon="5.73847">
        <ele>815.4</ele>
        <time>2025-06-08T08:32:39Z</time>
      </trkpt>
      <trkpt lat="43.43105" lon="5.73848">
        <ele>815.2</ele>
        <time>2025-06-08T08:32:41Z</time>
      </trkpt>
      <trkpt lat="43.43105" lon="5.73848">
        <ele>815.1</ele>
        <time>2025-06-08T08:32:43Z</time>
      </trkpt>
      <trkpt lat="43.43105" lon="5.73849">
        <ele>815</ele>
        <time>2025-06-08T08:32:44Z</time>
      </trkpt>
      <trkpt lat="43.43105" lon="5.73849">
        <ele>814.4</ele>
        <time>2025-06-08T08:32:49Z</time>
      </trkpt>
      <trkpt lat="43.43106" lon="5.73849">
        <ele>814.4</ele>
        <time>2025-06-08T08:32:51Z</time>
      </trkpt>
      <trkpt lat="43.43106" lon="5.73849">
        <ele>814.3</ele>
        <time>2025-06-08T08:32:54Z</time>
      </trkpt>
      <trkpt lat="43.43106" lon="5.73849">
        <ele>814.5</ele>
        <time>2025-06-08T08:32:55Z</time>
      </trkpt>
      <trkpt lat="43.43103" lon="5.73837">
        <ele>814.8</ele>
        <time>2025-06-08T08:33:28Z</time>
      </trkpt>
      <trkpt lat="43.43094" lon="5.73835">
        <ele>813.9</ele>
        <time>2025-06-08T08:33:45Z</time>
      </trkpt>
      <trkpt lat="43.43093" lon="5.73835">
        <ele>813.8</ele>
        <time>2025-06-08T08:33:47Z</time>
      </trkpt>
      <trkpt lat="43.43093" lon="5.73835">
        <ele>813.8</ele>
        <time>2025-06-08T08:33:48Z</time>
      </trkpt>
      <trkpt lat="43.43085" lon="5.73835">
        <ele>811</ele>
        <time>2025-06-08T08:34:18Z</time>
      </trkpt>
      <trkpt lat="43.43085" lon="5.73834">
        <ele>810.4</ele>
        <time>2025-06-08T08:34:21Z</time>
      </trkpt>
      <trkpt lat="43.43079" lon="5.73841">
        <ele>805.8</ele>
        <time>2025-06-08T08:34:40Z</time>
      </trkpt>
      <trkpt lat="43.43079" lon="5.73841">
        <ele>805.6</ele>
        <time>2025-06-08T08:34:41Z</time>
      </trkpt>
      <trkpt lat="43.43078" lon="5.73845">
        <ele>805</ele>
        <time>2025-06-08T08:34:49Z</time>
      </trkpt>
      <trkpt lat="43.43077" lon="5.73845">
        <ele>804.8</ele>
        <time>2025-06-08T08:34:50Z</time>
      </trkpt>
      <trkpt lat="43.43076" lon="5.73846">
        <ele>803.9</ele>
        <time>2025-06-08T08:34:56Z</time>
      </trkpt>
      <trkpt lat="43.43076" lon="5.73846">
        <ele>803.7</ele>
        <time>2025-06-08T08:34:57Z</time>
      </trkpt>
      <trkpt lat="43.43074" lon="5.73845">
        <ele>803.1</ele>
        <time>2025-06-08T08:35:03Z</time>
      </trkpt>
      <trkpt lat="43.43074" lon="5.73845">
        <ele>802.9</ele>
        <time>2025-06-08T08:35:06Z</time>
      </trkpt>
      <trkpt lat="43.43074" lon="5.73845">
        <ele>802.5</ele>
        <time>2025-06-08T08:35:12Z</time>
      </trkpt>
      <trkpt lat="43.43074" lon="5.73844">
        <ele>802.3</ele>
        <time>2025-06-08T08:35:13Z</time>
      </trkpt>
      <trkpt lat="43.43074" lon="5.73845">
        <ele>802.2</ele>
        <time>2025-06-08T08:35:14Z</time>
      </trkpt>
      <trkpt lat="43.43074" lon="5.73844">
        <ele>802.1</ele>
        <time>2025-06-08T08:35:15Z</time>
      </trkpt>
      <trkpt lat="43.43068" lon="5.73837">
        <ele>800.4</ele>
        <time>2025-06-08T08:35:42Z</time>
      </trkpt>
      <trkpt lat="43.43068" lon="5.73837">
        <ele>800.4</ele>
        <time>2025-06-08T08:35:43Z</time>
      </trkpt>
      <trkpt lat="43.43068" lon="5.73837">
        <ele>800.3</ele>
        <time>2025-06-08T08:35:44Z</time>
      </trkpt>
      <trkpt lat="43.43067" lon="5.73837">
        <ele>800.2</ele>
        <time>2025-06-08T08:35:45Z</time>
      </trkpt>
      <trkpt lat="43.43067" lon="5.73837">
        <ele>799.2</ele>
        <time>2025-06-08T08:35:48Z</time>
      </trkpt>
      <trkpt lat="43.43066" lon="5.73837">
        <ele>799</ele>
        <time>2025-06-08T08:35:49Z</time>
      </trkpt>
      <trkpt lat="43.43065" lon="5.73838">
        <ele>798.4</ele>
        <time>2025-06-08T08:35:52Z</time>
      </trkpt>
      <trkpt lat="43.43065" lon="5.73839">
        <ele>797.5</ele>
        <time>2025-06-08T08:35:55Z</time>
      </trkpt>
      <trkpt lat="43.43065" lon="5.73838">
        <ele>796.9</ele>
        <time>2025-06-08T08:35:59Z</time>
      </trkpt>
      <trkpt lat="43.43065" lon="5.73838">
        <ele>796.9</ele>
        <time>2025-06-08T08:36:00Z</time>
      </trkpt>
      <trkpt lat="43.43067" lon="5.73838">
        <ele>796.5</ele>
        <time>2025-06-08T08:36:06Z</time>
      </trkpt>
      <trkpt lat="43.43067" lon="5.73838">
        <ele>796.3</ele>
        <time>2025-06-08T08:36:09Z</time>
      </trkpt>
      <trkpt lat="43.43067" lon="5.73838">
        <ele>796.3</ele>
        <time>2025-06-08T08:36:11Z</time>
      </trkpt>
      <trkpt lat="43.43067" lon="5.73837">
        <ele>796.2</ele>
        <time>2025-06-08T08:36:12Z</time>
      </trkpt>
      <trkpt lat="43.43067" lon="5.73837">
        <ele>795.9</ele>
        <time>2025-06-08T08:36:14Z</time>
      </trkpt>
      <trkpt lat="43.43067" lon="5.73837">
        <ele>795.7</ele>
        <time>2025-06-08T08:36:15Z</time>
      </trkpt>
      <trkpt lat="43.43063" lon="5.73838">
        <ele>795.1</ele>
        <time>2025-06-08T08:36:33Z</time>
      </trkpt>
      <trkpt lat="43.43064" lon="5.73837">
        <ele>795.2</ele>
        <time>2025-06-08T08:36:34Z</time>
      </trkpt>
      <trkpt lat="43.43056" lon="5.73844">
        <ele>792.2</ele>
        <time>2025-06-08T08:36:54Z</time>
      </trkpt>
      <trkpt lat="43.43055" lon="5.73842">
        <ele>788.2</ele>
        <time>2025-06-08T08:37:13Z</time>
      </trkpt>
      <trkpt lat="43.43056" lon="5.73842">
        <ele>788.1</ele>
        <time>2025-06-08T08:37:14Z</time>
      </trkpt>
      <trkpt lat="43.43053" lon="5.73845">
        <ele>785.8</ele>
        <time>2025-06-08T08:37:31Z</time>
      </trkpt>
      <trkpt lat="43.43052" lon="5.73845">
        <ele>785.8</ele>
        <time>2025-06-08T08:37:32Z</time>
      </trkpt>
      <trkpt lat="43.43052" lon="5.73845">
        <ele>786.1</ele>
        <time>2025-06-08T08:37:35Z</time>
      </trkpt>
      <trkpt lat="43.43051" lon="5.73846">
        <ele>786.1</ele>
        <time>2025-06-08T08:37:36Z</time>
      </trkpt>
      <trkpt lat="43.43051" lon="5.73846">
        <ele>785.8</ele>
        <time>2025-06-08T08:37:41Z</time>
      </trkpt>
      <trkpt lat="43.43051" lon="5.73846">
        <ele>785.9</ele>
        <time>2025-06-08T08:37:42Z</time>
      </trkpt>
      <trkpt lat="43.43043" lon="5.73855">
        <ele>782.2</ele>
        <time>2025-06-08T08:38:03Z</time>
      </trkpt>
      <trkpt lat="43.4304" lon="5.73859">
        <ele>780.2</ele>
        <time>2025-06-08T08:38:21Z</time>
      </trkpt>
      <trkpt lat="43.43039" lon="5.73859">
        <ele>780.1</ele>
        <time>2025-06-08T08:38:22Z</time>
      </trkpt>
      <trkpt lat="43.43035" lon="5.7386">
        <ele>780</ele>
        <time>2025-06-08T08:38:34Z</time>
      </trkpt>
      <trkpt lat="43.43035" lon="5.7386">
        <ele>779.9</ele>
        <time>2025-06-08T08:38:35Z</time>
      </trkpt>
      <trkpt lat="43.43034" lon="5.73859">
        <ele>776.9</ele>
        <time>2025-06-08T08:38:47Z</time>
      </trkpt>
      <trkpt lat="43.43034" lon="5.73859">
        <ele>776.9</ele>
        <time>2025-06-08T08:38:48Z</time>
      </trkpt>
      <trkpt lat="43.43033" lon="5.73859">
        <ele>776.6</ele>
        <time>2025-06-08T08:38:53Z</time>
      </trkpt>
      <trkpt lat="43.43033" lon="5.73859">
        <ele>776.5</ele>
        <time>2025-06-08T08:38:54Z</time>
      </trkpt>
      <trkpt lat="43.43031" lon="5.73851">
        <ele>774.6</ele>
        <time>2025-06-08T08:39:17Z</time>
      </trkpt>
      <trkpt lat="43.43031" lon="5.73851">
        <ele>774.6</ele>
        <time>2025-06-08T08:39:18Z</time>
      </trkpt>
      <trkpt lat="43.43031" lon="5.73851">
        <ele>774.8</ele>
        <time>2025-06-08T08:39:21Z</time>
      </trkpt>
      <trkpt lat="43.43031" lon="5.73851">
        <ele>774.9</ele>
        <time>2025-06-08T08:39:22Z</time>
      </trkpt>
      <trkpt lat="43.43031" lon="5.7385">
        <ele>772.3</ele>
        <time>2025-06-08T08:39:33Z</time>
      </trkpt>
      <trkpt lat="43.4303" lon="5.73849">
        <ele>772.2</ele>
        <time>2025-06-08T08:39:34Z</time>
      </trkpt>
      <trkpt lat="43.43031" lon="5.73844">
        <ele>767.9</ele>
        <time>2025-06-08T08:40:03Z</time>
      </trkpt>
      <trkpt lat="43.43031" lon="5.73844">
        <ele>767.7</ele>
        <time>2025-06-08T08:40:04Z</time>
      </trkpt>
      <trkpt lat="43.43029" lon="5.73841">
        <ele>766.1</ele>
        <time>2025-06-08T08:40:18Z</time>
      </trkpt>
      <trkpt lat="43.43029" lon="5.73841">
        <ele>765.9</ele>
        <time>2025-06-08T08:40:19Z</time>
      </trkpt>
      <trkpt lat="43.43028" lon="5.73829">
        <ele>763.3</ele>
        <time>2025-06-08T08:40:43Z</time>
      </trkpt>
      <trkpt lat="43.43027" lon="5.73823">
        <ele>762.7</ele>
        <time>2025-06-08T08:40:53Z</time>
      </trkpt>
      <trkpt lat="43.43027" lon="5.73823">
        <ele>762.6</ele>
        <time>2025-06-08T08:40:54Z</time>
      </trkpt>
      <trkpt lat="43.43024" lon="5.73812">
        <ele>759.4</ele>
        <time>2025-06-08T08:41:22Z</time>
      </trkpt>
      <trkpt lat="43.43023" lon="5.73812">
        <ele>759.5</ele>
        <time>2025-06-08T08:41:29Z</time>
      </trkpt>
      <trkpt lat="43.43023" lon="5.73799">
        <ele>758</ele>
        <time>2025-06-08T08:41:45Z</time>
      </trkpt>
      <trkpt lat="43.43023" lon="5.73799">
        <ele>757.8</ele>
        <time>2025-06-08T08:41:47Z</time>
      </trkpt>
      <trkpt lat="43.43023" lon="5.73799">
        <ele>757.8</ele>
        <time>2025-06-08T08:41:48Z</time>
      </trkpt>
      <trkpt lat="43.43023" lon="5.73798">
        <ele>757.7</ele>
        <time>2025-06-08T08:41:49Z</time>
      </trkpt>
      <trkpt lat="43.43023" lon="5.73798">
        <ele>757.7</ele>
        <time>2025-06-08T08:41:51Z</time>
      </trkpt>
      <trkpt lat="43.43023" lon="5.73798">
        <ele>757.5</ele>
        <time>2025-06-08T08:41:52Z</time>
      </trkpt>
      <trkpt lat="43.43022" lon="5.73798">
        <ele>754.8</ele>
        <time>2025-06-08T08:42:01Z</time>
      </trkpt>
      <trkpt lat="43.43021" lon="5.73798">
        <ele>754.6</ele>
        <time>2025-06-08T08:42:02Z</time>
      </trkpt>
      <trkpt lat="43.43021" lon="5.73798">
        <ele>754</ele>
        <time>2025-06-08T08:42:04Z</time>
      </trkpt>
      <trkpt lat="43.43021" lon="5.73798">
        <ele>753.7</ele>
        <time>2025-06-08T08:42:05Z</time>
      </trkpt>
      <trkpt lat="43.4302" lon="5.73798">
        <ele>751.7</ele>
        <time>2025-06-08T08:42:14Z</time>
      </trkpt>
      <trkpt lat="43.43021" lon="5.73798">
        <ele>751.6</ele>
        <time>2025-06-08T08:42:16Z</time>
      </trkpt>
      <trkpt lat="43.43021" lon="5.73798">
        <ele>751.3</ele>
        <time>2025-06-08T08:42:18Z</time>
      </trkpt>
      <trkpt lat="43.4302" lon="5.73798">
        <ele>751</ele>
        <time>2025-06-08T08:42:19Z</time>
      </trkpt>
      <trkpt lat="43.43019" lon="5.73798">
        <ele>750.1</ele>
        <time>2025-06-08T08:42:23Z</time>
      </trkpt>
      <trkpt lat="43.43019" lon="5.73798">
        <ele>750.1</ele>
        <time>2025-06-08T08:42:24Z</time>
      </trkpt>
      <trkpt lat="43.4301" lon="5.73799">
        <ele>747.1</ele>
        <time>2025-06-08T08:42:46Z</time>
      </trkpt>
      <trkpt lat="43.43007" lon="5.73788">
        <ele>743.9</ele>
        <time>2025-06-08T08:43:21Z</time>
      </trkpt>
      <trkpt lat="43.43007" lon="5.73785">
        <ele>744.2</ele>
        <time>2025-06-08T08:43:25Z</time>
      </trkpt>
      <trkpt lat="43.43007" lon="5.73785">
        <ele>744.2</ele>
        <time>2025-06-08T08:43:26Z</time>
      </trkpt>
      <trkpt lat="43.43005" lon="5.73785">
        <ele>743</ele>
        <time>2025-06-08T08:43:33Z</time>
      </trkpt>
      <trkpt lat="43.43005" lon="5.73785">
        <ele>742.8</ele>
        <time>2025-06-08T08:43:35Z</time>
      </trkpt>
      <trkpt lat="43.43003" lon="5.73785">
        <ele>742.6</ele>
        <time>2025-06-08T08:43:48Z</time>
      </trkpt>
      <trkpt lat="43.43003" lon="5.73784">
        <ele>742.6</ele>
        <time>2025-06-08T08:43:49Z</time>
      </trkpt>
      <trkpt lat="43.43005" lon="5.73772">
        <ele>740.6</ele>
        <time>2025-06-08T08:44:09Z</time>
      </trkpt>
      <trkpt lat="43.43001" lon="5.73766">
        <ele>738.4</ele>
        <time>2025-06-08T08:44:32Z</time>
      </trkpt>
      <trkpt lat="43.43001" lon="5.73766">
        <ele>738.3</ele>
        <time>2025-06-08T08:44:33Z</time>
      </trkpt>
      <trkpt lat="43.42997" lon="5.73767">
        <ele>737.1</ele>
        <time>2025-06-08T08:44:51Z</time>
      </trkpt>
      <trkpt lat="43.42997" lon="5.73767">
        <ele>736.9</ele>
        <time>2025-06-08T08:44:52Z</time>
      </trkpt>
      <trkpt lat="43.42997" lon="5.73767">
        <ele>736.8</ele>
        <time>2025-06-08T08:44:53Z</time>
      </trkpt>
      <trkpt lat="43.42997" lon="5.73768">
        <ele>736.3</ele>
        <time>2025-06-08T08:44:55Z</time>
      </trkpt>
      <trkpt lat="43.42997" lon="5.73768">
        <ele>736.2</ele>
        <time>2025-06-08T08:44:57Z</time>
      </trkpt>
      <trkpt lat="43.42997" lon="5.73769">
        <ele>736.2</ele>
        <time>2025-06-08T08:44:59Z</time>
      </trkpt>
      <trkpt lat="43.42996" lon="5.73769">
        <ele>736.2</ele>
        <time>2025-06-08T08:45:06Z</time>
      </trkpt>
      <trkpt lat="43.42996" lon="5.73769">
        <ele>736.1</ele>
        <time>2025-06-08T08:45:07Z</time>
      </trkpt>
      <trkpt lat="43.42996" lon="5.73769">
        <ele>735.8</ele>
        <time>2025-06-08T08:45:08Z</time>
      </trkpt>
      <trkpt lat="43.42995" lon="5.73769">
        <ele>735.6</ele>
        <time>2025-06-08T08:45:09Z</time>
      </trkpt>
      <trkpt lat="43.4299" lon="5.73772">
        <ele>730.4</ele>
        <time>2025-06-08T08:45:21Z</time>
      </trkpt>
      <trkpt lat="43.42991" lon="5.73771">
        <ele>730.1</ele>
        <time>2025-06-08T08:45:22Z</time>
      </trkpt>
      <trkpt lat="43.42991" lon="5.7377">
        <ele>729.4</ele>
        <time>2025-06-08T08:45:26Z</time>
      </trkpt>
      <trkpt lat="43.42991" lon="5.7377">
        <ele>729.3</ele>
        <time>2025-06-08T08:45:27Z</time>
      </trkpt>
      <trkpt lat="43.42994" lon="5.73768">
        <ele>729.2</ele>
        <time>2025-06-08T08:45:34Z</time>
      </trkpt>
      <trkpt lat="43.42994" lon="5.73768">
        <ele>729.1</ele>
        <time>2025-06-08T08:45:35Z</time>
      </trkpt>
      <trkpt lat="43.42994" lon="5.73768">
        <ele>729.1</ele>
        <time>2025-06-08T08:45:36Z</time>
      </trkpt>
      <trkpt lat="43.42994" lon="5.73767">
        <ele>729.1</ele>
        <time>2025-06-08T08:45:37Z</time>
      </trkpt>
      <trkpt lat="43.42996" lon="5.73764">
        <ele>728.1</ele>
        <time>2025-06-08T08:45:46Z</time>
      </trkpt>
      <trkpt lat="43.42996" lon="5.73764">
        <ele>727.9</ele>
        <time>2025-06-08T08:45:47Z</time>
      </trkpt>
      <trkpt lat="43.42993" lon="5.73752">
        <ele>724.8</ele>
        <time>2025-06-08T08:46:25Z</time>
      </trkpt>
      <trkpt lat="43.42989" lon="5.73743">
        <ele>724.8</ele>
        <time>2025-06-08T08:46:35Z</time>
      </trkpt>
      <trkpt lat="43.42989" lon="5.73743">
        <ele>724.8</ele>
        <time>2025-06-08T08:46:36Z</time>
      </trkpt>
      <trkpt lat="43.42991" lon="5.73738">
        <ele>723.2</ele>
        <time>2025-06-08T08:46:48Z</time>
      </trkpt>
      <trkpt lat="43.42991" lon="5.73738">
        <ele>723</ele>
        <time>2025-06-08T08:46:49Z</time>
      </trkpt>
      <trkpt lat="43.42991" lon="5.73738">
        <ele>722.8</ele>
        <time>2025-06-08T08:46:51Z</time>
      </trkpt>
      <trkpt lat="43.42991" lon="5.73738">
        <ele>722.6</ele>
        <time>2025-06-08T08:46:54Z</time>
      </trkpt>
      <trkpt lat="43.4299" lon="5.73735">
        <ele>721.9</ele>
        <time>2025-06-08T08:47:00Z</time>
      </trkpt>
      <trkpt lat="43.4299" lon="5.73735">
        <ele>721.8</ele>
        <time>2025-06-08T08:47:02Z</time>
      </trkpt>
      <trkpt lat="43.4299" lon="5.73734">
        <ele>722</ele>
        <time>2025-06-08T08:47:03Z</time>
      </trkpt>
      <trkpt lat="43.4299" lon="5.73734">
        <ele>722.1</ele>
        <time>2025-06-08T08:47:04Z</time>
      </trkpt>
      <trkpt lat="43.4299" lon="5.73733">
        <ele>720.9</ele>
        <time>2025-06-08T08:47:16Z</time>
      </trkpt>
      <trkpt lat="43.4299" lon="5.73733">
        <ele>720.7</ele>
        <time>2025-06-08T08:47:17Z</time>
      </trkpt>
      <trkpt lat="43.42984" lon="5.73723">
        <ele>716.8</ele>
        <time>2025-06-08T08:47:46Z</time>
      </trkpt>
      <trkpt lat="43.42985" lon="5.73719">
        <ele>715.2</ele>
        <time>2025-06-08T08:47:56Z</time>
      </trkpt>
      <trkpt lat="43.42985" lon="5.73719">
        <ele>715</ele>
        <time>2025-06-08T08:47:58Z</time>
      </trkpt>
      <trkpt lat="43.42985" lon="5.7371">
        <ele>712.3</ele>
        <time>2025-06-08T08:48:15Z</time>
      </trkpt>
      <trkpt lat="43.42985" lon="5.7371">
        <ele>712.1</ele>
        <time>2025-06-08T08:48:16Z</time>
      </trkpt>
      <trkpt lat="43.4299" lon="5.73706">
        <ele>709</ele>
        <time>2025-06-08T08:48:32Z</time>
      </trkpt>
      <trkpt lat="43.4299" lon="5.73705">
        <ele>709</ele>
        <time>2025-06-08T08:48:33Z</time>
      </trkpt>
      <trkpt lat="43.42992" lon="5.73699">
        <ele>708</ele>
        <time>2025-06-08T08:48:43Z</time>
      </trkpt>
      <trkpt lat="43.42992" lon="5.73699">
        <ele>707.9</ele>
        <time>2025-06-08T08:48:45Z</time>
      </trkpt>
      <trkpt lat="43.42991" lon="5.73688">
        <ele>705.4</ele>
        <time>2025-06-08T08:49:03Z</time>
      </trkpt>
      <trkpt lat="43.42991" lon="5.73688">
        <ele>705.3</ele>
        <time>2025-06-08T08:49:04Z</time>
      </trkpt>
      <trkpt lat="43.42993" lon="5.73689">
        <ele>704.6</ele>
        <time>2025-06-08T08:49:09Z</time>
      </trkpt>
      <trkpt lat="43.42992" lon="5.73689">
        <ele>704.6</ele>
        <time>2025-06-08T08:49:10Z</time>
      </trkpt>
      <trkpt lat="43.42992" lon="5.73689">
        <ele>704.7</ele>
        <time>2025-06-08T08:49:11Z</time>
      </trkpt>
      <trkpt lat="43.42992" lon="5.73689">
        <ele>704.8</ele>
        <time>2025-06-08T08:49:12Z</time>
      </trkpt>
      <trkpt lat="43.42992" lon="5.73689">
        <ele>704.9</ele>
        <time>2025-06-08T08:49:13Z</time>
      </trkpt>
      <trkpt lat="43.42992" lon="5.73689">
        <ele>704.9</ele>
        <time>2025-06-08T08:49:14Z</time>
      </trkpt>
      <trkpt lat="43.42987" lon="5.73678">
        <ele>701</ele>
        <time>2025-06-08T08:49:31Z</time>
      </trkpt>
      <trkpt lat="43.42986" lon="5.73678">
        <ele>700.2</ele>
        <time>2025-06-08T08:49:34Z</time>
      </trkpt>
      <trkpt lat="43.42986" lon="5.73678">
        <ele>699.5</ele>
        <time>2025-06-08T08:49:36Z</time>
      </trkpt>
      <trkpt lat="43.42981" lon="5.73668">
        <ele>696.3</ele>
        <time>2025-06-08T08:49:58Z</time>
      </trkpt>
      <trkpt lat="43.42978" lon="5.73656">
        <ele>693.8</ele>
        <time>2025-06-08T08:50:21Z</time>
      </trkpt>
      <trkpt lat="43.42978" lon="5.73643">
        <ele>692.3</ele>
        <time>2025-06-08T08:50:33Z</time>
      </trkpt>
      <trkpt lat="43.42975" lon="5.7363">
        <ele>689.8</ele>
        <time>2025-06-08T08:50:48Z</time>
      </trkpt>
      <trkpt lat="43.42975" lon="5.7363">
        <ele>689.5</ele>
        <time>2025-06-08T08:50:50Z</time>
      </trkpt>
      <trkpt lat="43.42975" lon="5.7363">
        <ele>689.4</ele>
        <time>2025-06-08T08:50:51Z</time>
      </trkpt>
      <trkpt lat="43.42973" lon="5.73617">
        <ele>686.7</ele>
        <time>2025-06-08T08:51:18Z</time>
      </trkpt>
      <trkpt lat="43.42969" lon="5.73606">
        <ele>685.3</ele>
        <time>2025-06-08T08:51:37Z</time>
      </trkpt>
      <trkpt lat="43.42965" lon="5.73595">
        <ele>682.3</ele>
        <time>2025-06-08T08:51:56Z</time>
      </trkpt>
      <trkpt lat="43.42957" lon="5.73587">
        <ele>679.2</ele>
        <time>2025-06-08T08:52:16Z</time>
      </trkpt>
      <trkpt lat="43.42948" lon="5.7358">
        <ele>676.3</ele>
        <time>2025-06-08T08:52:31Z</time>
      </trkpt>
      <trkpt lat="43.42945" lon="5.73571">
        <ele>671.1</ele>
        <time>2025-06-08T08:52:47Z</time>
      </trkpt>
      <trkpt lat="43.42944" lon="5.73571">
        <ele>670.8</ele>
        <time>2025-06-08T08:52:48Z</time>
      </trkpt>
      <trkpt lat="43.42943" lon="5.73571">
        <ele>670</ele>
        <time>2025-06-08T08:52:52Z</time>
      </trkpt>
      <trkpt lat="43.42943" lon="5.73571">
        <ele>669.9</ele>
        <time>2025-06-08T08:52:53Z</time>
      </trkpt>
      <trkpt lat="43.42937" lon="5.73562">
        <ele>667.5</ele>
        <time>2025-06-08T08:53:07Z</time>
      </trkpt>
      <trkpt lat="43.42928" lon="5.73558">
        <ele>663.8</ele>
        <time>2025-06-08T08:53:20Z</time>
      </trkpt>
      <trkpt lat="43.42923" lon="5.73549">
        <ele>660.9</ele>
        <time>2025-06-08T08:53:32Z</time>
      </trkpt>
      <trkpt lat="43.42923" lon="5.73549">
        <ele>660.5</ele>
        <time>2025-06-08T08:53:33Z</time>
      </trkpt>
      <trkpt lat="43.42914" lon="5.73545">
        <ele>657</ele>
        <time>2025-06-08T08:53:47Z</time>
      </trkpt>
      <trkpt lat="43.42907" lon="5.73537">
        <ele>655.4</ele>
        <time>2025-06-08T08:54:03Z</time>
      </trkpt>
      <trkpt lat="43.42907" lon="5.73533">
        <ele>654.7</ele>
        <time>2025-06-08T08:54:10Z</time>
      </trkpt>
      <trkpt lat="43.42907" lon="5.73533">
        <ele>654.5</ele>
        <time>2025-06-08T08:54:11Z</time>
      </trkpt>
      <trkpt lat="43.42898" lon="5.73527">
        <ele>649.6</ele>
        <time>2025-06-08T08:54:34Z</time>
      </trkpt>
      <trkpt lat="43.4289" lon="5.73522">
        <ele>647.3</ele>
        <time>2025-06-08T08:54:50Z</time>
      </trkpt>
      <trkpt lat="43.42881" lon="5.73517">
        <ele>645.8</ele>
        <time>2025-06-08T08:55:07Z</time>
      </trkpt>
      <trkpt lat="43.42873" lon="5.73511">
        <ele>643.7</ele>
        <time>2025-06-08T08:55:23Z</time>
      </trkpt>
      <trkpt lat="43.42864" lon="5.73507">
        <ele>641.5</ele>
        <time>2025-06-08T08:55:38Z</time>
      </trkpt>
      <trkpt lat="43.42856" lon="5.73502">
        <ele>640.8</ele>
        <time>2025-06-08T08:55:48Z</time>
      </trkpt>
      <trkpt lat="43.42847" lon="5.73496">
        <ele>639.6</ele>
        <time>2025-06-08T08:55:57Z</time>
      </trkpt>
      <trkpt lat="43.4284" lon="5.73488">
        <ele>639</ele>
        <time>2025-06-08T08:56:06Z</time>
      </trkpt>
      <trkpt lat="43.42831" lon="5.73482">
        <ele>637.4</ele>
        <time>2025-06-08T08:56:19Z</time>
      </trkpt>
      <trkpt lat="43.42823" lon="5.73478">
        <ele>635.2</ele>
        <time>2025-06-08T08:56:36Z</time>
      </trkpt>
      <trkpt lat="43.42823" lon="5.73477">
        <ele>635.1</ele>
        <time>2025-06-08T08:56:37Z</time>
      </trkpt>
      <trkpt lat="43.42824" lon="5.73477">
        <ele>635</ele>
        <time>2025-06-08T08:56:39Z</time>
      </trkpt>
      <trkpt lat="43.42823" lon="5.73478">
        <ele>634.9</ele>
        <time>2025-06-08T08:56:44Z</time>
      </trkpt>
      <trkpt lat="43.42823" lon="5.73479">
        <ele>634.6</ele>
        <time>2025-06-08T08:56:47Z</time>
      </trkpt>
      <trkpt lat="43.42823" lon="5.73479">
        <ele>634.6</ele>
        <time>2025-06-08T08:56:59Z</time>
      </trkpt>
      <trkpt lat="43.42823" lon="5.73479">
        <ele>634.7</ele>
        <time>2025-06-08T08:57:00Z</time>
      </trkpt>
      <trkpt lat="43.42823" lon="5.73479">
        <ele>634.6</ele>
        <time>2025-06-08T08:57:01Z</time>
      </trkpt>
      <trkpt lat="43.42823" lon="5.73479">
        <ele>634.8</ele>
        <time>2025-06-08T08:57:02Z</time>
      </trkpt>
      <trkpt lat="43.42823" lon="5.73479">
        <ele>634.8</ele>
        <time>2025-06-08T08:57:03Z</time>
      </trkpt>
      <trkpt lat="43.42824" lon="5.73479">
        <ele>634.8</ele>
        <time>2025-06-08T08:57:09Z</time>
      </trkpt>
      <trkpt lat="43.42824" lon="5.73479">
        <ele>634.9</ele>
        <time>2025-06-08T08:57:10Z</time>
      </trkpt>
      <trkpt lat="43.42824" lon="5.73479">
        <ele>636.4</ele>
        <time>2025-06-08T08:57:18Z</time>
      </trkpt>
      <trkpt lat="43.42824" lon="5.73479">
        <ele>636.4</ele>
        <time>2025-06-08T08:57:26Z</time>
      </trkpt>
      <trkpt lat="43.42824" lon="5.73479">
        <ele>636.4</ele>
        <time>2025-06-08T08:57:27Z</time>
      </trkpt>
      <trkpt lat="43.42824" lon="5.73479">
        <ele>636.2</ele>
        <time>2025-06-08T08:57:30Z</time>
      </trkpt>
      <trkpt lat="43.42824" lon="5.73478">
        <ele>636.2</ele>
        <time>2025-06-08T08:57:32Z</time>
      </trkpt>
      <trkpt lat="43.42824" lon="5.73478">
        <ele>636.3</ele>
        <time>2025-06-08T08:57:34Z</time>
      </trkpt>
      <trkpt lat="43.42825" lon="5.73478">
        <ele>636.6</ele>
        <time>2025-06-08T08:57:37Z</time>
      </trkpt>
      <trkpt lat="43.42824" lon="5.73478">
        <ele>636.3</ele>
        <time>2025-06-08T08:57:38Z</time>
      </trkpt>
      <trkpt lat="43.42824" lon="5.73478">
        <ele>636.1</ele>
        <time>2025-06-08T08:57:39Z</time>
      </trkpt>
      <trkpt lat="43.42824" lon="5.73478">
        <ele>636.1</ele>
        <time>2025-06-08T08:57:49Z</time>
      </trkpt>
      <trkpt lat="43.42824" lon="5.73477">
        <ele>636.4</ele>
        <time>2025-06-08T08:57:53Z</time>
      </trkpt>
      <trkpt lat="43.42824" lon="5.73477">
        <ele>636.3</ele>
        <time>2025-06-08T08:57:54Z</time>
      </trkpt>
      <trkpt lat="43.4282" lon="5.73477">
        <ele>636.1</ele>
        <time>2025-06-08T08:58:12Z</time>
      </trkpt>
      <trkpt lat="43.42821" lon="5.73477">
        <ele>636.2</ele>
        <time>2025-06-08T08:58:13Z</time>
      </trkpt>
      <trkpt lat="43.4282" lon="5.73476">
        <ele>636.6</ele>
        <time>2025-06-08T08:58:18Z</time>
      </trkpt>
      <trkpt lat="43.4282" lon="5.73476">
        <ele>636.6</ele>
        <time>2025-06-08T08:58:19Z</time>
      </trkpt>
      <trkpt lat="43.4282" lon="5.73474">
        <ele>636.2</ele>
        <time>2025-06-08T08:58:28Z</time>
      </trkpt>
      <trkpt lat="43.42821" lon="5.73474">
        <ele>636.1</ele>
        <time>2025-06-08T08:58:29Z</time>
      </trkpt>
      <trkpt lat="43.4282" lon="5.73473">
        <ele>635.8</ele>
        <time>2025-06-08T08:58:34Z</time>
      </trkpt>
      <trkpt lat="43.4282" lon="5.73473">
        <ele>635.7</ele>
        <time>2025-06-08T08:58:35Z</time>
      </trkpt>
      <trkpt lat="43.42821" lon="5.73473">
        <ele>635.7</ele>
        <time>2025-06-08T08:58:44Z</time>
      </trkpt>
      <trkpt lat="43.42821" lon="5.73473">
        <ele>635.7</ele>
        <time>2025-06-08T08:58:45Z</time>
      </trkpt>
      <trkpt lat="43.4282" lon="5.73473">
        <ele>637</ele>
        <time>2025-06-08T08:59:21Z</time>
      </trkpt>
      <trkpt lat="43.4282" lon="5.73473">
        <ele>637</ele>
        <time>2025-06-08T08:59:22Z</time>
      </trkpt>
      <trkpt lat="43.42821" lon="5.73474">
        <ele>637.3</ele>
        <time>2025-06-08T08:59:25Z</time>
      </trkpt>
      <trkpt lat="43.42821" lon="5.73474">
        <ele>637.4</ele>
        <time>2025-06-08T08:59:26Z</time>
      </trkpt>
      <trkpt lat="43.42822" lon="5.73472">
        <ele>636.6</ele>
        <time>2025-06-08T08:59:34Z</time>
      </trkpt>
      <trkpt lat="43.42822" lon="5.73473">
        <ele>636.8</ele>
        <time>2025-06-08T08:59:35Z</time>
      </trkpt>
      <trkpt lat="43.42821" lon="5.73473">
        <ele>636.9</ele>
        <time>2025-06-08T08:59:37Z</time>
      </trkpt>
      <trkpt lat="43.42822" lon="5.73473">
        <ele>636.6</ele>
        <time>2025-06-08T08:59:38Z</time>
      </trkpt>
      <trkpt lat="43.42818" lon="5.73471">
        <ele>637.6</ele>
        <time>2025-06-08T09:00:00Z</time>
      </trkpt>
      <trkpt lat="43.42818" lon="5.73471">
        <ele>637.5</ele>
        <time>2025-06-08T09:00:01Z</time>
      </trkpt>
      <trkpt lat="43.42818" lon="5.73469">
        <ele>636.7</ele>
        <time>2025-06-08T09:00:07Z</time>
      </trkpt>
      <trkpt lat="43.42818" lon="5.73468">
        <ele>636.7</ele>
        <time>2025-06-08T09:00:08Z</time>
      </trkpt>
      <trkpt lat="43.42818" lon="5.73468">
        <ele>636.6</ele>
        <time>2025-06-08T09:00:09Z</time>
      </trkpt>
      <trkpt lat="43.42818" lon="5.73469">
        <ele>636.3</ele>
        <time>2025-06-08T09:00:11Z</time>
      </trkpt>
      <trkpt lat="43.42818" lon="5.7347">
        <ele>635.9</ele>
        <time>2025-06-08T09:00:16Z</time>
      </trkpt>
      <trkpt lat="43.42819" lon="5.7347">
        <ele>635.8</ele>
        <time>2025-06-08T09:00:17Z</time>
      </trkpt>
      <trkpt lat="43.42819" lon="5.7347">
        <ele>635.6</ele>
        <time>2025-06-08T09:00:19Z</time>
      </trkpt>
      <trkpt lat="43.42819" lon="5.73471">
        <ele>635.5</ele>
        <time>2025-06-08T09:00:20Z</time>
      </trkpt>
      <trkpt lat="43.42818" lon="5.73471">
        <ele>635.5</ele>
        <time>2025-06-08T09:00:25Z</time>
      </trkpt>
      <trkpt lat="43.42818" lon="5.73471">
        <ele>635.3</ele>
        <time>2025-06-08T09:00:26Z</time>
      </trkpt>
      <trkpt lat="43.42818" lon="5.73472">
        <ele>635.2</ele>
        <time>2025-06-08T09:00:27Z</time>
      </trkpt>
      <trkpt lat="43.42818" lon="5.73472">
        <ele>635.3</ele>
        <time>2025-06-08T09:00:29Z</time>
      </trkpt>
      <trkpt lat="43.42818" lon="5.73474">
        <ele>635</ele>
        <time>2025-06-08T09:00:35Z</time>
      </trkpt>
      <trkpt lat="43.42818" lon="5.73473">
        <ele>634.9</ele>
        <time>2025-06-08T09:00:36Z</time>
      </trkpt>
      <trkpt lat="43.4282" lon="5.7347">
        <ele>634.6</ele>
        <time>2025-06-08T09:00:47Z</time>
      </trkpt>
      <trkpt lat="43.4282" lon="5.73469">
        <ele>634.6</ele>
        <time>2025-06-08T09:00:49Z</time>
      </trkpt>
      <trkpt lat="43.42816" lon="5.7347">
        <ele>634.9</ele>
        <time>2025-06-08T09:01:07Z</time>
      </trkpt>
      <trkpt lat="43.42816" lon="5.7347">
        <ele>635</ele>
        <time>2025-06-08T09:01:08Z</time>
      </trkpt>
      <trkpt lat="43.42816" lon="5.73469">
        <ele>635</ele>
        <time>2025-06-08T09:01:12Z</time>
      </trkpt>
      <trkpt lat="43.42816" lon="5.7347">
        <ele>635.1</ele>
        <time>2025-06-08T09:01:13Z</time>
      </trkpt>
      <trkpt lat="43.42815" lon="5.73472">
        <ele>635.6</ele>
        <time>2025-06-08T09:01:16Z</time>
      </trkpt>
      <trkpt lat="43.42816" lon="5.73471">
        <ele>635.5</ele>
        <time>2025-06-08T09:01:17Z</time>
      </trkpt>
      <trkpt lat="43.42817" lon="5.73471">
        <ele>635.5</ele>
        <time>2025-06-08T09:01:21Z</time>
      </trkpt>
      <trkpt lat="43.42817" lon="5.73471">
        <ele>635.6</ele>
        <time>2025-06-08T09:01:22Z</time>
      </trkpt>
      <trkpt lat="43.42818" lon="5.73471">
        <ele>635.5</ele>
        <time>2025-06-08T09:01:29Z</time>
      </trkpt>
      <trkpt lat="43.42817" lon="5.73471">
        <ele>635.4</ele>
        <time>2025-06-08T09:01:31Z</time>
      </trkpt>
      <trkpt lat="43.42818" lon="5.73469">
        <ele>635</ele>
        <time>2025-06-08T09:01:40Z</time>
      </trkpt>
      <trkpt lat="43.42818" lon="5.73469">
        <ele>635.1</ele>
        <time>2025-06-08T09:01:42Z</time>
      </trkpt>
      <trkpt lat="43.42817" lon="5.73469">
        <ele>635.5</ele>
        <time>2025-06-08T09:01:48Z</time>
      </trkpt>
      <trkpt lat="43.42817" lon="5.7347">
        <ele>635.4</ele>
        <time>2025-06-08T09:01:49Z</time>
      </trkpt>
      <trkpt lat="43.42817" lon="5.73469">
        <ele>635.4</ele>
        <time>2025-06-08T09:01:59Z</time>
      </trkpt>
      <trkpt lat="43.42817" lon="5.73469">
        <ele>636.2</ele>
        <time>2025-06-08T09:02:03Z</time>
      </trkpt>
      <trkpt lat="43.42817" lon="5.73467">
        <ele>636.8</ele>
        <time>2025-06-08T09:02:13Z</time>
      </trkpt>
      <trkpt lat="43.42817" lon="5.73468">
        <ele>636.8</ele>
        <time>2025-06-08T09:02:14Z</time>
      </trkpt>
      <trkpt lat="43.42818" lon="5.73466">
        <ele>636.6</ele>
        <time>2025-06-08T09:02:20Z</time>
      </trkpt>
      <trkpt lat="43.42817" lon="5.73466">
        <ele>636.5</ele>
        <time>2025-06-08T09:02:21Z</time>
      </trkpt>
      <trkpt lat="43.42817" lon="5.73466">
        <ele>636.6</ele>
        <time>2025-06-08T09:02:22Z</time>
      </trkpt>
      <trkpt lat="43.42818" lon="5.73465">
        <ele>636.7</ele>
        <time>2025-06-08T09:02:23Z</time>
      </trkpt>
      <trkpt lat="43.42818" lon="5.73466">
        <ele>636.7</ele>
        <time>2025-06-08T09:02:27Z</time>
      </trkpt>
      <trkpt lat="43.42818" lon="5.73467">
        <ele>636.7</ele>
        <time>2025-06-08T09:02:29Z</time>
      </trkpt>
      <trkpt lat="43.42818" lon="5.73468">
        <ele>637.1</ele>
        <time>2025-06-08T09:02:32Z</time>
      </trkpt>
      <trkpt lat="43.42818" lon="5.73468">
        <ele>637.3</ele>
        <time>2025-06-08T09:02:34Z</time>
      </trkpt>
      <trkpt lat="43.42818" lon="5.73467">
        <ele>637</ele>
        <time>2025-06-08T09:02:38Z</time>
      </trkpt>
      <trkpt lat="43.42819" lon="5.73467">
        <ele>637.1</ele>
        <time>2025-06-08T09:02:39Z</time>
      </trkpt>
      <trkpt lat="43.42817" lon="5.73468">
        <ele>637.1</ele>
        <time>2025-06-08T09:02:47Z</time>
      </trkpt>
      <trkpt lat="43.42817" lon="5.73468">
        <ele>637.1</ele>
        <time>2025-06-08T09:02:52Z</time>
      </trkpt>
      <trkpt lat="43.42817" lon="5.73468">
        <ele>637.1</ele>
        <time>2025-06-08T09:02:53Z</time>
      </trkpt>
      <trkpt lat="43.42817" lon="5.73468">
        <ele>637</ele>
        <time>2025-06-08T09:02:54Z</time>
      </trkpt>
      <trkpt lat="43.42817" lon="5.73468">
        <ele>637.2</ele>
        <time>2025-06-08T09:02:55Z</time>
      </trkpt>
      <trkpt lat="43.42817" lon="5.73468">
        <ele>637.2</ele>
        <time>2025-06-08T09:02:56Z</time>
      </trkpt>
      <trkpt lat="43.42817" lon="5.73468">
        <ele>637.2</ele>
        <time>2025-06-08T09:02:58Z</time>
      </trkpt>
      <trkpt lat="43.42817" lon="5.73468">
        <ele>637.2</ele>
        <time>2025-06-08T09:03:00Z</time>
      </trkpt>
      <trkpt lat="43.42817" lon="5.73469">
        <ele>637.2</ele>
        <time>2025-06-08T09:03:03Z</time>
      </trkpt>
      <trkpt lat="43.42817" lon="5.73469">
        <ele>637.3</ele>
        <time>2025-06-08T09:03:04Z</time>
      </trkpt>
      <trkpt lat="43.42817" lon="5.73469">
        <ele>637.1</ele>
        <time>2025-06-08T09:03:06Z</time>
      </trkpt>
      <trkpt lat="43.42817" lon="5.73469">
        <ele>636.9</ele>
        <time>2025-06-08T09:03:09Z</time>
      </trkpt>
      <trkpt lat="43.42818" lon="5.73468">
        <ele>636.5</ele>
        <time>2025-06-08T09:03:13Z</time>
      </trkpt>
      <trkpt lat="43.42818" lon="5.73469">
        <ele>636.5</ele>
        <time>2025-06-08T09:03:15Z</time>
      </trkpt>
      <trkpt lat="43.42819" lon="5.73469">
        <ele>635.5</ele>
        <time>2025-06-08T09:03:26Z</time>
      </trkpt>
      <trkpt lat="43.42819" lon="5.73469">
        <ele>635.4</ele>
        <time>2025-06-08T09:03:27Z</time>
      </trkpt>
      <trkpt lat="43.42818" lon="5.73468">
        <ele>635.3</ele>
        <time>2025-06-08T09:03:32Z</time>
      </trkpt>
      <trkpt lat="43.42819" lon="5.73469">
        <ele>635.3</ele>
        <time>2025-06-08T09:03:34Z</time>
      </trkpt>
      <trkpt lat="43.42819" lon="5.73469">
        <ele>635.3</ele>
        <time>2025-06-08T09:03:35Z</time>
      </trkpt>
      <trkpt lat="43.42819" lon="5.73468">
        <ele>635.3</ele>
        <time>2025-06-08T09:03:37Z</time>
      </trkpt>
      <trkpt lat="43.42819" lon="5.73465">
        <ele>635.3</ele>
        <time>2025-06-08T09:03:46Z</time>
      </trkpt>
      <trkpt lat="43.42819" lon="5.73465">
        <ele>635.2</ele>
        <time>2025-06-08T09:03:47Z</time>
      </trkpt>
      <trkpt lat="43.4282" lon="5.73464">
        <ele>635.1</ele>
        <time>2025-06-08T09:03:52Z</time>
      </trkpt>
      <trkpt lat="43.4282" lon="5.73464">
        <ele>635.3</ele>
        <time>2025-06-08T09:03:54Z</time>
      </trkpt>
      <trkpt lat="43.4282" lon="5.73464">
        <ele>635.4</ele>
        <time>2025-06-08T09:03:56Z</time>
      </trkpt>
      <trkpt lat="43.4282" lon="5.73464">
        <ele>635.4</ele>
        <time>2025-06-08T09:03:57Z</time>
      </trkpt>
      <trkpt lat="43.4282" lon="5.73466">
        <ele>635.6</ele>
        <time>2025-06-08T09:04:01Z</time>
      </trkpt>
      <trkpt lat="43.4282" lon="5.73466">
        <ele>635.6</ele>
        <time>2025-06-08T09:04:02Z</time>
      </trkpt>
      <trkpt lat="43.4282" lon="5.73466">
        <ele>635.6</ele>
        <time>2025-06-08T09:04:03Z</time>
      </trkpt>
      <trkpt lat="43.4282" lon="5.73466">
        <ele>635.6</ele>
        <time>2025-06-08T09:04:04Z</time>
      </trkpt>
      <trkpt lat="43.4282" lon="5.73466">
        <ele>635.6</ele>
        <time>2025-06-08T09:04:05Z</time>
      </trkpt>
      <trkpt lat="43.42819" lon="5.73465">
        <ele>635.5</ele>
        <time>2025-06-08T09:04:07Z</time>
      </trkpt>
      <trkpt lat="43.4282" lon="5.73468">
        <ele>635.8</ele>
        <time>2025-06-08T09:04:18Z</time>
      </trkpt>
      <trkpt lat="43.4282" lon="5.73468">
        <ele>636</ele>
        <time>2025-06-08T09:04:20Z</time>
      </trkpt>
      <trkpt lat="43.4282" lon="5.73469">
        <ele>636.1</ele>
        <time>2025-06-08T09:04:24Z</time>
      </trkpt>
      <trkpt lat="43.4282" lon="5.73469">
        <ele>636.1</ele>
        <time>2025-06-08T09:04:25Z</time>
      </trkpt>
      <trkpt lat="43.4282" lon="5.73468">
        <ele>636</ele>
        <time>2025-06-08T09:04:27Z</time>
      </trkpt>
      <trkpt lat="43.42819" lon="5.73469">
        <ele>636.2</ele>
        <time>2025-06-08T09:04:28Z</time>
      </trkpt>
      <trkpt lat="43.42819" lon="5.73469">
        <ele>636.6</ele>
        <time>2025-06-08T09:04:32Z</time>
      </trkpt>
      <trkpt lat="43.42819" lon="5.73469">
        <ele>636.6</ele>
        <time>2025-06-08T09:04:34Z</time>
      </trkpt>
      <trkpt lat="43.42819" lon="5.73469">
        <ele>636.5</ele>
        <time>2025-06-08T09:04:35Z</time>
      </trkpt>
      <trkpt lat="43.42819" lon="5.73469">
        <ele>636.4</ele>
        <time>2025-06-08T09:04:36Z</time>
      </trkpt>
      <trkpt lat="43.42819" lon="5.73471">
        <ele>635.9</ele>
        <time>2025-06-08T09:04:45Z</time>
      </trkpt>
      <trkpt lat="43.42819" lon="5.7347">
        <ele>636</ele>
        <time>2025-06-08T09:04:46Z</time>
      </trkpt>
      <trkpt lat="43.42819" lon="5.7347">
        <ele>635.7</ele>
        <time>2025-06-08T09:04:49Z</time>
      </trkpt>
      <trkpt lat="43.42819" lon="5.7347">
        <ele>635.6</ele>
        <time>2025-06-08T09:04:50Z</time>
      </trkpt>
      <trkpt lat="43.42819" lon="5.73471">
        <ele>635.2</ele>
        <time>2025-06-08T09:04:57Z</time>
      </trkpt>
      <trkpt lat="43.42818" lon="5.73471">
        <ele>635.4</ele>
        <time>2025-06-08T09:04:58Z</time>
      </trkpt>
      <trkpt lat="43.42819" lon="5.73473">
        <ele>636.5</ele>
        <time>2025-06-08T09:05:13Z</time>
      </trkpt>
      <trkpt lat="43.42819" lon="5.73473">
        <ele>636.5</ele>
        <time>2025-06-08T09:05:14Z</time>
      </trkpt>
      <trkpt lat="43.42818" lon="5.73467">
        <ele>635.2</ele>
        <time>2025-06-08T09:05:27Z</time>
      </trkpt>
      <trkpt lat="43.42818" lon="5.73468">
        <ele>635.1</ele>
        <time>2025-06-08T09:05:28Z</time>
      </trkpt>
      <trkpt lat="43.42818" lon="5.73468">
        <ele>635.1</ele>
        <time>2025-06-08T09:05:29Z</time>
      </trkpt>
      <trkpt lat="43.42818" lon="5.73467">
        <ele>635.3</ele>
        <time>2025-06-08T09:05:30Z</time>
      </trkpt>
      <trkpt lat="43.4281" lon="5.73462">
        <ele>637.1</ele>
        <time>2025-06-08T09:05:45Z</time>
      </trkpt>
      <trkpt lat="43.42804" lon="5.73452">
        <ele>638.3</ele>
        <time>2025-06-08T09:05:59Z</time>
      </trkpt>
      <trkpt lat="43.42803" lon="5.73448">
        <ele>639.5</ele>
        <time>2025-06-08T09:06:09Z</time>
      </trkpt>
      <trkpt lat="43.42803" lon="5.73448">
        <ele>639.4</ele>
        <time>2025-06-08T09:06:10Z</time>
      </trkpt>
      <trkpt lat="43.42803" lon="5.73445">
        <ele>639.7</ele>
        <time>2025-06-08T09:06:16Z</time>
      </trkpt>
      <trkpt lat="43.42802" lon="5.73446">
        <ele>639.8</ele>
        <time>2025-06-08T09:06:17Z</time>
      </trkpt>
      <trkpt lat="43.42804" lon="5.73433">
        <ele>640.2</ele>
        <time>2025-06-08T09:06:31Z</time>
      </trkpt>
      <trkpt lat="43.42806" lon="5.7342">
        <ele>640.2</ele>
        <time>2025-06-08T09:06:44Z</time>
      </trkpt>
      <trkpt lat="43.42805" lon="5.73414">
        <ele>640.3</ele>
        <time>2025-06-08T09:06:52Z</time>
      </trkpt>
      <trkpt lat="43.42805" lon="5.73414">
        <ele>640.2</ele>
        <time>2025-06-08T09:06:53Z</time>
      </trkpt>
      <trkpt lat="43.42805" lon="5.73413">
        <ele>640</ele>
        <time>2025-06-08T09:06:55Z</time>
      </trkpt>
      <trkpt lat="43.42806" lon="5.73414">
        <ele>640</ele>
        <time>2025-06-08T09:06:56Z</time>
      </trkpt>
      <trkpt lat="43.42809" lon="5.73407">
        <ele>639.2</ele>
        <time>2025-06-08T09:07:10Z</time>
      </trkpt>
      <trkpt lat="43.42809" lon="5.73407">
        <ele>639</ele>
        <time>2025-06-08T09:07:11Z</time>
      </trkpt>
      <trkpt lat="43.42799" lon="5.73409">
        <ele>637</ele>
        <time>2025-06-08T09:07:31Z</time>
      </trkpt>
      <trkpt lat="43.42795" lon="5.73406">
        <ele>636.2</ele>
        <time>2025-06-08T09:07:39Z</time>
      </trkpt>
      <trkpt lat="43.42796" lon="5.73406">
        <ele>636.2</ele>
        <time>2025-06-08T09:07:46Z</time>
      </trkpt>
      <trkpt lat="43.42796" lon="5.73407">
        <ele>635.6</ele>
        <time>2025-06-08T09:07:49Z</time>
      </trkpt>
      <trkpt lat="43.42796" lon="5.73405">
        <ele>635.2</ele>
        <time>2025-06-08T09:07:50Z</time>
      </trkpt>
      <trkpt lat="43.42795" lon="5.73402">
        <ele>633.5</ele>
        <time>2025-06-08T09:07:56Z</time>
      </trkpt>
      <trkpt lat="43.42795" lon="5.73402">
        <ele>632.9</ele>
        <time>2025-06-08T09:07:57Z</time>
      </trkpt>
      <trkpt lat="43.42798" lon="5.73414">
        <ele>631</ele>
        <time>2025-06-08T09:08:13Z</time>
      </trkpt>
      <trkpt lat="43.42801" lon="5.73426">
        <ele>632.9</ele>
        <time>2025-06-08T09:08:29Z</time>
      </trkpt>
      <trkpt lat="43.42801" lon="5.73426">
        <ele>633.1</ele>
        <time>2025-06-08T09:08:31Z</time>
      </trkpt>
      <trkpt lat="43.42797" lon="5.73438">
        <ele>634.6</ele>
        <time>2025-06-08T09:08:43Z</time>
      </trkpt>
      <trkpt lat="43.42792" lon="5.73442">
        <ele>635.5</ele>
        <time>2025-06-08T09:08:58Z</time>
      </trkpt>
      <trkpt lat="43.42791" lon="5.73442">
        <ele>635.5</ele>
        <time>2025-06-08T09:08:59Z</time>
      </trkpt>
      <trkpt lat="43.42782" lon="5.73439">
        <ele>634.8</ele>
        <time>2025-06-08T09:09:17Z</time>
      </trkpt>
      <trkpt lat="43.42773" lon="5.73437">
        <ele>633.8</ele>
        <time>2025-06-08T09:09:30Z</time>
      </trkpt>
      <trkpt lat="43.42772" lon="5.73436">
        <ele>633.7</ele>
        <time>2025-06-08T09:09:33Z</time>
      </trkpt>
      <trkpt lat="43.42772" lon="5.73436">
        <ele>633.6</ele>
        <time>2025-06-08T09:09:34Z</time>
      </trkpt>
      <trkpt lat="43.42763" lon="5.73433">
        <ele>631.9</ele>
        <time>2025-06-08T09:09:47Z</time>
      </trkpt>
      <trkpt lat="43.42754" lon="5.73429">
        <ele>630</ele>
        <time>2025-06-08T09:10:02Z</time>
      </trkpt>
      <trkpt lat="43.42753" lon="5.73426">
        <ele>629.1</ele>
        <time>2025-06-08T09:10:07Z</time>
      </trkpt>
      <trkpt lat="43.42753" lon="5.73425">
        <ele>628.8</ele>
        <time>2025-06-08T09:10:08Z</time>
      </trkpt>
      <trkpt lat="43.42753" lon="5.73424">
        <ele>628.4</ele>
        <time>2025-06-08T09:10:11Z</time>
      </trkpt>
      <trkpt lat="43.42753" lon="5.73424">
        <ele>628.3</ele>
        <time>2025-06-08T09:10:13Z</time>
      </trkpt>
      <trkpt lat="43.42751" lon="5.73416">
        <ele>625</ele>
        <time>2025-06-08T09:10:28Z</time>
      </trkpt>
      <trkpt lat="43.4275" lon="5.73416">
        <ele>624.9</ele>
        <time>2025-06-08T09:10:29Z</time>
      </trkpt>
      <trkpt lat="43.42749" lon="5.73412">
        <ele>624</ele>
        <time>2025-06-08T09:10:37Z</time>
      </trkpt>
      <trkpt lat="43.42749" lon="5.73412">
        <ele>624</ele>
        <time>2025-06-08T09:10:38Z</time>
      </trkpt>
      <trkpt lat="43.42742" lon="5.73403">
        <ele>622.7</ele>
        <time>2025-06-08T09:10:49Z</time>
      </trkpt>
      <trkpt lat="43.42735" lon="5.73395">
        <ele>622.1</ele>
        <time>2025-06-08T09:10:59Z</time>
      </trkpt>
      <trkpt lat="43.42731" lon="5.73383">
        <ele>618.6</ele>
        <time>2025-06-08T09:11:16Z</time>
      </trkpt>
      <trkpt lat="43.42724" lon="5.73374">
        <ele>616.6</ele>
        <time>2025-06-08T09:11:26Z</time>
      </trkpt>
      <trkpt lat="43.42719" lon="5.73364">
        <ele>615.6</ele>
        <time>2025-06-08T09:11:35Z</time>
      </trkpt>
      <trkpt lat="43.42712" lon="5.73355">
        <ele>614.1</ele>
        <time>2025-06-08T09:11:43Z</time>
      </trkpt>
      <trkpt lat="43.42706" lon="5.73344">
        <ele>612.6</ele>
        <time>2025-06-08T09:11:51Z</time>
      </trkpt>
      <trkpt lat="43.42699" lon="5.73335">
        <ele>611.1</ele>
        <time>2025-06-08T09:12:00Z</time>
      </trkpt>
      <trkpt lat="43.42692" lon="5.73325">
        <ele>608.7</ele>
        <time>2025-06-08T09:12:09Z</time>
      </trkpt>
      <trkpt lat="43.42684" lon="5.73319">
        <ele>607.8</ele>
        <time>2025-06-08T09:12:17Z</time>
      </trkpt>
      <trkpt lat="43.42675" lon="5.73316">
        <ele>606.6</ele>
        <time>2025-06-08T09:12:30Z</time>
      </trkpt>
      <trkpt lat="43.42669" lon="5.73306">
        <ele>606.3</ele>
        <time>2025-06-08T09:12:41Z</time>
      </trkpt>
      <trkpt lat="43.4266" lon="5.733">
        <ele>600.1</ele>
        <time>2025-06-08T09:13:02Z</time>
      </trkpt>
      <trkpt lat="43.42655" lon="5.7329">
        <ele>597.1</ele>
        <time>2025-06-08T09:13:17Z</time>
      </trkpt>
      <trkpt lat="43.4265" lon="5.73286">
        <ele>597.1</ele>
        <time>2025-06-08T09:13:31Z</time>
      </trkpt>
      <trkpt lat="43.42649" lon="5.73287">
        <ele>597</ele>
        <time>2025-06-08T09:13:32Z</time>
      </trkpt>
      <trkpt lat="43.42649" lon="5.73289">
        <ele>596.3</ele>
        <time>2025-06-08T09:13:36Z</time>
      </trkpt>
      <trkpt lat="43.4265" lon="5.73289">
        <ele>596.3</ele>
        <time>2025-06-08T09:13:37Z</time>
      </trkpt>
      <trkpt lat="43.4265" lon="5.73292">
        <ele>598.8</ele>
        <time>2025-06-08T09:14:04Z</time>
      </trkpt>
      <trkpt lat="43.4265" lon="5.73292">
        <ele>598.8</ele>
        <time>2025-06-08T09:14:07Z</time>
      </trkpt>
      <trkpt lat="43.4265" lon="5.73292">
        <ele>598.8</ele>
        <time>2025-06-08T09:14:08Z</time>
      </trkpt>
      <trkpt lat="43.42649" lon="5.73292">
        <ele>598.8</ele>
        <time>2025-06-08T09:14:11Z</time>
      </trkpt>
      <trkpt lat="43.42649" lon="5.73292">
        <ele>598.8</ele>
        <time>2025-06-08T09:14:13Z</time>
      </trkpt>
      <trkpt lat="43.42649" lon="5.73292">
        <ele>598.7</ele>
        <time>2025-06-08T09:14:21Z</time>
      </trkpt>
      <trkpt lat="43.42649" lon="5.73292">
        <ele>598.9</ele>
        <time>2025-06-08T09:14:24Z</time>
      </trkpt>
      <trkpt lat="43.42649" lon="5.73292">
        <ele>598.9</ele>
        <time>2025-06-08T09:14:37Z</time>
      </trkpt>
      <trkpt lat="43.42649" lon="5.73292">
        <ele>598.9</ele>
        <time>2025-06-08T09:14:38Z</time>
      </trkpt>
      <trkpt lat="43.42649" lon="5.73292">
        <ele>599</ele>
        <time>2025-06-08T09:14:46Z</time>
      </trkpt>
      <trkpt lat="43.42649" lon="5.73292">
        <ele>599.2</ele>
        <time>2025-06-08T09:14:48Z</time>
      </trkpt>
      <trkpt lat="43.42649" lon="5.73292">
        <ele>599.1</ele>
        <time>2025-06-08T09:14:49Z</time>
      </trkpt>
      <trkpt lat="43.42648" lon="5.73292">
        <ele>599.1</ele>
        <time>2025-06-08T09:14:54Z</time>
      </trkpt>
      <trkpt lat="43.42648" lon="5.73292">
        <ele>599.2</ele>
        <time>2025-06-08T09:14:55Z</time>
      </trkpt>
      <trkpt lat="43.42647" lon="5.73291">
        <ele>599.8</ele>
        <time>2025-06-08T09:15:00Z</time>
      </trkpt>
      <trkpt lat="43.42647" lon="5.73291">
        <ele>599.9</ele>
        <time>2025-06-08T09:15:02Z</time>
      </trkpt>
      <trkpt lat="43.42646" lon="5.73291">
        <ele>600.2</ele>
        <time>2025-06-08T09:15:05Z</time>
      </trkpt>
      <trkpt lat="43.42646" lon="5.73292">
        <ele>600.3</ele>
        <time>2025-06-08T09:15:12Z</time>
      </trkpt>
      <trkpt lat="43.42646" lon="5.73292">
        <ele>600.3</ele>
        <time>2025-06-08T09:15:14Z</time>
      </trkpt>
      <trkpt lat="43.42646" lon="5.73292">
        <ele>600.3</ele>
        <time>2025-06-08T09:15:18Z</time>
      </trkpt>
      <trkpt lat="43.42645" lon="5.73293">
        <ele>600.1</ele>
        <time>2025-06-08T09:15:23Z</time>
      </trkpt>
      <trkpt lat="43.42646" lon="5.73293">
        <ele>600</ele>
        <time>2025-06-08T09:15:24Z</time>
      </trkpt>
      <trkpt lat="43.42646" lon="5.73293">
        <ele>600</ele>
        <time>2025-06-08T09:15:26Z</time>
      </trkpt>
      <trkpt lat="43.42646" lon="5.73293">
        <ele>600.1</ele>
        <time>2025-06-08T09:15:28Z</time>
      </trkpt>
      <trkpt lat="43.42646" lon="5.73293">
        <ele>600.1</ele>
        <time>2025-06-08T09:15:29Z</time>
      </trkpt>
      <trkpt lat="43.42646" lon="5.73293">
        <ele>600.2</ele>
        <time>2025-06-08T09:15:33Z</time>
      </trkpt>
      <trkpt lat="43.42646" lon="5.73293">
        <ele>600.2</ele>
        <time>2025-06-08T09:15:34Z</time>
      </trkpt>
      <trkpt lat="43.42646" lon="5.73293">
        <ele>600.2</ele>
        <time>2025-06-08T09:15:37Z</time>
      </trkpt>
      <trkpt lat="43.42646" lon="5.73293">
        <ele>600.2</ele>
        <time>2025-06-08T09:15:39Z</time>
      </trkpt>
      <trkpt lat="43.42646" lon="5.73293">
        <ele>600.1</ele>
        <time>2025-06-08T09:15:58Z</time>
      </trkpt>
      <trkpt lat="43.42646" lon="5.73294">
        <ele>600.1</ele>
        <time>2025-06-08T09:15:59Z</time>
      </trkpt>
      <trkpt lat="43.42646" lon="5.73294">
        <ele>600.1</ele>
        <time>2025-06-08T09:16:02Z</time>
      </trkpt>
      <trkpt lat="43.42645" lon="5.73294">
        <ele>600.3</ele>
        <time>2025-06-08T09:16:06Z</time>
      </trkpt>
      <trkpt lat="43.42645" lon="5.73294">
        <ele>600.2</ele>
        <time>2025-06-08T09:16:09Z</time>
      </trkpt>
      <trkpt lat="43.42643" lon="5.73295">
        <ele>599.5</ele>
        <time>2025-06-08T09:16:14Z</time>
      </trkpt>
      <trkpt lat="43.42643" lon="5.73295">
        <ele>599.5</ele>
        <time>2025-06-08T09:16:15Z</time>
      </trkpt>
      <trkpt lat="43.42643" lon="5.73295">
        <ele>599.5</ele>
        <time>2025-06-08T09:16:16Z</time>
      </trkpt>
      <trkpt lat="43.42643" lon="5.73295">
        <ele>599.4</ele>
        <time>2025-06-08T09:16:20Z</time>
      </trkpt>
      <trkpt lat="43.42643" lon="5.73295">
        <ele>599.4</ele>
        <time>2025-06-08T09:16:21Z</time>
      </trkpt>
      <trkpt lat="43.42643" lon="5.73296">
        <ele>599.4</ele>
        <time>2025-06-08T09:16:23Z</time>
      </trkpt>
      <trkpt lat="43.42643" lon="5.73296">
        <ele>599.4</ele>
        <time>2025-06-08T09:16:24Z</time>
      </trkpt>
      <trkpt lat="43.42643" lon="5.73296">
        <ele>599.4</ele>
        <time>2025-06-08T09:16:26Z</time>
      </trkpt>
      <trkpt lat="43.42644" lon="5.73295">
        <ele>599.4</ele>
        <time>2025-06-08T09:16:31Z</time>
      </trkpt>
      <trkpt lat="43.42644" lon="5.73295">
        <ele>599.4</ele>
        <time>2025-06-08T09:16:32Z</time>
      </trkpt>
      <trkpt lat="43.42644" lon="5.73295">
        <ele>599.5</ele>
        <time>2025-06-08T09:16:33Z</time>
      </trkpt>
      <trkpt lat="43.42644" lon="5.73294">
        <ele>599.5</ele>
        <time>2025-06-08T09:16:34Z</time>
      </trkpt>
      <trkpt lat="43.42645" lon="5.73294">
        <ele>599.3</ele>
        <time>2025-06-08T09:16:41Z</time>
      </trkpt>
      <trkpt lat="43.42645" lon="5.73294">
        <ele>599.3</ele>
        <time>2025-06-08T09:16:43Z</time>
      </trkpt>
      <trkpt lat="43.42645" lon="5.73294">
        <ele>599.2</ele>
        <time>2025-06-08T09:16:44Z</time>
      </trkpt>
      <trkpt lat="43.42645" lon="5.73294">
        <ele>599.3</ele>
        <time>2025-06-08T09:16:46Z</time>
      </trkpt>
      <trkpt lat="43.42645" lon="5.73294">
        <ele>599.3</ele>
        <time>2025-06-08T09:16:47Z</time>
      </trkpt>
      <trkpt lat="43.42645" lon="5.73293">
        <ele>599.3</ele>
        <time>2025-06-08T09:17:10Z</time>
      </trkpt>
      <trkpt lat="43.42645" lon="5.73293">
        <ele>599.5</ele>
        <time>2025-06-08T09:17:12Z</time>
      </trkpt>
      <trkpt lat="43.42645" lon="5.73292">
        <ele>599.5</ele>
        <time>2025-06-08T09:17:16Z</time>
      </trkpt>
      <trkpt lat="43.42645" lon="5.73292">
        <ele>599.6</ele>
        <time>2025-06-08T09:17:17Z</time>
      </trkpt>
      <trkpt lat="43.42645" lon="5.73292">
        <ele>599.8</ele>
        <time>2025-06-08T09:17:19Z</time>
      </trkpt>
      <trkpt lat="43.42646" lon="5.73291">
        <ele>601</ele>
        <time>2025-06-08T09:17:27Z</time>
      </trkpt>
      <trkpt lat="43.42646" lon="5.7329">
        <ele>601.3</ele>
        <time>2025-06-08T09:17:44Z</time>
      </trkpt>
      <trkpt lat="43.42638" lon="5.73283">
        <ele>598.9</ele>
        <time>2025-06-08T09:17:58Z</time>
      </trkpt>
      <trkpt lat="43.42629" lon="5.7328">
        <ele>597.5</ele>
        <time>2025-06-08T09:18:06Z</time>
      </trkpt>
      <trkpt lat="43.42619" lon="5.73277">
        <ele>597</ele>
        <time>2025-06-08T09:18:14Z</time>
      </trkpt>
      <trkpt lat="43.42609" lon="5.73275">
        <ele>597.5</ele>
        <time>2025-06-08T09:18:24Z</time>
      </trkpt>
      <trkpt lat="43.426" lon="5.7327">
        <ele>597.9</ele>
        <time>2025-06-08T09:18:36Z</time>
      </trkpt>
      <trkpt lat="43.42595" lon="5.73259">
        <ele>597.3</ele>
        <time>2025-06-08T09:18:46Z</time>
      </trkpt>
      <trkpt lat="43.4259" lon="5.73247">
        <ele>597</ele>
        <time>2025-06-08T09:18:55Z</time>
      </trkpt>
      <trkpt lat="43.42583" lon="5.73237">
        <ele>596.6</ele>
        <time>2025-06-08T09:19:01Z</time>
      </trkpt>
      <trkpt lat="43.42578" lon="5.73226">
        <ele>596.3</ele>
        <time>2025-06-08T09:19:07Z</time>
      </trkpt>
      <trkpt lat="43.42572" lon="5.73216">
        <ele>596.3</ele>
        <time>2025-06-08T09:19:17Z</time>
      </trkpt>
      <trkpt lat="43.42566" lon="5.73206">
        <ele>596.4</ele>
        <time>2025-06-08T09:19:24Z</time>
      </trkpt>
      <trkpt lat="43.42561" lon="5.73196">
        <ele>595.6</ele>
        <time>2025-06-08T09:19:31Z</time>
      </trkpt>
      <trkpt lat="43.42556" lon="5.73185">
        <ele>595.2</ele>
        <time>2025-06-08T09:19:39Z</time>
      </trkpt>
      <trkpt lat="43.42553" lon="5.73172">
        <ele>594.7</ele>
        <time>2025-06-08T09:19:49Z</time>
      </trkpt>
      <trkpt lat="43.4255" lon="5.73159">
        <ele>595.2</ele>
        <time>2025-06-08T09:19:57Z</time>
      </trkpt>
      <trkpt lat="43.42546" lon="5.73148">
        <ele>595.1</ele>
        <time>2025-06-08T09:20:05Z</time>
      </trkpt>
      <trkpt lat="43.42543" lon="5.73134">
        <ele>595.2</ele>
        <time>2025-06-08T09:20:13Z</time>
      </trkpt>
      <trkpt lat="43.42541" lon="5.7312">
        <ele>595</ele>
        <time>2025-06-08T09:20:21Z</time>
      </trkpt>
      <trkpt lat="43.4254" lon="5.73106">
        <ele>594.8</ele>
        <time>2025-06-08T09:20:31Z</time>
      </trkpt>
      <trkpt lat="43.42541" lon="5.73094">
        <ele>594.7</ele>
        <time>2025-06-08T09:20:40Z</time>
      </trkpt>
      <trkpt lat="43.42542" lon="5.73081">
        <ele>594.7</ele>
        <time>2025-06-08T09:20:48Z</time>
      </trkpt>
      <trkpt lat="43.42544" lon="5.73068">
        <ele>595.6</ele>
        <time>2025-06-08T09:20:56Z</time>
      </trkpt>
      <trkpt lat="43.42546" lon="5.73055">
        <ele>594.9</ele>
        <time>2025-06-08T09:21:04Z</time>
      </trkpt>
      <trkpt lat="43.42548" lon="5.73042">
        <ele>595</ele>
        <time>2025-06-08T09:21:12Z</time>
      </trkpt>
      <trkpt lat="43.42551" lon="5.73029">
        <ele>595.3</ele>
        <time>2025-06-08T09:21:19Z</time>
      </trkpt>
      <trkpt lat="43.4255" lon="5.73016">
        <ele>594.9</ele>
        <time>2025-06-08T09:21:26Z</time>
      </trkpt>
      <trkpt lat="43.42548" lon="5.73003">
        <ele>593.8</ele>
        <time>2025-06-08T09:21:34Z</time>
      </trkpt>
      <trkpt lat="43.42545" lon="5.72989">
        <ele>592.6</ele>
        <time>2025-06-08T09:21:43Z</time>
      </trkpt>
      <trkpt lat="43.42543" lon="5.72977">
        <ele>591.6</ele>
        <time>2025-06-08T09:21:52Z</time>
      </trkpt>
      <trkpt lat="43.4254" lon="5.72965">
        <ele>591.6</ele>
        <time>2025-06-08T09:22:00Z</time>
      </trkpt>
      <trkpt lat="43.42536" lon="5.72954">
        <ele>590.7</ele>
        <time>2025-06-08T09:22:08Z</time>
      </trkpt>
      <trkpt lat="43.42529" lon="5.72944">
        <ele>589.8</ele>
        <time>2025-06-08T09:22:17Z</time>
      </trkpt>
      <trkpt lat="43.42519" lon="5.72937">
        <ele>589.2</ele>
        <time>2025-06-08T09:22:27Z</time>
      </trkpt>
      <trkpt lat="43.42514" lon="5.72927">
        <ele>588.2</ele>
        <time>2025-06-08T09:22:35Z</time>
      </trkpt>
      <trkpt lat="43.42514" lon="5.72914">
        <ele>587</ele>
        <time>2025-06-08T09:22:44Z</time>
      </trkpt>
      <trkpt lat="43.4252" lon="5.72903">
        <ele>584.4</ele>
        <time>2025-06-08T09:22:56Z</time>
      </trkpt>
      <trkpt lat="43.42528" lon="5.72896">
        <ele>584.1</ele>
        <time>2025-06-08T09:23:06Z</time>
      </trkpt>
      <trkpt lat="43.42536" lon="5.72888">
        <ele>585</ele>
        <time>2025-06-08T09:23:15Z</time>
      </trkpt>
      <trkpt lat="43.42544" lon="5.72882">
        <ele>585.6</ele>
        <time>2025-06-08T09:23:23Z</time>
      </trkpt>
      <trkpt lat="43.42553" lon="5.72876">
        <ele>585.8</ele>
        <time>2025-06-08T09:23:35Z</time>
      </trkpt>
      <trkpt lat="43.4256" lon="5.72868">
        <ele>588.2</ele>
        <time>2025-06-08T09:23:45Z</time>
      </trkpt>
      <trkpt lat="43.42567" lon="5.7286">
        <ele>588.8</ele>
        <time>2025-06-08T09:23:55Z</time>
      </trkpt>
      <trkpt lat="43.42575" lon="5.72852">
        <ele>589.7</ele>
        <time>2025-06-08T09:24:03Z</time>
      </trkpt>
      <trkpt lat="43.42583" lon="5.72845">
        <ele>590.6</ele>
        <time>2025-06-08T09:24:11Z</time>
      </trkpt>
      <trkpt lat="43.42592" lon="5.72837">
        <ele>592.1</ele>
        <time>2025-06-08T09:24:20Z</time>
      </trkpt>
      <trkpt lat="43.426" lon="5.72832">
        <ele>593.8</ele>
        <time>2025-06-08T09:24:28Z</time>
      </trkpt>
      <trkpt lat="43.42608" lon="5.72827">
        <ele>594.7</ele>
        <time>2025-06-08T09:24:35Z</time>
      </trkpt>
      <trkpt lat="43.42617" lon="5.72819">
        <ele>595.4</ele>
        <time>2025-06-08T09:24:42Z</time>
      </trkpt>
      <trkpt lat="43.42624" lon="5.72809">
        <ele>596.9</ele>
        <time>2025-06-08T09:24:51Z</time>
      </trkpt>
      <trkpt lat="43.42628" lon="5.72797">
        <ele>598.2</ele>
        <time>2025-06-08T09:25:01Z</time>
      </trkpt>
      <trkpt lat="43.42632" lon="5.72785">
        <ele>598.8</ele>
        <time>2025-06-08T09:25:09Z</time>
      </trkpt>
      <trkpt lat="43.42632" lon="5.72773">
        <ele>598.6</ele>
        <time>2025-06-08T09:25:17Z</time>
      </trkpt>
      <trkpt lat="43.42631" lon="5.72759">
        <ele>599.6</ele>
        <time>2025-06-08T09:25:27Z</time>
      </trkpt>
      <trkpt lat="43.42632" lon="5.72746">
        <ele>599.9</ele>
        <time>2025-06-08T09:25:34Z</time>
      </trkpt>
      <trkpt lat="43.4263" lon="5.72733">
        <ele>600.1</ele>
        <time>2025-06-08T09:25:43Z</time>
      </trkpt>
      <trkpt lat="43.42629" lon="5.72721">
        <ele>600.6</ele>
        <time>2025-06-08T09:25:50Z</time>
      </trkpt>
      <trkpt lat="43.42626" lon="5.72708">
        <ele>600.9</ele>
        <time>2025-06-08T09:25:58Z</time>
      </trkpt>
      <trkpt lat="43.42623" lon="5.72696">
        <ele>601.1</ele>
        <time>2025-06-08T09:26:06Z</time>
      </trkpt>
      <trkpt lat="43.4262" lon="5.72683">
        <ele>601.3</ele>
        <time>2025-06-08T09:26:15Z</time>
      </trkpt>
      <trkpt lat="43.42616" lon="5.72671">
        <ele>602</ele>
        <time>2025-06-08T09:26:24Z</time>
      </trkpt>
      <trkpt lat="43.42615" lon="5.72658">
        <ele>602.7</ele>
        <time>2025-06-08T09:26:32Z</time>
      </trkpt>
      <trkpt lat="43.42611" lon="5.72646">
        <ele>603.4</ele>
        <time>2025-06-08T09:26:40Z</time>
      </trkpt>
      <trkpt lat="43.42608" lon="5.72634">
        <ele>605.8</ele>
        <time>2025-06-08T09:26:48Z</time>
      </trkpt>
      <trkpt lat="43.42607" lon="5.72621">
        <ele>607.3</ele>
        <time>2025-06-08T09:26:56Z</time>
      </trkpt>
      <trkpt lat="43.42603" lon="5.7261">
        <ele>609.1</ele>
        <time>2025-06-08T09:27:04Z</time>
      </trkpt>
      <trkpt lat="43.426" lon="5.72597">
        <ele>609.5</ele>
        <time>2025-06-08T09:27:12Z</time>
      </trkpt>
      <trkpt lat="43.42599" lon="5.72584">
        <ele>609.3</ele>
        <time>2025-06-08T09:27:20Z</time>
      </trkpt>
      <trkpt lat="43.42597" lon="5.72571">
        <ele>609.8</ele>
        <time>2025-06-08T09:27:28Z</time>
      </trkpt>
      <trkpt lat="43.42594" lon="5.72558">
        <ele>610.7</ele>
        <time>2025-06-08T09:27:38Z</time>
      </trkpt>
      <trkpt lat="43.42593" lon="5.72544">
        <ele>611.7</ele>
        <time>2025-06-08T09:27:47Z</time>
      </trkpt>
      <trkpt lat="43.42594" lon="5.7253">
        <ele>612.7</ele>
        <time>2025-06-08T09:27:56Z</time>
      </trkpt>
      <trkpt lat="43.42594" lon="5.72517">
        <ele>614.9</ele>
        <time>2025-06-08T09:28:05Z</time>
      </trkpt>
      <trkpt lat="43.42596" lon="5.72505">
        <ele>617.3</ele>
        <time>2025-06-08T09:28:13Z</time>
      </trkpt>
      <trkpt lat="43.42596" lon="5.72492">
        <ele>618.6</ele>
        <time>2025-06-08T09:28:21Z</time>
      </trkpt>
      <trkpt lat="43.42596" lon="5.72478">
        <ele>620.5</ele>
        <time>2025-06-08T09:28:31Z</time>
      </trkpt>
      <trkpt lat="43.42598" lon="5.72466">
        <ele>621.1</ele>
        <time>2025-06-08T09:28:39Z</time>
      </trkpt>
      <trkpt lat="43.42597" lon="5.72451">
        <ele>621.2</ele>
        <time>2025-06-08T09:28:47Z</time>
      </trkpt>
      <trkpt lat="43.42594" lon="5.72438">
        <ele>621.8</ele>
        <time>2025-06-08T09:28:56Z</time>
      </trkpt>
      <trkpt lat="43.42592" lon="5.72425">
        <ele>622.6</ele>
        <time>2025-06-08T09:29:03Z</time>
      </trkpt>
      <trkpt lat="43.42587" lon="5.72413">
        <ele>623.5</ele>
        <time>2025-06-08T09:29:11Z</time>
      </trkpt>
      <trkpt lat="43.42583" lon="5.72401">
        <ele>622.6</ele>
        <time>2025-06-08T09:29:22Z</time>
      </trkpt>
      <trkpt lat="43.42579" lon="5.72389">
        <ele>621.9</ele>
        <time>2025-06-08T09:29:30Z</time>
      </trkpt>
      <trkpt lat="43.42575" lon="5.72377">
        <ele>622</ele>
        <time>2025-06-08T09:29:36Z</time>
      </trkpt>
      <trkpt lat="43.42572" lon="5.72364">
        <ele>621.5</ele>
        <time>2025-06-08T09:29:43Z</time>
      </trkpt>
      <trkpt lat="43.42567" lon="5.72352">
        <ele>621.4</ele>
        <time>2025-06-08T09:29:51Z</time>
      </trkpt>
      <trkpt lat="43.42565" lon="5.72339">
        <ele>622</ele>
        <time>2025-06-08T09:29:58Z</time>
      </trkpt>
      <trkpt lat="43.42561" lon="5.72328">
        <ele>623.2</ele>
        <time>2025-06-08T09:30:06Z</time>
      </trkpt>
      <trkpt lat="43.42559" lon="5.72315">
        <ele>622.5</ele>
        <time>2025-06-08T09:30:18Z</time>
      </trkpt>
      <trkpt lat="43.42555" lon="5.72303">
        <ele>622.7</ele>
        <time>2025-06-08T09:30:26Z</time>
      </trkpt>
      <trkpt lat="43.4255" lon="5.72291">
        <ele>622.6</ele>
        <time>2025-06-08T09:30:34Z</time>
      </trkpt>
      <trkpt lat="43.42548" lon="5.72279">
        <ele>622.9</ele>
        <time>2025-06-08T09:30:42Z</time>
      </trkpt>
      <trkpt lat="43.42545" lon="5.72267">
        <ele>622.5</ele>
        <time>2025-06-08T09:30:48Z</time>
      </trkpt>
      <trkpt lat="43.42541" lon="5.72254">
        <ele>622.1</ele>
        <time>2025-06-08T09:30:55Z</time>
      </trkpt>
      <trkpt lat="43.4254" lon="5.72241">
        <ele>622.4</ele>
        <time>2025-06-08T09:31:04Z</time>
      </trkpt>
      <trkpt lat="43.42539" lon="5.72228">
        <ele>621.4</ele>
        <time>2025-06-08T09:31:12Z</time>
      </trkpt>
      <trkpt lat="43.42539" lon="5.72215">
        <ele>620.4</ele>
        <time>2025-06-08T09:31:20Z</time>
      </trkpt>
      <trkpt lat="43.42544" lon="5.72202">
        <ele>618.7</ele>
        <time>2025-06-08T09:31:29Z</time>
      </trkpt>
      <trkpt lat="43.42547" lon="5.72189">
        <ele>618.9</ele>
        <time>2025-06-08T09:31:38Z</time>
      </trkpt>
      <trkpt lat="43.4255" lon="5.72177">
        <ele>618.5</ele>
        <time>2025-06-08T09:31:45Z</time>
      </trkpt>
      <trkpt lat="43.42554" lon="5.72165">
        <ele>618.4</ele>
        <time>2025-06-08T09:31:52Z</time>
      </trkpt>
      <trkpt lat="43.42553" lon="5.72151">
        <ele>618.5</ele>
        <time>2025-06-08T09:32:00Z</time>
      </trkpt>
      <trkpt lat="43.42552" lon="5.72139">
        <ele>618.4</ele>
        <time>2025-06-08T09:32:08Z</time>
      </trkpt>
      <trkpt lat="43.4255" lon="5.72126">
        <ele>618.2</ele>
        <time>2025-06-08T09:32:15Z</time>
      </trkpt>
      <trkpt lat="43.42548" lon="5.72112">
        <ele>618.5</ele>
        <time>2025-06-08T09:32:24Z</time>
      </trkpt>
      <trkpt lat="43.42546" lon="5.72099">
        <ele>618.4</ele>
        <time>2025-06-08T09:32:32Z</time>
      </trkpt>
      <trkpt lat="43.42544" lon="5.72086">
        <ele>618.1</ele>
        <time>2025-06-08T09:32:39Z</time>
      </trkpt>
      <trkpt lat="43.42542" lon="5.72073">
        <ele>618.1</ele>
        <time>2025-06-08T09:32:46Z</time>
      </trkpt>
      <trkpt lat="43.42541" lon="5.7206">
        <ele>618.9</ele>
        <time>2025-06-08T09:32:54Z</time>
      </trkpt>
      <trkpt lat="43.42539" lon="5.72047">
        <ele>619</ele>
        <time>2025-06-08T09:33:02Z</time>
      </trkpt>
      <trkpt lat="43.42539" lon="5.72033">
        <ele>619.1</ele>
        <time>2025-06-08T09:33:10Z</time>
      </trkpt>
      <trkpt lat="43.42539" lon="5.7202">
        <ele>619.4</ele>
        <time>2025-06-08T09:33:17Z</time>
      </trkpt>
      <trkpt lat="43.42542" lon="5.72008">
        <ele>619.5</ele>
        <time>2025-06-08T09:33:25Z</time>
      </trkpt>
      <trkpt lat="43.42544" lon="5.71994">
        <ele>620.1</ele>
        <time>2025-06-08T09:33:32Z</time>
      </trkpt>
      <trkpt lat="43.42543" lon="5.71982">
        <ele>620.1</ele>
        <time>2025-06-08T09:33:39Z</time>
      </trkpt>
      <trkpt lat="43.42544" lon="5.71969">
        <ele>620.1</ele>
        <time>2025-06-08T09:33:47Z</time>
      </trkpt>
      <trkpt lat="43.42543" lon="5.71956">
        <ele>620.1</ele>
        <time>2025-06-08T09:33:54Z</time>
      </trkpt>
      <trkpt lat="43.42541" lon="5.71942">
        <ele>621.2</ele>
        <time>2025-06-08T09:34:02Z</time>
      </trkpt>
      <trkpt lat="43.42541" lon="5.7193">
        <ele>621.2</ele>
        <time>2025-06-08T09:34:08Z</time>
      </trkpt>
      <trkpt lat="43.42538" lon="5.71917">
        <ele>621.3</ele>
        <time>2025-06-08T09:34:17Z</time>
      </trkpt>
      <trkpt lat="43.42538" lon="5.71904">
        <ele>620.7</ele>
        <time>2025-06-08T09:34:23Z</time>
      </trkpt>
      <trkpt lat="43.42538" lon="5.71892">
        <ele>620.2</ele>
        <time>2025-06-08T09:34:30Z</time>
      </trkpt>
      <trkpt lat="43.42537" lon="5.71879">
        <ele>620.3</ele>
        <time>2025-06-08T09:34:38Z</time>
      </trkpt>
      <trkpt lat="43.42534" lon="5.71867">
        <ele>620</ele>
        <time>2025-06-08T09:34:45Z</time>
      </trkpt>
      <trkpt lat="43.42531" lon="5.71854">
        <ele>620.2</ele>
        <time>2025-06-08T09:34:53Z</time>
      </trkpt>
      <trkpt lat="43.42526" lon="5.71843">
        <ele>620.5</ele>
        <time>2025-06-08T09:35:00Z</time>
      </trkpt>
      <trkpt lat="43.4252" lon="5.71832">
        <ele>621.3</ele>
        <time>2025-06-08T09:35:08Z</time>
      </trkpt>
      <trkpt lat="43.42517" lon="5.7182">
        <ele>621.1</ele>
        <time>2025-06-08T09:35:15Z</time>
      </trkpt>
      <trkpt lat="43.42512" lon="5.71807">
        <ele>621.2</ele>
        <time>2025-06-08T09:35:23Z</time>
      </trkpt>
      <trkpt lat="43.42506" lon="5.71796">
        <ele>620.6</ele>
        <time>2025-06-08T09:35:31Z</time>
      </trkpt>
      <trkpt lat="43.425" lon="5.71787">
        <ele>620.7</ele>
        <time>2025-06-08T09:35:39Z</time>
      </trkpt>
      <trkpt lat="43.42493" lon="5.71778">
        <ele>620.9</ele>
        <time>2025-06-08T09:35:47Z</time>
      </trkpt>
      <trkpt lat="43.42487" lon="5.71768">
        <ele>621.1</ele>
        <time>2025-06-08T09:35:55Z</time>
      </trkpt>
      <trkpt lat="43.42477" lon="5.71764">
        <ele>620.8</ele>
        <time>2025-06-08T09:36:02Z</time>
      </trkpt>
      <trkpt lat="43.4247" lon="5.71757">
        <ele>620.4</ele>
        <time>2025-06-08T09:36:12Z</time>
      </trkpt>
      <trkpt lat="43.42463" lon="5.71747">
        <ele>620.3</ele>
        <time>2025-06-08T09:36:21Z</time>
      </trkpt>
      <trkpt lat="43.42456" lon="5.71738">
        <ele>620</ele>
        <time>2025-06-08T09:36:29Z</time>
      </trkpt>
      <trkpt lat="43.42448" lon="5.71729">
        <ele>620.2</ele>
        <time>2025-06-08T09:36:36Z</time>
      </trkpt>
      <trkpt lat="43.42443" lon="5.71718">
        <ele>620</ele>
        <time>2025-06-08T09:36:45Z</time>
      </trkpt>
      <trkpt lat="43.42438" lon="5.71706">
        <ele>620.3</ele>
        <time>2025-06-08T09:36:54Z</time>
      </trkpt>
      <trkpt lat="43.42432" lon="5.71697">
        <ele>620.6</ele>
        <time>2025-06-08T09:37:01Z</time>
      </trkpt>
      <trkpt lat="43.42427" lon="5.71685">
        <ele>619.9</ele>
        <time>2025-06-08T09:37:08Z</time>
      </trkpt>
      <trkpt lat="43.42422" lon="5.71673">
        <ele>619.4</ele>
        <time>2025-06-08T09:37:16Z</time>
      </trkpt>
      <trkpt lat="43.42418" lon="5.71661">
        <ele>619.1</ele>
        <time>2025-06-08T09:37:22Z</time>
      </trkpt>
      <trkpt lat="43.42414" lon="5.71649">
        <ele>618.6</ele>
        <time>2025-06-08T09:37:30Z</time>
      </trkpt>
      <trkpt lat="43.42408" lon="5.71639">
        <ele>618.8</ele>
        <time>2025-06-08T09:37:37Z</time>
      </trkpt>
      <trkpt lat="43.42403" lon="5.71629">
        <ele>619</ele>
        <time>2025-06-08T09:37:46Z</time>
      </trkpt>
      <trkpt lat="43.424" lon="5.71615">
        <ele>619.1</ele>
        <time>2025-06-08T09:37:54Z</time>
      </trkpt>
      <trkpt lat="43.42397" lon="5.71603">
        <ele>619.7</ele>
        <time>2025-06-08T09:38:00Z</time>
      </trkpt>
      <trkpt lat="43.42393" lon="5.71592">
        <ele>620.1</ele>
        <time>2025-06-08T09:38:07Z</time>
      </trkpt>
      <trkpt lat="43.42389" lon="5.71579">
        <ele>619.7</ele>
        <time>2025-06-08T09:38:15Z</time>
      </trkpt>
      <trkpt lat="43.42384" lon="5.71567">
        <ele>619.7</ele>
        <time>2025-06-08T09:38:22Z</time>
      </trkpt>
      <trkpt lat="43.42378" lon="5.71557">
        <ele>620.3</ele>
        <time>2025-06-08T09:38:29Z</time>
      </trkpt>
      <trkpt lat="43.42375" lon="5.71544">
        <ele>619.4</ele>
        <time>2025-06-08T09:38:37Z</time>
      </trkpt>
      <trkpt lat="43.42371" lon="5.71533">
        <ele>618.4</ele>
        <time>2025-06-08T09:38:43Z</time>
      </trkpt>
      <trkpt lat="43.42366" lon="5.7152">
        <ele>617.7</ele>
        <time>2025-06-08T09:38:51Z</time>
      </trkpt>
      <trkpt lat="43.42362" lon="5.71507">
        <ele>616.8</ele>
        <time>2025-06-08T09:38:59Z</time>
      </trkpt>
      <trkpt lat="43.42357" lon="5.71497">
        <ele>616.3</ele>
        <time>2025-06-08T09:39:06Z</time>
      </trkpt>
      <trkpt lat="43.42355" lon="5.71484">
        <ele>616.2</ele>
        <time>2025-06-08T09:39:13Z</time>
      </trkpt>
      <trkpt lat="43.42349" lon="5.71474">
        <ele>616</ele>
        <time>2025-06-08T09:39:20Z</time>
      </trkpt>
      <trkpt lat="43.42341" lon="5.71466">
        <ele>615</ele>
        <time>2025-06-08T09:39:28Z</time>
      </trkpt>
      <trkpt lat="43.42333" lon="5.71459">
        <ele>614.9</ele>
        <time>2025-06-08T09:39:34Z</time>
      </trkpt>
      <trkpt lat="43.42329" lon="5.71446">
        <ele>615.4</ele>
        <time>2025-06-08T09:39:43Z</time>
      </trkpt>
      <trkpt lat="43.42322" lon="5.71437">
        <ele>615.7</ele>
        <time>2025-06-08T09:39:50Z</time>
      </trkpt>
      <trkpt lat="43.42315" lon="5.71428">
        <ele>615.6</ele>
        <time>2025-06-08T09:39:58Z</time>
      </trkpt>
      <trkpt lat="43.42309" lon="5.71417">
        <ele>616.1</ele>
        <time>2025-06-08T09:40:07Z</time>
      </trkpt>
      <trkpt lat="43.42304" lon="5.71406">
        <ele>616.6</ele>
        <time>2025-06-08T09:40:15Z</time>
      </trkpt>
      <trkpt lat="43.42297" lon="5.71396">
        <ele>616.8</ele>
        <time>2025-06-08T09:40:23Z</time>
      </trkpt>
      <trkpt lat="43.42292" lon="5.71384">
        <ele>616.7</ele>
        <time>2025-06-08T09:40:30Z</time>
      </trkpt>
      <trkpt lat="43.42288" lon="5.71373">
        <ele>616.7</ele>
        <time>2025-06-08T09:40:37Z</time>
      </trkpt>
      <trkpt lat="43.42284" lon="5.7136">
        <ele>616.5</ele>
        <time>2025-06-08T09:40:45Z</time>
      </trkpt>
      <trkpt lat="43.42281" lon="5.71347">
        <ele>616.4</ele>
        <time>2025-06-08T09:40:53Z</time>
      </trkpt>
      <trkpt lat="43.4228" lon="5.71334">
        <ele>616.3</ele>
        <time>2025-06-08T09:41:00Z</time>
      </trkpt>
      <trkpt lat="43.4228" lon="5.71319">
        <ele>615.6</ele>
        <time>2025-06-08T09:41:07Z</time>
      </trkpt>
      <trkpt lat="43.42279" lon="5.71306">
        <ele>616.2</ele>
        <time>2025-06-08T09:41:14Z</time>
      </trkpt>
      <trkpt lat="43.42282" lon="5.71293">
        <ele>614.2</ele>
        <time>2025-06-08T09:41:21Z</time>
      </trkpt>
      <trkpt lat="43.42283" lon="5.7128">
        <ele>613.8</ele>
        <time>2025-06-08T09:41:28Z</time>
      </trkpt>
      <trkpt lat="43.42283" lon="5.71268">
        <ele>613.7</ele>
        <time>2025-06-08T09:41:35Z</time>
      </trkpt>
      <trkpt lat="43.42282" lon="5.71254">
        <ele>613.8</ele>
        <time>2025-06-08T09:41:44Z</time>
      </trkpt>
      <trkpt lat="43.42281" lon="5.7124">
        <ele>614.3</ele>
        <time>2025-06-08T09:41:52Z</time>
      </trkpt>
      <trkpt lat="43.42279" lon="5.71228">
        <ele>614</ele>
        <time>2025-06-08T09:41:59Z</time>
      </trkpt>
      <trkpt lat="43.42276" lon="5.71215">
        <ele>613.9</ele>
        <time>2025-06-08T09:42:08Z</time>
      </trkpt>
      <trkpt lat="43.4227" lon="5.71205">
        <ele>613.9</ele>
        <time>2025-06-08T09:42:17Z</time>
      </trkpt>
      <trkpt lat="43.42264" lon="5.71194">
        <ele>613.7</ele>
        <time>2025-06-08T09:42:26Z</time>
      </trkpt>
      <trkpt lat="43.42259" lon="5.71183">
        <ele>613.9</ele>
        <time>2025-06-08T09:42:34Z</time>
      </trkpt>
      <trkpt lat="43.42254" lon="5.71173">
        <ele>614.3</ele>
        <time>2025-06-08T09:42:42Z</time>
      </trkpt>
      <trkpt lat="43.42248" lon="5.71163">
        <ele>615</ele>
        <time>2025-06-08T09:42:49Z</time>
      </trkpt>
      <trkpt lat="43.42243" lon="5.71152">
        <ele>615.1</ele>
        <time>2025-06-08T09:42:57Z</time>
      </trkpt>
      <trkpt lat="43.42238" lon="5.71142">
        <ele>615.4</ele>
        <time>2025-06-08T09:43:04Z</time>
      </trkpt>
      <trkpt lat="43.42233" lon="5.71131">
        <ele>616</ele>
        <time>2025-06-08T09:43:12Z</time>
      </trkpt>
      <trkpt lat="43.42227" lon="5.7112">
        <ele>616.7</ele>
        <time>2025-06-08T09:43:20Z</time>
      </trkpt>
      <trkpt lat="43.42221" lon="5.7111">
        <ele>617.9</ele>
        <time>2025-06-08T09:43:28Z</time>
      </trkpt>
      <trkpt lat="43.42216" lon="5.711">
        <ele>618.3</ele>
        <time>2025-06-08T09:43:36Z</time>
      </trkpt>
      <trkpt lat="43.42209" lon="5.7109">
        <ele>617.2</ele>
        <time>2025-06-08T09:43:45Z</time>
      </trkpt>
      <trkpt lat="43.42204" lon="5.7108">
        <ele>617.7</ele>
        <time>2025-06-08T09:43:52Z</time>
      </trkpt>
      <trkpt lat="43.42198" lon="5.71071">
        <ele>619.2</ele>
        <time>2025-06-08T09:43:58Z</time>
      </trkpt>
      <trkpt lat="43.42191" lon="5.71061">
        <ele>620.7</ele>
        <time>2025-06-08T09:44:05Z</time>
      </trkpt>
      <trkpt lat="43.42185" lon="5.71051">
        <ele>621.6</ele>
        <time>2025-06-08T09:44:15Z</time>
      </trkpt>
      <trkpt lat="43.42178" lon="5.71042">
        <ele>621.7</ele>
        <time>2025-06-08T09:44:22Z</time>
      </trkpt>
      <trkpt lat="43.42172" lon="5.71032">
        <ele>621.7</ele>
        <time>2025-06-08T09:44:29Z</time>
      </trkpt>
      <trkpt lat="43.42164" lon="5.71023">
        <ele>621.7</ele>
        <time>2025-06-08T09:44:36Z</time>
      </trkpt>
      <trkpt lat="43.42158" lon="5.71013">
        <ele>621.6</ele>
        <time>2025-06-08T09:44:43Z</time>
      </trkpt>
      <trkpt lat="43.42153" lon="5.71001">
        <ele>622.1</ele>
        <time>2025-06-08T09:44:51Z</time>
      </trkpt>
      <trkpt lat="43.42148" lon="5.7099">
        <ele>621.5</ele>
        <time>2025-06-08T09:45:00Z</time>
      </trkpt>
      <trkpt lat="43.42142" lon="5.70979">
        <ele>621.6</ele>
        <time>2025-06-08T09:45:07Z</time>
      </trkpt>
      <trkpt lat="43.42135" lon="5.70969">
        <ele>622.3</ele>
        <time>2025-06-08T09:45:16Z</time>
      </trkpt>
      <trkpt lat="43.42127" lon="5.70961">
        <ele>623.7</ele>
        <time>2025-06-08T09:45:25Z</time>
      </trkpt>
      <trkpt lat="43.4212" lon="5.70951">
        <ele>624.7</ele>
        <time>2025-06-08T09:45:33Z</time>
      </trkpt>
      <trkpt lat="43.42111" lon="5.70944">
        <ele>625.6</ele>
        <time>2025-06-08T09:45:40Z</time>
      </trkpt>
      <trkpt lat="43.42103" lon="5.70937">
        <ele>626</ele>
        <time>2025-06-08T09:45:48Z</time>
      </trkpt>
      <trkpt lat="43.42096" lon="5.70928">
        <ele>626.4</ele>
        <time>2025-06-08T09:45:55Z</time>
      </trkpt>
      <trkpt lat="43.42088" lon="5.7092">
        <ele>626.7</ele>
        <time>2025-06-08T09:46:03Z</time>
      </trkpt>
      <trkpt lat="43.42081" lon="5.70912">
        <ele>626.9</ele>
        <time>2025-06-08T09:46:12Z</time>
      </trkpt>
      <trkpt lat="43.42074" lon="5.70903">
        <ele>627.5</ele>
        <time>2025-06-08T09:46:21Z</time>
      </trkpt>
      <trkpt lat="43.42067" lon="5.70894">
        <ele>627.5</ele>
        <time>2025-06-08T09:46:28Z</time>
      </trkpt>
      <trkpt lat="43.42062" lon="5.70883">
        <ele>627.7</ele>
        <time>2025-06-08T09:46:36Z</time>
      </trkpt>
      <trkpt lat="43.42056" lon="5.70872">
        <ele>628.3</ele>
        <time>2025-06-08T09:46:44Z</time>
      </trkpt>
      <trkpt lat="43.42051" lon="5.7086">
        <ele>628.6</ele>
        <time>2025-06-08T09:46:51Z</time>
      </trkpt>
      <trkpt lat="43.42048" lon="5.70848">
        <ele>628.7</ele>
        <time>2025-06-08T09:46:58Z</time>
      </trkpt>
      <trkpt lat="43.42045" lon="5.70836">
        <ele>628.5</ele>
        <time>2025-06-08T09:47:05Z</time>
      </trkpt>
      <trkpt lat="43.4204" lon="5.70825">
        <ele>628.4</ele>
        <time>2025-06-08T09:47:13Z</time>
      </trkpt>
      <trkpt lat="43.42036" lon="5.70813">
        <ele>629.6</ele>
        <time>2025-06-08T09:47:22Z</time>
      </trkpt>
      <trkpt lat="43.42032" lon="5.70801">
        <ele>630</ele>
        <time>2025-06-08T09:47:32Z</time>
      </trkpt>
      <trkpt lat="43.42028" lon="5.70789">
        <ele>629.7</ele>
        <time>2025-06-08T09:47:38Z</time>
      </trkpt>
      <trkpt lat="43.42023" lon="5.70777">
        <ele>629.9</ele>
        <time>2025-06-08T09:47:45Z</time>
      </trkpt>
      <trkpt lat="43.42018" lon="5.70766">
        <ele>629.5</ele>
        <time>2025-06-08T09:47:53Z</time>
      </trkpt>
      <trkpt lat="43.42013" lon="5.70755">
        <ele>629.1</ele>
        <time>2025-06-08T09:48:01Z</time>
      </trkpt>
      <trkpt lat="43.42006" lon="5.70746">
        <ele>629.3</ele>
        <time>2025-06-08T09:48:08Z</time>
      </trkpt>
      <trkpt lat="43.41999" lon="5.70737">
        <ele>629.1</ele>
        <time>2025-06-08T09:48:16Z</time>
      </trkpt>
      <trkpt lat="43.41992" lon="5.70729">
        <ele>629.3</ele>
        <time>2025-06-08T09:48:23Z</time>
      </trkpt>
      <trkpt lat="43.41984" lon="5.7072">
        <ele>629.4</ele>
        <time>2025-06-08T09:48:30Z</time>
      </trkpt>
      <trkpt lat="43.41976" lon="5.70713">
        <ele>628.8</ele>
        <time>2025-06-08T09:48:38Z</time>
      </trkpt>
      <trkpt lat="43.41969" lon="5.70703">
        <ele>629.1</ele>
        <time>2025-06-08T09:48:46Z</time>
      </trkpt>
      <trkpt lat="43.41961" lon="5.70696">
        <ele>628.1</ele>
        <time>2025-06-08T09:48:53Z</time>
      </trkpt>
      <trkpt lat="43.41954" lon="5.70687">
        <ele>627.7</ele>
        <time>2025-06-08T09:49:03Z</time>
      </trkpt>
      <trkpt lat="43.41947" lon="5.70678">
        <ele>628.1</ele>
        <time>2025-06-08T09:49:10Z</time>
      </trkpt>
      <trkpt lat="43.41941" lon="5.70669">
        <ele>627.4</ele>
        <time>2025-06-08T09:49:17Z</time>
      </trkpt>
      <trkpt lat="43.41935" lon="5.70659">
        <ele>626.8</ele>
        <time>2025-06-08T09:49:25Z</time>
      </trkpt>
      <trkpt lat="43.4193" lon="5.70646">
        <ele>625.7</ele>
        <time>2025-06-08T09:49:35Z</time>
      </trkpt>
      <trkpt lat="43.41926" lon="5.70634">
        <ele>625.4</ele>
        <time>2025-06-08T09:49:44Z</time>
      </trkpt>
      <trkpt lat="43.41923" lon="5.70623">
        <ele>623.8</ele>
        <time>2025-06-08T09:49:53Z</time>
      </trkpt>
      <trkpt lat="43.41917" lon="5.70611">
        <ele>623.4</ele>
        <time>2025-06-08T09:50:01Z</time>
      </trkpt>
      <trkpt lat="43.41909" lon="5.70602">
        <ele>622.9</ele>
        <time>2025-06-08T09:50:08Z</time>
      </trkpt>
      <trkpt lat="43.41901" lon="5.70596">
        <ele>621.7</ele>
        <time>2025-06-08T09:50:16Z</time>
      </trkpt>
      <trkpt lat="43.41892" lon="5.7059">
        <ele>621.2</ele>
        <time>2025-06-08T09:50:24Z</time>
      </trkpt>
      <trkpt lat="43.41886" lon="5.70578">
        <ele>620.6</ele>
        <time>2025-06-08T09:50:33Z</time>
      </trkpt>
      <trkpt lat="43.41878" lon="5.7057">
        <ele>620.8</ele>
        <time>2025-06-08T09:50:40Z</time>
      </trkpt>
      <trkpt lat="43.41872" lon="5.70561">
        <ele>620.8</ele>
        <time>2025-06-08T09:50:50Z</time>
      </trkpt>
      <trkpt lat="43.41865" lon="5.70552">
        <ele>620.4</ele>
        <time>2025-06-08T09:50:57Z</time>
      </trkpt>
      <trkpt lat="43.4186" lon="5.70542">
        <ele>620.3</ele>
        <time>2025-06-08T09:51:07Z</time>
      </trkpt>
      <trkpt lat="43.41854" lon="5.70532">
        <ele>622</ele>
        <time>2025-06-08T09:51:14Z</time>
      </trkpt>
      <trkpt lat="43.41849" lon="5.70521">
        <ele>623.4</ele>
        <time>2025-06-08T09:51:22Z</time>
      </trkpt>
      <trkpt lat="43.41851" lon="5.70509">
        <ele>624.7</ele>
        <time>2025-06-08T09:51:32Z</time>
      </trkpt>
      <trkpt lat="43.41856" lon="5.70497">
        <ele>624.3</ele>
        <time>2025-06-08T09:51:42Z</time>
      </trkpt>
      <trkpt lat="43.41859" lon="5.70484">
        <ele>622.6</ele>
        <time>2025-06-08T09:51:53Z</time>
      </trkpt>
      <trkpt lat="43.41856" lon="5.70474">
        <ele>623.2</ele>
        <time>2025-06-08T09:52:07Z</time>
      </trkpt>
      <trkpt lat="43.41856" lon="5.70473">
        <ele>623.3</ele>
        <time>2025-06-08T09:52:08Z</time>
      </trkpt>
      <trkpt lat="43.41848" lon="5.70467">
        <ele>623.5</ele>
        <time>2025-06-08T09:52:20Z</time>
      </trkpt>
      <trkpt lat="43.41839" lon="5.70462">
        <ele>624.4</ele>
        <time>2025-06-08T09:52:30Z</time>
      </trkpt>
      <trkpt lat="43.4183" lon="5.70468">
        <ele>625.9</ele>
        <time>2025-06-08T09:52:50Z</time>
      </trkpt>
      <trkpt lat="43.41826" lon="5.70479">
        <ele>624.7</ele>
        <time>2025-06-08T09:53:05Z</time>
      </trkpt>
      <trkpt lat="43.41818" lon="5.70488">
        <ele>624.4</ele>
        <time>2025-06-08T09:53:18Z</time>
      </trkpt>
      <trkpt lat="43.41814" lon="5.70491">
        <ele>624.7</ele>
        <time>2025-06-08T09:53:28Z</time>
      </trkpt>
      <trkpt lat="43.41815" lon="5.70492">
        <ele>624.9</ele>
        <time>2025-06-08T09:53:29Z</time>
      </trkpt>
      <trkpt lat="43.41806" lon="5.70498">
        <ele>626</ele>
        <time>2025-06-08T09:53:41Z</time>
      </trkpt>
      <trkpt lat="43.41798" lon="5.70504">
        <ele>626.1</ele>
        <time>2025-06-08T09:53:50Z</time>
      </trkpt>
      <trkpt lat="43.41789" lon="5.70504">
        <ele>626.3</ele>
        <time>2025-06-08T09:53:59Z</time>
      </trkpt>
      <trkpt lat="43.4178" lon="5.70508">
        <ele>626.7</ele>
        <time>2025-06-08T09:54:13Z</time>
      </trkpt>
      <trkpt lat="43.41771" lon="5.70505">
        <ele>627.2</ele>
        <time>2025-06-08T09:54:25Z</time>
      </trkpt>
      <trkpt lat="43.41761" lon="5.70505">
        <ele>626.9</ele>
        <time>2025-06-08T09:54:42Z</time>
      </trkpt>
      <trkpt lat="43.41755" lon="5.70496">
        <ele>627.2</ele>
        <time>2025-06-08T09:54:58Z</time>
      </trkpt>
      <trkpt lat="43.41747" lon="5.7049">
        <ele>627.4</ele>
        <time>2025-06-08T09:55:12Z</time>
      </trkpt>
      <trkpt lat="43.4174" lon="5.70481">
        <ele>627.8</ele>
        <time>2025-06-08T09:55:22Z</time>
      </trkpt>
      <trkpt lat="43.41733" lon="5.70473">
        <ele>627.9</ele>
        <time>2025-06-08T09:55:34Z</time>
      </trkpt>
      <trkpt lat="43.41725" lon="5.70464">
        <ele>627.8</ele>
        <time>2025-06-08T09:55:43Z</time>
      </trkpt>
      <trkpt lat="43.41721" lon="5.70453">
        <ele>628</ele>
        <time>2025-06-08T09:55:52Z</time>
      </trkpt>
      <trkpt lat="43.41716" lon="5.70441">
        <ele>628.8</ele>
        <time>2025-06-08T09:56:04Z</time>
      </trkpt>
      <trkpt lat="43.41715" lon="5.70428">
        <ele>629</ele>
        <time>2025-06-08T09:56:13Z</time>
      </trkpt>
      <trkpt lat="43.41712" lon="5.70416">
        <ele>630.2</ele>
        <time>2025-06-08T09:56:24Z</time>
      </trkpt>
      <trkpt lat="43.41717" lon="5.70405">
        <ele>629.8</ele>
        <time>2025-06-08T09:56:55Z</time>
      </trkpt>
      <trkpt lat="43.41717" lon="5.70401">
        <ele>629.6</ele>
        <time>2025-06-08T09:57:04Z</time>
      </trkpt>
      <trkpt lat="43.41717" lon="5.70401">
        <ele>629.7</ele>
        <time>2025-06-08T09:57:05Z</time>
      </trkpt>
      <trkpt lat="43.41722" lon="5.70389">
        <ele>629.9</ele>
        <time>2025-06-08T09:57:16Z</time>
      </trkpt>
      <trkpt lat="43.41728" lon="5.70379">
        <ele>631.3</ele>
        <time>2025-06-08T09:57:24Z</time>
      </trkpt>
      <trkpt lat="43.41736" lon="5.70383">
        <ele>632.9</ele>
        <time>2025-06-08T09:57:49Z</time>
      </trkpt>
      <trkpt lat="43.41735" lon="5.70384">
        <ele>633.1</ele>
        <time>2025-06-08T09:57:57Z</time>
      </trkpt>
      <trkpt lat="43.41735" lon="5.70383">
        <ele>633.1</ele>
        <time>2025-06-08T09:57:58Z</time>
      </trkpt>
      <trkpt lat="43.41735" lon="5.70383">
        <ele>633.1</ele>
        <time>2025-06-08T09:57:59Z</time>
      </trkpt>
      <trkpt lat="43.41736" lon="5.70384">
        <ele>633.1</ele>
        <time>2025-06-08T09:58:00Z</time>
      </trkpt>
      <trkpt lat="43.41744" lon="5.70376">
        <ele>634.6</ele>
        <time>2025-06-08T09:58:21Z</time>
      </trkpt>
      <trkpt lat="43.41744" lon="5.70376">
        <ele>634.8</ele>
        <time>2025-06-08T09:58:23Z</time>
      </trkpt>
      <trkpt lat="43.41744" lon="5.70376">
        <ele>635</ele>
        <time>2025-06-08T09:58:24Z</time>
      </trkpt>
      <trkpt lat="43.41746" lon="5.70371">
        <ele>636.9</ele>
        <time>2025-06-08T09:58:37Z</time>
      </trkpt>
      <trkpt lat="43.41746" lon="5.70372">
        <ele>637</ele>
        <time>2025-06-08T09:58:40Z</time>
      </trkpt>
      <trkpt lat="43.41746" lon="5.70372">
        <ele>637.7</ele>
        <time>2025-06-08T09:58:44Z</time>
      </trkpt>
      <trkpt lat="43.41746" lon="5.70372">
        <ele>637.9</ele>
        <time>2025-06-08T09:58:47Z</time>
      </trkpt>
      <trkpt lat="43.41753" lon="5.7038">
        <ele>638.8</ele>
        <time>2025-06-08T09:58:56Z</time>
      </trkpt>
      <trkpt lat="43.41762" lon="5.70385">
        <ele>638.9</ele>
        <time>2025-06-08T09:59:03Z</time>
      </trkpt>
      <trkpt lat="43.41766" lon="5.70398">
        <ele>637.8</ele>
        <time>2025-06-08T09:59:27Z</time>
      </trkpt>
      <trkpt lat="43.41772" lon="5.70388">
        <ele>637.2</ele>
        <time>2025-06-08T09:59:34Z</time>
      </trkpt>
      <trkpt lat="43.41766" lon="5.70378">
        <ele>634.9</ele>
        <time>2025-06-08T09:59:51Z</time>
      </trkpt>
      <trkpt lat="43.41757" lon="5.70377">
        <ele>635.1</ele>
        <time>2025-06-08T10:00:10Z</time>
      </trkpt>
      <trkpt lat="43.41747" lon="5.70373">
        <ele>635.2</ele>
        <time>2025-06-08T10:00:22Z</time>
      </trkpt>
      <trkpt lat="43.41745" lon="5.70372">
        <ele>635.1</ele>
        <time>2025-06-08T10:00:24Z</time>
      </trkpt>
      <trkpt lat="43.41741" lon="5.70371">
        <ele>634.9</ele>
        <time>2025-06-08T10:00:25Z</time>
      </trkpt>
      <trkpt lat="43.4175" lon="5.70371">
        <ele>639.9</ele>
        <time>2025-06-08T10:00:58Z</time>
      </trkpt>
      <trkpt lat="43.41759" lon="5.70373">
        <ele>639.3</ele>
        <time>2025-06-08T10:01:13Z</time>
      </trkpt>
      <trkpt lat="43.41768" lon="5.7037">
        <ele>641.4</ele>
        <time>2025-06-08T10:01:47Z</time>
      </trkpt>
      <trkpt lat="43.41769" lon="5.70372">
        <ele>642.7</ele>
        <time>2025-06-08T10:02:06Z</time>
      </trkpt>
      <trkpt lat="43.41768" lon="5.70372">
        <ele>642.6</ele>
        <time>2025-06-08T10:02:07Z</time>
      </trkpt>
      <trkpt lat="43.41759" lon="5.70368">
        <ele>643.1</ele>
        <time>2025-06-08T10:02:17Z</time>
      </trkpt>
      <trkpt lat="43.4175" lon="5.70363">
        <ele>642.5</ele>
        <time>2025-06-08T10:02:37Z</time>
      </trkpt>
      <trkpt lat="43.41746" lon="5.7037">
        <ele>646.7</ele>
        <time>2025-06-08T10:03:11Z</time>
      </trkpt>
      <trkpt lat="43.41745" lon="5.7037">
        <ele>646.8</ele>
        <time>2025-06-08T10:03:12Z</time>
      </trkpt>
      <trkpt lat="43.41746" lon="5.70369">
        <ele>646.7</ele>
        <time>2025-06-08T10:03:16Z</time>
      </trkpt>
      <trkpt lat="43.41746" lon="5.70369">
        <ele>646.6</ele>
        <time>2025-06-08T10:03:17Z</time>
      </trkpt>
      <trkpt lat="43.41742" lon="5.70369">
        <ele>646.5</ele>
        <time>2025-06-08T10:03:25Z</time>
      </trkpt>
      <trkpt lat="43.41742" lon="5.70369">
        <ele>646.4</ele>
        <time>2025-06-08T10:03:26Z</time>
      </trkpt>
      <trkpt lat="43.4175" lon="5.70364">
        <ele>645.9</ele>
        <time>2025-06-08T10:03:37Z</time>
      </trkpt>
      <trkpt lat="43.41759" lon="5.7036">
        <ele>646.2</ele>
        <time>2025-06-08T10:03:51Z</time>
      </trkpt>
      <trkpt lat="43.4176" lon="5.70358">
        <ele>646.7</ele>
        <time>2025-06-08T10:03:56Z</time>
      </trkpt>
      <trkpt lat="43.41759" lon="5.70358">
        <ele>646.8</ele>
        <time>2025-06-08T10:03:57Z</time>
      </trkpt>
      <trkpt lat="43.41761" lon="5.70363">
        <ele>649.4</ele>
        <time>2025-06-08T10:04:14Z</time>
      </trkpt>
      <trkpt lat="43.41761" lon="5.70363">
        <ele>649.5</ele>
        <time>2025-06-08T10:04:15Z</time>
      </trkpt>
      <trkpt lat="43.41752" lon="5.70363">
        <ele>652.1</ele>
        <time>2025-06-08T10:04:51Z</time>
      </trkpt>
      <trkpt lat="43.41749" lon="5.70362">
        <ele>653.7</ele>
        <time>2025-06-08T10:05:00Z</time>
      </trkpt>
      <trkpt lat="43.41749" lon="5.70361">
        <ele>653.8</ele>
        <time>2025-06-08T10:05:01Z</time>
      </trkpt>
      <trkpt lat="43.41753" lon="5.70365">
        <ele>655.2</ele>
        <time>2025-06-08T10:05:39Z</time>
      </trkpt>
      <trkpt lat="43.41753" lon="5.70364">
        <ele>655.2</ele>
        <time>2025-06-08T10:05:40Z</time>
      </trkpt>
      <trkpt lat="43.41759" lon="5.70367">
        <ele>655.8</ele>
        <time>2025-06-08T10:05:48Z</time>
      </trkpt>
      <trkpt lat="43.41758" lon="5.70367">
        <ele>655.8</ele>
        <time>2025-06-08T10:05:49Z</time>
      </trkpt>
      <trkpt lat="43.41757" lon="5.70367">
        <ele>655.8</ele>
        <time>2025-06-08T10:05:51Z</time>
      </trkpt>
      <trkpt lat="43.41757" lon="5.70367">
        <ele>655.8</ele>
        <time>2025-06-08T10:05:52Z</time>
      </trkpt>
      <trkpt lat="43.41755" lon="5.70368">
        <ele>656.1</ele>
        <time>2025-06-08T10:06:08Z</time>
      </trkpt>
      <trkpt lat="43.41755" lon="5.70368">
        <ele>656.2</ele>
        <time>2025-06-08T10:06:09Z</time>
      </trkpt>
      <trkpt lat="43.41746" lon="5.70366">
        <ele>656.8</ele>
        <time>2025-06-08T10:06:35Z</time>
      </trkpt>
      <trkpt lat="43.41739" lon="5.70361">
        <ele>656.2</ele>
        <time>2025-06-08T10:06:41Z</time>
      </trkpt>
      <trkpt lat="43.4174" lon="5.70361">
        <ele>656.2</ele>
        <time>2025-06-08T10:06:42Z</time>
      </trkpt>
      <trkpt lat="43.4175" lon="5.70359">
        <ele>656.6</ele>
        <time>2025-06-08T10:06:50Z</time>
      </trkpt>
      <trkpt lat="43.41754" lon="5.7036">
        <ele>656.3</ele>
        <time>2025-06-08T10:06:59Z</time>
      </trkpt>
      <trkpt lat="43.41755" lon="5.70361">
        <ele>656.2</ele>
        <time>2025-06-08T10:07:00Z</time>
      </trkpt>
      <trkpt lat="43.41759" lon="5.70363">
        <ele>656.7</ele>
        <time>2025-06-08T10:07:52Z</time>
      </trkpt>
      <trkpt lat="43.41758" lon="5.70363">
        <ele>656.8</ele>
        <time>2025-06-08T10:07:53Z</time>
      </trkpt>
      <trkpt lat="43.41756" lon="5.70364">
        <ele>656.3</ele>
        <time>2025-06-08T10:08:21Z</time>
      </trkpt>
      <trkpt lat="43.41757" lon="5.70364">
        <ele>656.3</ele>
        <time>2025-06-08T10:08:22Z</time>
      </trkpt>
      <trkpt lat="43.41748" lon="5.70362">
        <ele>655.7</ele>
        <time>2025-06-08T10:08:40Z</time>
      </trkpt>
      <trkpt lat="43.41751" lon="5.70374">
        <ele>654.2</ele>
        <time>2025-06-08T10:09:16Z</time>
      </trkpt>
      <trkpt lat="43.41753" lon="5.7037">
        <ele>652.9</ele>
        <time>2025-06-08T10:09:59Z</time>
      </trkpt>
      <trkpt lat="43.41754" lon="5.70371">
        <ele>653.5</ele>
        <time>2025-06-08T10:10:01Z</time>
      </trkpt>
      <trkpt lat="43.41751" lon="5.7037">
        <ele>653.6</ele>
        <time>2025-06-08T10:10:49Z</time>
      </trkpt>
      <trkpt lat="43.41751" lon="5.7037">
        <ele>653.6</ele>
        <time>2025-06-08T10:10:50Z</time>
      </trkpt>
      <trkpt lat="43.41751" lon="5.70374">
        <ele>656.2</ele>
        <time>2025-06-08T10:11:18Z</time>
      </trkpt>
      <trkpt lat="43.41751" lon="5.70373">
        <ele>656.4</ele>
        <time>2025-06-08T10:11:19Z</time>
      </trkpt>
      <trkpt lat="43.41751" lon="5.70372">
        <ele>656.7</ele>
        <time>2025-06-08T10:11:22Z</time>
      </trkpt>
      <trkpt lat="43.41751" lon="5.70372">
        <ele>656.7</ele>
        <time>2025-06-08T10:11:23Z</time>
      </trkpt>
      <trkpt lat="43.41751" lon="5.70372">
        <ele>656.8</ele>
        <time>2025-06-08T10:11:26Z</time>
      </trkpt>
      <trkpt lat="43.41753" lon="5.70372">
        <ele>656.8</ele>
        <time>2025-06-08T10:11:27Z</time>
      </trkpt>
      <trkpt lat="43.41757" lon="5.70372">
        <ele>657.5</ele>
        <time>2025-06-08T10:11:36Z</time>
      </trkpt>
      <trkpt lat="43.41757" lon="5.70372">
        <ele>657.5</ele>
        <time>2025-06-08T10:11:37Z</time>
      </trkpt>
      <trkpt lat="43.41755" lon="5.7037">
        <ele>657.3</ele>
        <time>2025-06-08T10:11:47Z</time>
      </trkpt>
      <trkpt lat="43.41755" lon="5.7037">
        <ele>657.2</ele>
        <time>2025-06-08T10:11:48Z</time>
      </trkpt>
      <trkpt lat="43.41755" lon="5.7037">
        <ele>657</ele>
        <time>2025-06-08T10:11:50Z</time>
      </trkpt>
      <trkpt lat="43.41754" lon="5.7037">
        <ele>657</ele>
        <time>2025-06-08T10:11:51Z</time>
      </trkpt>
      <trkpt lat="43.41749" lon="5.70369">
        <ele>657.8</ele>
        <time>2025-06-08T10:12:04Z</time>
      </trkpt>
      <trkpt lat="43.41748" lon="5.70369">
        <ele>657.7</ele>
        <time>2025-06-08T10:12:05Z</time>
      </trkpt>
      <trkpt lat="43.41754" lon="5.7037">
        <ele>657.5</ele>
        <time>2025-06-08T10:12:21Z</time>
      </trkpt>
      <trkpt lat="43.41754" lon="5.70369">
        <ele>657.3</ele>
        <time>2025-06-08T10:12:22Z</time>
      </trkpt>
      <trkpt lat="43.41748" lon="5.70372">
        <ele>658.1</ele>
        <time>2025-06-08T10:12:46Z</time>
      </trkpt>
      <trkpt lat="43.41749" lon="5.70372">
        <ele>658.1</ele>
        <time>2025-06-08T10:12:47Z</time>
      </trkpt>
      <trkpt lat="43.41749" lon="5.70369">
        <ele>658</ele>
        <time>2025-06-08T10:12:52Z</time>
      </trkpt>
      <trkpt lat="43.41749" lon="5.70369">
        <ele>658</ele>
        <time>2025-06-08T10:12:53Z</time>
      </trkpt>
      <trkpt lat="43.41749" lon="5.70369">
        <ele>658</ele>
        <time>2025-06-08T10:12:54Z</time>
      </trkpt>
      <trkpt lat="43.41749" lon="5.70369">
        <ele>658.1</ele>
        <time>2025-06-08T10:12:55Z</time>
      </trkpt>
      <trkpt lat="43.41748" lon="5.70371">
        <ele>657.8</ele>
        <time>2025-06-08T10:13:15Z</time>
      </trkpt>
      <trkpt lat="43.41747" lon="5.70372">
        <ele>657.9</ele>
        <time>2025-06-08T10:13:16Z</time>
      </trkpt>
      <trkpt lat="43.41748" lon="5.70373">
        <ele>658.2</ele>
        <time>2025-06-08T10:13:32Z</time>
      </trkpt>
      <trkpt lat="43.41748" lon="5.70373">
        <ele>658</ele>
        <time>2025-06-08T10:13:33Z</time>
      </trkpt>
      <trkpt lat="43.41755" lon="5.70363">
        <ele>657.1</ele>
        <time>2025-06-08T10:13:42Z</time>
      </trkpt>
      <trkpt lat="43.41762" lon="5.70357">
        <ele>657.6</ele>
        <time>2025-06-08T10:13:56Z</time>
      </trkpt>
      <trkpt lat="43.41761" lon="5.70358">
        <ele>657.5</ele>
        <time>2025-06-08T10:13:57Z</time>
      </trkpt>
      <trkpt lat="43.41766" lon="5.70363">
        <ele>656.5</ele>
        <time>2025-06-08T10:14:13Z</time>
      </trkpt>
      <trkpt lat="43.41766" lon="5.70363">
        <ele>656.5</ele>
        <time>2025-06-08T10:14:13Z</time>
      </trkpt>
    </trkseg>
  </trk>
</gpx>